GFSMW_500_spd_000.txt.gz
Wind_Speed
26 28 29 30 33 34 34 35 36 38 40 42 44 45 48 51 52 53 55 57 58 58 57 57 57 56 55 54 54 54 54 54 53 53 52 51 50 52 49 57 65 65 55
27 27 27 30 32 34 36 38 40 42 44 47 50 52 55 56 57 58 59 61 63 64 63 62 61 60 60 59 59 59 59 59 59 58 57 56 57 56 55 53 51 58 62
26 28 31 34 35 37 39 41 44 47 49 51 53 56 61 61 62 63 65 67 67 69 68 66 65 65 64 64 64 64 64 63 63 63 63 64 64 63 60 60 59 56 58
24 26 30 33 35 38 41 45 48 50 53 55 57 60 63 65 66 66 67 70 71 70 72 71 68 67 68 68 67 66 67 68 70 70 70 68 68 69 70 68 67 66 61
24 27 30 33 36 40 45 48 52 55 57 59 63 64 66 67 70 72 70 70 70 70 71 73 71 67 68 67 68 68 68 70 71 71 72 73 72 74 76 76 77 75 69
30 32 35 39 42 44 47 50 54 58 61 63 65 66 68 71 71 70 71 73 70 69 72 74 72 70 70 70 69 69 68 69 70 73 76 78 79 81 84 85 81 82 75
37 40 44 47 49 51 54 56 59 63 66 67 69 70 70 70 70 69 69 68 66 68 70 70 69 69 71 72 73 74 73 73 73 74 77 80 83 85 86 88 88 85 82
45 45 48 51 53 56 60 63 67 69 70 71 72 74 75 71 71 68 65 64 64 65 66 66 67 68 70 71 73 76 79 82 83 83 82 82 81 84 86 86 85 86 82
53 52 53 55 57 61 64 67 72 74 74 75 76 74 70 69 68 66 67 65 65 64 65 65 66 67 69 73 77 80 83 87 89 90 91 88 84 81 80 81 80 81 80
57 57 57 58 59 62 66 70 74 76 76 75 73 71 68 68 66 66 66 64 65 65 66 69 69 71 74 78 81 85 88 92 92 91 90 88 85 82 79 77 79 80 81
57 58 59 59 61 64 68 73 76 77 75 74 71 67 66 64 63 63 64 64 64 65 66 69 72 75 79 84 87 89 89 91 92 93 93 92 89 86 82 79 80 81 80
62 61 59 60 66 69 72 76 78 76 72 69 66 65 63 60 60 63 62 62 64 65 70 72 76 80 82 83 84 87 91 93 91 89 86 82 77 78 80 82 82 83 81
63 62 63 66 70 73 76 78 79 72 69 64 64 62 59 59 61 60 61 62 65 68 72 77 79 79 81 85 89 88 85 78 67 61 59 56 55 56 56 62 78 83 84
68 65 66 71 74 76 80 79 74 69 64 61 61 60 60 60 60 61 62 65 67 73 74 75 77 81 85 83 77 66 58 52 44 42 42 43 46 48 50 53 60 73 85
71 70 72 75 76 80 82 77 72 68 63 58 57 59 58 59 60 61 62 67 73 73 74 78 81 80 75 63 55 43 37 35 32 34 38 40 41 40 42 46 54 59 78
72 74 76 76 80 83 81 74 70 66 60 56 56 56 57 58 61 62 68 72 72 74 79 77 72 61 55 39 34 32 31 34 35 38 39 41 41 39 39 42 42 52 62
74 73 76 79 82 82 76 72 70 63 58 56 55 55 58 60 61 68 70 71 74 75 72 61 50 43 29 29 26 28 33 36 36 37 39 38 37 37 38 38 41 47 54
74 78 79 82 82 79 74 72 66 59 56 54 54 57 59 61 67 68 69 72 71 66 52 41 34 27 23 25 28 33 37 35 34 37 37 38 39 40 41 39 39 40 50
79 80 83 84 79 75 72 66 59 55 52 53 56 58 61 65 65 67 70 68 61 46 36 29 26 23 22 30 32 35 36 35 37 42 42 46 45 42 43 43 37 33 34
81 83 84 81 76 73 66 59 54 52 53 55 57 60 63 63 66 68 64 57 44 34 25 23 23 24 26 32 35 36 36 39 43 45 46 45 43 36 37 41 35 30 27
82 84 80 75 72 66 61 54 51 51 53 55 60 61 60 64 65 62 55 43 33 24 21 20 22 26 28 31 32 35 34 29 25 27 29 31 23 20 24 34 36 23 20
83 82 75 70 65 62 54 51 51 51 55 59 58 58 62 63 60 53 42 33 28 17 19 20 23 28 28 30 32 32 31 28 24 21 20 16 14 16 23 29 30 26 24
83 75 67 66 61 53 50 50 51 54 58 58 56 60 61 57 52 42 33 31 20 17 17 21 24 26 27 30 29 26 27 23 16 12 12 12 15 16 17 19 16 31 29
71 66 66 59 52 49 49 51 53 57 56 55 57 59 56 49 41 37 30 25 17 15 17 22 22 24 25 24 26 22 19 14 11 4 8 7 7 8 1 4 1 10 17
66 64 57 52 49 49 50 52 56 54 53 55 56 55 49 41 36 31 29 22 15 13 15 17 20 18 22 22 21 21 15 10 10 8 7 6 6 9 2 5 5 5 2
62 55 50 49 48 49 50 54 53 51 53 55 53 48 41 35 33 26 25 22 9 12 14 17 15 19 19 20 23 21 17 8 8 9 7 2 5 3 5 9 4 7 6

GFSMW_500_spd_003.txt.gz
Wind_Speed
21 20 20 22 24 25 25 27 29 31 35 38 41 44 48 50 53 56 57 59 59 58 59 62 61 60 60 57 54 53 51 50 51 49 49 46 45 45 41 43 44 43 49
21 23 23 25 28 30 31 34 35 36 40 44 48 52 55 57 59 61 63 64 66 67 64 63 63 64 63 63 61 58 57 55 54 53 53 52 51 49 48 46 49 51 47
24 24 26 28 30 33 34 37 40 43 45 49 51 53 58 63 66 68 68 69 69 70 72 68 68 65 65 64 61 60 61 61 60 59 57 56 56 54 51 50 50 52 54
26 28 32 34 37 39 42 45 48 49 51 52 55 58 59 63 67 71 72 71 71 73 72 73 74 73 68 63 60 63 63 63 61 62 62 60 59 58 58 55 55 56 57
27 32 35 38 42 45 47 51 52 53 56 59 58 62 64 68 69 70 73 72 71 69 70 71 72 72 72 70 62 62 64 63 63 62 62 61 61 61 61 62 60 61 61
34 38 41 45 48 49 51 53 54 57 59 61 62 66 69 72 73 73 73 71 67 66 67 66 67 68 68 69 64 61 62 62 61 60 61 63 64 64 66 66 66 67 65
43 46 48 49 55 52 52 53 54 56 60 64 67 69 72 73 74 74 72 69 66 64 64 64 64 64 64 62 62 60 59 59 59 61 61 61 64 67 69 70 69 70 68
50 51 55 57 58 55 56 56 56 59 63 67 71 73 75 74 74 71 66 64 63 64 63 63 63 62 60 60 59 58 58 60 62 62 62 64 64 65 67 70 71 74 73
55 59 60 61 60 59 56 58 60 63 68 71 74 75 75 73 70 66 62 61 63 64 64 64 64 62 59 57 58 58 59 61 64 66 69 70 69 70 70 70 72 76 78
61 63 64 63 60 57 62 63 63 67 71 72 75 74 73 68 65 63 63 62 65 62 62 63 62 59 59 60 61 62 63 67 71 75 77 78 78 79 77 76 76 76 77
64 66 65 64 64 65 61 64 66 70 72 73 75 72 68 65 63 60 62 65 65 63 62 60 59 59 61 62 65 69 74 78 81 80 79 80 81 82 82 82 82 83 81
66 65 66 65 66 66 65 67 68 72 74 75 75 69 67 65 60 59 62 64 63 60 59 59 60 61 64 71 75 77 78 78 79 80 82 83 82 80 78 76 73 73 78
64 65 67 67 67 68 68 69 73 74 78 77 72 69 68 62 59 57 59 59 57 57 59 61 64 70 74 75 75 76 79 82 83 83 81 77 68 63 56 54 53 54 53
62 63 66 67 68 68 70 73 76 79 81 75 71 69 63 59 55 55 54 54 57 59 61 68 72 73 73 75 78 80 81 82 79 71 62 54 47 43 41 41 43 46 50
64 66 67 69 69 71 75 79 82 84 80 73 69 64 60 55 54 52 54 56 59 64 70 71 71 73 76 78 78 75 67 60 50 41 37 36 36 37 37 38 37 39 43
66 67 70 71 73 76 79 83 84 83 75 70 65 60 57 52 51 53 56 59 66 70 69 71 74 74 74 70 59 50 39 35 31 29 30 33 36 39 42 44 43 43 45
71 68 69 74 77 80 83 82 87 80 70 66 63 57 51 51 53 56 60 66 67 68 70 72 71 68 57 47 37 32 30 28 28 30 33 37 39 42 43 45 43 43 45
71 71 75 77 80 82 83 87 82 69 67 63 56 52 51 52 55 61 64 64 67 69 69 65 58 47 41 33 29 31 30 33 35 37 39 40 41 44 45 43 43 43 44
75 77 78 80 82 83 86 80 69 69 64 57 52 51 52 55 61 62 62 65 67 64 59 51 41 37 31 28 31 32 35 37 38 41 44 45 46 48 48 48 49 49 50
79 79 80 81 84 84 79 69 69 64 57 52 50 51 55 60 59 60 63 64 62 55 45 38 33 30 27 29 31 33 37 38 40 41 35 36 37 41 47 49 49 49 51
77 80 82 84 85 78 70 69 64 56 52 50 51 55 59 58 59 61 62 60 53 43 34 28 27 28 28 30 34 37 38 39 34 29 29 32 35 36 34 28 29 32 39
80 81 84 85 77 71 68 62 55 52 50 51 54 58 56 57 60 60 58 51 45 31 25 24 25 27 29 33 34 34 33 32 32 30 29 25 29 22 18 22 26 30 32
80 83 82 75 72 66 59 54 51 50 51 54 57 55 56 59 59 56 51 43 33 24 21 22 24 28 30 29 29 28 28 25 20 14 12 12 14 20 23 25 27 26 31
82 80 75 69 62 56 52 50 50 50 53 56 54 54 57 58 55 50 44 38 26 17 17 22 26 24 24 23 22 20 14 10 10 11 9 9 11 16 12 7 11 14 16
77 71 65 58 55 51 50 49 49 52 55 53 53 56 57 54 48 42 39 34 24 11 13 20 19 20 19 17 17 18 14 7 8 12 12 11 12 11 9 12 18 17 16
66 62 57 53 50 49 48 48 51 55 53 53 55 56 53 47 41 34 31 29 20 11 15 17 19 16 14 15 18 20 18 10 10 13 14 12 12 10 9 10 6 6 11

GFSMW_500_spd_006.txt.gz
Wind_Speed
19 23 21 22 24 28 29 32 35 36 36 41 43 46 48 49 51 52 55 55 58 60 64 70 71 70 65 60 59 59 59 59 56 51 49 49 50 47 46 44 40 37 35
20 22 25 26 30 33 36 39 42 44 45 46 50 51 53 54 57 59 62 63 63 63 67 67 66 68 69 69 67 64 60 59 58 57 52 50 51 53 51 50 48 47 44
25 25 25 29 32 35 38 42 46 49 51 52 55 56 56 58 60 64 66 67 69 71 70 67 67 68 67 66 67 67 66 62 58 58 57 53 52 54 55 55 54 53 51
27 29 31 34 40 41 41 44 49 49 50 53 54 56 59 60 61 64 68 71 74 74 74 71 68 68 66 64 64 64 63 63 63 61 58 58 55 54 54 57 57 57 56
36 38 39 41 43 45 48 48 51 50 51 56 57 58 58 60 63 67 71 74 73 71 70 67 65 62 64 63 65 62 61 61 62 61 59 59 58 56 55 56 58 61 61
39 38 41 42 45 50 51 52 53 52 54 56 59 60 60 62 67 71 72 70 67 65 64 61 61 59 59 62 63 63 62 60 59 60 59 57 59 57 56 57 59 59 60
47 44 46 48 50 54 54 57 56 56 56 57 59 61 63 66 69 70 71 71 67 62 61 60 60 60 65 64 61 61 60 58 56 56 56 57 56 57 57 58 58 62 60
58 56 55 55 56 58 56 56 62 64 63 64 63 65 64 67 68 70 71 64 61 60 59 57 59 60 64 65 64 61 59 58 54 53 53 54 54 55 57 59 60 62 63
60 60 59 63 61 59 62 66 62 64 63 64 66 65 67 69 72 70 67 62 62 61 57 57 56 62 65 67 65 62 57 54 53 52 52 53 54 56 58 60 62 66 67
61 62 64 65 64 63 66 66 66 64 65 65 64 67 71 74 73 68 64 62 61 59 56 56 62 65 68 67 62 59 57 56 54 54 55 57 60 62 64 66 68 70 72
64 65 64 65 66 66 66 66 66 63 61 64 68 71 72 73 68 65 63 61 59 57 57 60 62 66 64 62 60 59 59 62 64 67 69 69 71 71 72 71 72 73 74
62 62 62 67 65 65 64 65 64 64 67 70 72 72 75 75 67 62 60 58 57 54 55 59 59 59 60 61 61 64 68 72 75 75 76 74 73 73 74 75 76 76 75
60 62 65 67 65 65 64 65 68 71 72 73 75 78 79 69 63 61 59 57 53 53 54 55 57 59 62 65 70 74 75 75 76 76 77 77 76 76 75 73 72 71 71
64 63 63 64 65 65 65 69 73 75 76 77 80 83 73 65 64 59 55 52 50 51 53 56 60 65 70 72 73 74 76 77 76 75 73 70 65 62 60 59 57 55 57
62 61 64 66 67 69 71 75 77 79 79 82 84 80 69 65 59 54 50 49 50 52 56 62 67 69 71 73 75 75 74 71 64 54 48 42 39 38 37 37 34 37 37
65 66 67 68 69 74 76 77 82 82 83 86 81 71 67 62 54 50 50 50 53 58 64 65 67 69 72 73 71 68 58 45 38 31 30 30 30 29 29 31 32 35 36
68 71 72 74 76 79 81 81 83 84 85 80 73 68 62 54 51 50 52 55 59 62 63 65 69 70 69 63 55 45 39 32 28 28 29 29 31 33 33 35 36 35 38
73 74 75 77 80 82 82 83 84 85 80 73 67 59 54 51 50 51 55 59 60 62 65 68 68 65 56 46 42 33 28 28 30 32 33 34 35 38 39 40 40 41 44
77 78 80 83 83 83 84 84 85 81 75 66 59 54 51 50 51 55 58 59 61 64 67 65 59 52 40 34 31 28 28 31 32 35 38 38 38 41 45 44 45 46 46
81 83 82 81 83 83 85 85 81 74 63 57 52 50 50 51 55 57 57 59 63 65 63 54 47 38 32 27 26 28 33 33 36 38 41 42 43 42 40 38 34 33 34
81 80 82 84 83 85 84 81 72 63 56 52 50 50 51 55 56 56 58 61 63 61 52 42 33 30 27 27 30 33 36 37 37 38 38 37 36 36 35 31 31 32 32
80 81 83 83 85 83 78 70 63 56 52 51 49 50 55 55 55 57 60 62 61 53 43 29 26 26 27 30 30 31 32 33 33 29 23 22 23 19 20 20 21 23 25
81 82 82 82 78 75 67 61 56 52 50 49 49 53 55 54 56 59 60 59 54 43 31 23 20 23 27 27 27 28 28 28 21 16 18 18 16 17 19 21 23 22 23
80 80 78 76 73 66 59 55 52 51 50 50 53 54 54 55 58 60 58 53 44 33 21 15 17 21 24 22 23 23 23 22 16 17 19 18 18 20 20 20 16 15 19
82 77 72 68 63 59 55 52 51 49 50 54 54 54 56 58 59 56 52 43 34 29 14 13 15 18 19 19 17 15 17 16 17 19 21 20 18 16 17 16 15 10 10
73 68 64 60 56 54 52 50 48 50 54 54 55 57 59 59 55 49 41 33 29 26 13 12 13 16 14 13 13 18 19 20 19 18 17 18 15 13 11 10 9 13 14

GFSMW_500_spd_009.txt.gz
Wind_Speed
23 24 24 23 24 24 26 31 36 38 38 43 46 47 48 48 50 53 55 55 56 58 58 59 61 62 65 66 65 64 64 64 63 61 56 57 57 57 58 56 54 52 50
23 26 28 28 29 32 37 39 40 43 47 49 48 50 50 50 53 55 57 59 60 60 60 61 65 68 70 71 67 67 65 65 65 63 61 58 59 60 61 59 60 58 54
26 30 34 36 38 38 37 40 45 48 51 51 51 51 51 52 54 57 59 62 62 63 66 68 70 72 71 70 67 63 62 63 62 64 63 60 59 60 60 62 61 64 60
33 34 37 39 40 40 43 45 48 49 52 55 56 54 53 55 57 58 61 62 63 65 68 70 72 72 70 64 60 59 57 60 63 62 59 60 60 60 59 60 63 66 66
41 35 39 43 41 40 38 42 48 49 51 51 53 57 59 58 58 57 59 64 66 66 69 71 72 71 67 62 60 60 59 58 57 57 59 58 59 61 60 58 60 67 69
50 47 46 46 42 38 42 46 48 50 50 52 54 55 58 58 59 59 60 62 66 68 69 69 67 63 60 59 60 59 58 60 61 61 58 58 57 57 61 61 59 63 70
51 52 53 52 52 51 53 53 55 59 59 61 61 62 60 59 58 58 61 64 64 64 65 65 63 61 60 59 56 60 64 62 67 66 62 60 57 56 58 59 60 62 64
54 57 60 60 61 58 58 59 61 64 62 60 63 64 62 62 64 66 66 66 67 65 63 63 63 63 59 56 57 63 65 64 66 68 65 64 58 55 55 57 60 61 64
55 60 62 63 62 62 61 63 65 65 62 60 61 61 62 65 66 66 67 69 68 63 60 59 60 62 64 65 64 63 63 66 66 67 67 60 56 54 53 54 58 61 62
56 57 57 57 60 59 61 64 65 63 63 62 61 63 66 67 68 68 69 70 64 60 58 59 61 62 62 63 63 62 63 65 66 62 59 57 57 55 55 55 56 57 60
59 59 59 58 60 63 62 61 62 62 62 62 65 68 69 71 71 71 70 66 59 59 58 60 59 58 57 59 60 63 63 62 61 61 62 62 62 62 63 64 66 66 67
56 56 54 58 59 59 59 61 62 64 66 67 70 72 73 73 72 71 66 60 59 59 57 57 56 55 56 57 58 61 61 62 64 66 69 70 71 72 71 71 71 72 74
54 54 56 57 59 60 63 65 67 69 72 74 75 75 76 75 77 73 66 60 59 55 53 53 52 53 55 57 59 63 66 68 69 70 71 73 74 74 74 75 76 76 77
55 56 58 60 63 65 68 69 71 74 77 78 77 78 77 77 74 65 60 56 52 51 50 51 52 54 56 61 65 67 68 70 71 71 71 71 70 69 69 70 70 72 74
56 57 61 63 64 66 69 73 75 76 77 79 80 80 78 76 71 61 54 51 49 48 49 51 54 58 61 63 66 68 69 68 67 62 57 53 50 49 46 45 44 48 52
61 64 66 69 72 74 76 78 79 79 82 82 82 80 78 69 60 55 50 49 49 50 52 56 57 59 62 64 66 66 63 58 49 41 37 32 30 30 30 30 30 32 32
68 69 73 75 77 78 79 80 81 82 82 82 80 75 66 58 52 48 48 49 49 52 54 55 58 61 63 64 62 57 48 35 28 26 23 24 25 28 29 30 30 30 31
70 73 76 78 79 80 81 82 82 81 80 78 75 67 58 51 48 48 48 48 53 53 54 57 60 62 63 59 53 39 26 24 24 25 28 29 29 32 33 32 33 35 35
76 78 81 82 81 82 84 82 81 79 76 74 64 57 51 48 48 47 48 52 52 54 56 60 61 61 57 50 34 25 24 26 29 32 34 35 36 37 39 38 37 37 40
83 86 85 82 83 83 82 82 80 75 71 63 57 51 48 48 47 48 52 52 54 56 59 60 58 55 51 35 24 25 28 30 31 31 33 36 38 39 40 41 40 36 33
85 83 82 83 84 83 82 81 77 70 64 57 51 49 48 47 49 53 53 54 55 58 59 56 49 47 35 23 22 28 30 29 29 30 30 28 23 20 23 28 31 33 32
78 80 83 83 83 83 82 77 69 63 57 51 50 48 47 50 53 53 54 56 58 58 56 48 39 34 26 21 25 28 27 27 27 26 23 23 23 21 22 17 16 18 20
80 83 83 85 83 83 76 66 61 56 52 50 49 47 50 54 54 54 56 58 58 55 48 38 30 23 20 21 25 24 23 24 22 21 21 23 24 20 21 19 17 18 16
84 82 89 85 81 75 63 57 54 53 52 50 48 51 54 55 55 57 58 57 54 49 40 29 19 17 16 19 19 19 19 18 16 16 19 21 21 19 19 18 16 17 14
84 86 91 80 71 59 54 52 52 53 50 48 51 55 56 56 58 59 58 53 49 43 30 21 14 11 12 14 13 11 13 12 13 15 17 20 22 22 13 13 13 13 14
83 92 79 66 57 54 53 53 51 49 48 52 56 56 57 59 59 57 52 48 42 33 22 15 10 7 7 8 7 8 9 11 14 17 14 17 23 20 14 8 9 11 16

GFSMW_500_spd_012.txt.gz
Wind_Speed
21 23 25 28 30 32 36 39 42 42 43 45 47 49 51 52 52 54 53 52 52 55 57 58 60 61 60 59 61 62 62 64 67 65 66 65 62 59 61 60 62 63 62
26 28 28 31 35 33 35 40 43 46 47 50 51 54 55 54 54 54 56 58 58 58 58 60 61 60 58 59 62 63 64 65 66 67 67 65 62 62 61 62 65 67 67
28 33 32 32 31 35 36 37 39 45 50 51 53 54 54 53 54 58 58 58 60 61 61 61 61 63 62 61 63 65 66 66 66 67 67 66 65 61 60 62 64 69 72
29 33 33 32 32 34 35 36 38 44 49 51 55 57 59 59 58 57 58 60 60 61 61 62 62 62 65 66 67 68 68 63 61 64 65 68 69 67 64 56 59 65 70
33 34 36 39 42 42 43 44 45 47 51 49 50 56 57 58 60 58 58 59 59 58 60 63 65 66 65 66 69 72 70 65 63 63 65 66 66 67 68 64 57 57 64
45 43 44 47 49 49 49 47 48 51 52 54 54 55 57 56 57 56 57 58 60 60 60 62 63 65 68 69 70 69 68 69 69 69 70 65 62 60 63 64 59 59 58
46 47 49 53 54 56 54 53 53 55 57 60 60 60 59 60 61 61 63 65 68 68 67 66 66 66 67 65 66 68 67 70 72 72 70 71 69 64 63 66 63 62 60
49 49 52 53 55 56 60 59 58 60 62 61 61 61 62 62 62 64 67 69 69 69 69 67 67 64 61 64 67 67 69 70 71 72 73 73 71 67 65 67 68 64 59
47 49 50 50 52 58 59 59 59 59 59 60 62 63 63 65 67 68 70 68 69 69 68 66 65 62 60 65 67 68 67 68 68 68 67 66 67 66 66 67 67 64 58
46 46 49 53 56 54 54 53 56 58 61 63 65 66 68 70 71 71 71 71 72 71 68 63 61 62 65 67 66 65 68 68 66 66 66 65 66 68 68 65 62 59 58
44 49 53 49 50 54 54 56 58 60 63 65 69 71 73 74 73 74 75 73 72 70 65 62 62 62 64 67 68 68 67 66 64 64 64 63 64 65 65 65 63 61 61
49 50 48 50 54 56 60 60 61 64 69 70 72 72 74 76 77 76 73 71 70 67 63 60 59 59 61 61 62 63 62 61 61 62 64 64 67 68 69 70 70 69 68
45 52 56 54 55 61 62 63 67 70 72 73 74 75 75 75 72 72 71 71 67 63 59 55 54 54 56 58 59 59 59 60 61 63 64 66 68 69 71 73 74 74 74
54 58 57 57 63 65 66 70 73 76 77 76 76 75 74 73 73 71 72 68 60 56 53 52 51 52 53 54 56 58 59 60 62 65 67 68 69 69 70 70 71 72 73
56 58 61 62 68 68 73 77 81 83 81 78 77 76 76 74 72 71 67 59 52 50 49 49 50 51 54 56 56 59 61 62 61 60 60 60 60 58 55 54 53 56 58
56 62 67 68 68 72 77 83 85 82 79 79 79 79 76 72 69 65 57 52 50 49 49 50 51 55 54 55 58 61 59 56 54 51 43 40 37 35 33 32 33 33 33
58 65 68 70 73 77 81 85 82 82 81 81 82 80 75 65 57 52 49 48 48 48 48 51 53 53 54 57 59 57 54 51 39 31 27 26 27 29 30 30 30 29 29
62 67 73 74 76 79 83 83 82 84 84 84 83 78 68 58 52 47 47 48 47 47 50 51 52 53 56 58 55 52 46 31 25 25 27 31 32 35 35 33 33 33 32
73 76 77 78 83 87 92 88 84 87 87 87 82 68 56 50 47 46 45 44 46 50 50 51 53 55 55 54 51 43 27 20 23 29 34 35 35 36 38 39 39 38 37
78 79 80 80 84 89 95 90 90 84 95 85 66 56 51 48 47 46 45 47 50 51 51 53 54 53 51 49 41 27 19 21 27 29 30 32 33 33 31 29 27 26 33
76 81 83 80 84 88 89 92 93 91 88 65 55 52 50 49 47 45 48 52 53 52 53 52 52 50 48 41 27 20 20 26 26 27 27 28 28 27 26 24 21 21 24
77 77 80 80 80 82 87 90 90 79 62 54 51 51 50 48 47 49 53 55 54 54 53 50 47 45 42 31 19 19 24 24 22 22 20 21 23 25 28 25 21 17 15
78 79 78 77 79 86 91 84 62 55 53 52 52 51 49 49 51 54 56 56 56 54 50 47 43 36 33 22 18 20 20 18 19 19 20 19 19 19 19 18 19 17 16
79 84 85 87 83 93 70 55 53 53 53 54 52 49 50 54 56 57 58 58 56 53 47 42 34 28 24 16 17 16 13 16 18 19 22 19 20 19 19 12 10 12 16
81 80 83 87 90 68 54 50 51 53 53 51 50 53 56 57 59 60 60 57 54 50 42 34 25 21 20 15 12 7 8 11 11 13 13 15 19 21 19 14 10 12 16
84 87 87 75 58 50 49 51 52 51 50 51 55 57 59 61 61 59 54 51 48 43 36 25 16 16 17 14 6 4 6 8 10 11 12 14 13 11 13 15 14 14 12

GFSMW_500_spd_015.txt.gz
Wind_Speed
21 25 27 28 26 26 30 32 36 39 41 42 44 49 50 50 53 54 53 52 53 56 59 59 60 60 60 60 60 60 61 60 61 62 63 61 61 61 62 61 61 60 59
24 26 29 32 31 32 32 34 36 40 45 48 48 50 52 51 54 54 56 59 62 62 61 59 59 60 61 61 60 59 58 59 60 61 62 62 63 64 67 68 66 65 63
27 29 32 34 32 33 33 35 39 44 49 53 55 55 53 55 54 56 59 62 65 65 65 63 61 60 60 60 61 62 61 59 61 62 63 64 65 67 69 71 70 68 66
28 29 31 32 32 33 35 39 43 48 50 53 55 59 57 58 60 63 64 64 64 64 65 64 63 63 64 66 67 67 67 66 63 64 64 65 66 70 71 70 70 69 69
33 35 35 32 36 39 41 46 50 54 54 53 54 56 57 58 59 59 59 60 61 62 63 63 64 66 67 68 69 69 69 68 68 69 71 70 69 69 71 68 66 67 69
41 43 42 44 44 46 51 54 56 58 55 55 56 59 59 57 57 58 61 61 63 64 66 67 68 66 64 65 66 66 67 69 68 69 71 71 72 72 72 68 65 66 64
47 49 49 50 52 55 58 58 59 60 59 57 56 56 58 60 62 64 67 69 71 72 71 70 69 68 67 65 65 65 65 67 65 69 71 74 75 73 75 72 68 66 62
48 49 52 53 56 58 58 58 59 58 58 58 59 61 63 64 67 71 74 75 75 75 74 72 71 67 65 64 62 66 65 62 64 69 76 73 74 75 75 75 74 70 69
50 51 53 55 56 55 54 55 55 56 56 60 61 63 65 69 73 76 77 78 78 79 77 72 68 66 63 62 61 65 64 62 66 66 72 78 76 73 74 75 73 72 67
44 45 47 51 52 50 53 53 55 58 63 65 66 68 71 74 77 79 80 81 81 79 76 70 68 66 63 62 57 62 67 69 72 77 78 77 75 77 75 72 69 69 69
41 44 47 49 48 54 59 59 59 62 66 70 70 71 74 78 81 80 76 74 73 72 70 67 66 64 63 61 61 62 65 68 71 75 77 74 71 70 69 68 68 68 68
44 44 47 52 56 59 61 63 63 66 70 72 72 74 81 83 81 78 77 73 72 70 68 63 63 63 60 57 56 57 60 61 62 63 64 65 65 65 67 69 70 72 71
53 53 55 57 58 60 64 68 70 77 78 78 79 81 82 84 83 80 80 75 69 69 63 61 59 55 52 52 53 54 56 56 57 59 61 62 63 64 66 68 70 71 72
55 55 56 58 60 62 63 67 73 78 80 82 83 84 88 92 84 86 86 75 68 59 56 55 52 50 51 51 51 51 52 56 58 58 60 63 66 67 68 69 69 70 70
56 57 58 60 62 64 68 73 76 77 80 82 86 91 93 95 87 84 83 73 62 52 49 48 47 48 48 49 50 53 56 55 57 60 61 62 63 64 64 64 60 58 59
59 58 58 62 65 71 73 76 80 82 84 84 84 92 92 85 86 87 70 58 52 51 52 53 51 48 48 51 53 53 54 56 57 55 56 58 57 49 40 33 28 29 31
60 61 63 68 71 73 77 79 83 87 88 86 86 86 87 86 83 64 50 47 48 49 49 48 46 47 50 51 52 53 54 53 52 53 52 40 32 31 32 35 36 36 34
62 66 68 70 75 78 80 81 82 86 87 83 82 87 86 71 53 47 45 47 48 47 46 45 47 49 50 51 52 52 50 48 47 42 30 26 29 34 39 40 41 41 40
69 71 72 75 78 85 85 84 85 86 90 85 83 86 65 53 47 46 46 46 45 44 44 47 50 50 50 51 51 48 45 41 33 26 27 30 34 36 38 39 38 36 38
72 73 77 80 83 85 87 83 87 86 84 81 79 61 52 49 49 48 47 45 44 45 48 51 52 52 50 49 46 43 40 28 23 25 29 33 35 35 36 33 29 24 26
75 78 82 85 83 83 83 84 88 85 75 62 54 50 51 50 48 47 46 47 49 51 53 53 54 53 50 45 42 37 27 19 21 24 28 31 32 31 30 31 27 24 22
78 82 84 84 83 86 87 89 82 67 58 51 48 50 50 49 48 49 51 53 55 55 56 56 53 50 46 42 36 26 17 18 20 23 25 26 26 25 25 25 28 22 19
84 85 85 83 83 88 96 80 66 58 50 49 51 51 51 51 53 54 56 57 59 59 57 55 50 44 41 37 27 17 15 17 18 18 18 18 19 15 16 17 14 11 13
84 85 86 84 87 90 74 63 54 49 50 51 51 52 53 55 57 60 61 61 59 57 53 49 42 36 32 28 18 13 14 13 11 13 17 13 11 15 20 21 18 12 11
82 85 85 91 81 68 56 50 47 49 50 49 51 53 56 59 60 60 57 54 52 48 41 35 29 23 21 20 13 10 9 8 9 12 12 6 7 10 11 13 15 17 16
83 85 89 73 63 53 46 46 49 47 47 50 53 57 59 58 55 51 48 46 42 39 34 29 22 18 13 14 10 9 7 8 8 10 7 3 5 8 9 11 16 18 21

GFSMW_500_spd_018.txt.gz
Wind_Speed
24 26 28 29 31 32 33 33 38 40 41 41 45 48 50 51 53 54 55 56 56 56 57 58 59 61 61 60 60 59 59 59 58 58 57 58 59 59 59 60 62 63 64
27 27 27 28 30 31 32 35 40 43 45 47 52 55 55 57 57 57 56 58 60 62 63 63 62 61 61 61 62 61 59 56 55 57 59 59 60 62 63 64 65 65 64
27 28 29 29 31 34 36 39 42 46 49 52 56 55 56 58 59 59 56 56 58 59 60 61 62 63 64 64 65 65 65 63 62 59 60 62 62 61 62 63 65 67 65
30 32 30 32 34 34 36 41 44 46 50 54 56 56 56 57 56 55 56 57 58 58 59 61 63 64 66 67 68 69 68 68 67 67 63 61 62 63 64 64 64 66 68
34 36 38 38 40 41 44 48 50 51 53 53 56 57 56 54 55 54 56 58 60 62 63 65 67 68 69 69 68 69 68 69 67 67 67 61 62 62 65 64 62 61 63
41 42 44 45 46 46 48 50 50 50 52 54 55 55 56 58 59 62 63 64 65 67 69 72 74 75 75 74 74 72 70 68 64 62 62 63 64 65 65 66 64 64 62
43 45 47 49 50 50 50 52 54 57 57 57 63 66 64 63 67 69 72 73 74 75 74 76 80 81 79 77 75 72 70 68 65 63 62 59 66 68 69 68 69 70 67
47 49 50 51 51 52 54 56 57 57 58 61 67 66 65 65 69 72 75 77 78 79 82 82 79 78 77 76 72 68 66 65 63 62 57 55 64 62 60 67 66 74 72
45 47 47 47 49 51 53 56 58 59 61 64 69 68 69 70 72 79 80 80 81 82 83 82 81 79 76 73 70 66 66 62 60 55 60 60 67 71 68 75 80 80 80
40 42 43 45 48 53 54 56 58 60 62 65 71 74 74 77 81 84 83 81 82 85 87 86 87 84 77 69 64 64 61 57 59 53 59 70 75 77 79 79 80 84 85
42 41 43 47 52 52 55 60 63 64 67 70 71 71 73 77 80 84 84 84 85 85 86 89 83 78 72 59 60 57 56 58 55 56 60 69 75 75 76 77 77 76 75
43 46 50 53 58 60 61 63 65 66 69 71 73 78 80 83 87 88 89 92 89 88 85 80 76 61 55 54 53 52 53 51 51 53 56 59 61 62 63 64 65 67 69
51 55 60 62 63 65 65 67 68 69 72 76 78 79 81 85 88 90 91 90 88 84 74 67 53 48 49 48 49 48 49 50 50 52 53 55 56 58 62 63 63 64 66
59 62 62 63 66 66 67 69 70 73 75 78 81 84 89 92 89 90 92 88 81 74 55 45 42 43 46 47 48 49 48 46 47 49 52 55 56 58 60 63 65 66 67
60 63 66 67 67 68 70 72 73 75 79 82 85 90 95 93 92 89 83 76 65 50 44 45 47 50 52 54 55 50 46 47 50 52 53 55 58 60 62 62 62 63 63
64 66 67 67 68 70 71 72 73 78 82 86 87 87 89 88 83 74 67 48 40 41 46 49 50 50 49 48 46 46 47 49 50 51 54 55 56 58 58 58 58 53 43
66 67 69 71 72 73 74 73 77 83 88 87 86 90 89 81 70 62 52 43 42 43 46 48 48 46 44 43 44 47 49 49 51 52 51 51 52 51 47 38 34 34 36
69 72 73 74 75 75 77 79 82 88 88 87 87 86 75 67 59 51 48 47 45 44 44 44 45 44 44 46 48 48 48 49 49 49 48 46 42 36 32 33 37 40 43
77 78 80 79 78 79 82 83 87 88 90 90 82 71 64 56 51 49 48 47 46 45 44 45 47 48 49 49 49 49 47 47 46 45 43 37 29 29 35 36 35 34 35
84 83 82 80 81 84 83 85 83 87 91 81 69 60 52 49 50 48 48 47 48 50 50 51 53 53 52 52 51 48 45 42 40 38 33 27 27 31 33 33 32 30 29
82 82 80 81 85 88 87 87 87 86 78 67 58 51 49 50 49 49 51 53 54 55 56 56 57 57 57 54 51 47 40 36 31 27 23 23 27 29 28 28 28 30 29
82 72 74 84 89 87 85 87 84 74 64 55 50 51 51 50 52 55 57 58 58 58 57 55 53 51 50 50 46 39 32 26 21 19 17 21 24 20 18 15 16 17 15
78 78 79 80 84 85 88 84 73 62 53 51 52 49 51 54 57 58 59 57 54 52 49 47 43 39 38 38 35 26 19 16 13 11 14 15 12 10 7 13 20 16 12
82 79 78 79 85 85 79 71 61 51 48 49 48 50 53 56 58 57 53 51 49 46 43 38 34 31 29 28 24 15 9 8 8 9 9 11 8 4 7 12 14 16 17
79 79 76 76 79 75 67 59 50 46 47 47 48 51 54 55 53 51 49 47 44 40 36 35 32 26 20 19 13 7 8 7 4 6 9 9 5 1 6 8 12 15 18
76 79 74 77 75 65 59 48 45 45 45 45 48 51 53 52 49 46 42 42 41 40 38 34 28 22 14 8 7 7 7 4 2 4 7 8 6 2 3 7 13 14 17

GFSMW_500_spd_021.txt.gz
Wind_Speed
21 23 27 28 29 32 33 34 38 40 41 41 43 47 50 52 53 56 54 54 55 56 57 57 57 58 58 58 57 57 57 57 57 58 57 56 55 55 56 56 56 56 56
25 29 30 29 31 31 32 37 40 40 40 44 49 51 51 53 55 55 55 56 56 56 56 58 59 59 60 61 61 61 62 62 61 64 63 61 59 59 59 61 61 61 61
29 31 31 32 34 34 36 39 42 43 45 48 50 50 52 54 55 55 56 58 58 60 59 58 60 62 63 64 65 65 66 67 66 64 67 66 63 59 58 60 63 64 65
30 31 33 33 34 36 38 42 44 45 47 48 48 50 53 55 56 55 57 59 60 61 61 63 64 64 66 67 69 69 71 70 72 70 67 69 64 63 61 60 62 65 66
33 34 36 38 39 42 44 45 46 46 46 48 51 52 55 56 58 59 62 62 62 63 66 68 69 71 72 72 72 73 72 74 71 71 67 66 68 66 63 63 65 64 66
35 38 40 42 44 45 44 44 45 47 50 53 56 58 62 64 66 67 69 71 73 73 73 74 76 78 80 80 79 78 77 73 71 71 70 68 66 64 64 64 68 68 65
40 42 44 45 45 46 48 50 51 53 57 60 62 64 66 69 72 73 74 76 79 79 79 80 82 83 82 82 80 80 80 79 77 74 70 68 67 64 65 64 66 68 68
41 43 43 44 46 49 51 52 53 57 62 65 66 68 71 73 74 74 77 78 79 79 83 86 86 86 84 83 80 78 81 81 78 72 69 66 67 67 65 66 65 66 68
41 40 43 46 49 50 52 55 59 63 65 67 68 70 72 73 74 75 77 78 82 84 84 84 86 87 88 86 83 84 81 77 75 69 67 64 57 62 58 64 69 73 68
38 41 46 49 51 54 54 57 60 63 66 70 71 72 74 76 77 79 82 84 84 86 89 91 91 88 86 83 81 77 71 66 64 62 56 54 55 60 65 68 71 73 76
43 47 49 50 53 55 60 63 65 68 69 70 72 74 75 77 79 80 82 85 89 91 91 91 87 82 75 69 67 59 54 52 48 46 47 49 51 57 61 67 68 74 79
49 49 51 54 58 62 64 67 69 69 71 73 76 77 78 78 80 85 88 89 90 90 91 85 76 66 57 51 49 46 48 46 47 47 47 47 49 52 56 60 64 67 70
50 52 57 59 62 64 67 69 71 72 74 75 76 76 76 82 86 89 92 93 91 86 75 66 58 45 41 41 42 43 44 45 46 47 48 51 51 52 54 55 56 56 58
56 58 60 62 65 67 69 72 74 76 77 78 77 79 82 85 90 95 93 87 78 67 60 51 43 42 45 45 46 48 49 51 51 50 48 46 46 48 51 52 54 55 57
57 60 64 67 68 70 73 74 76 78 77 76 80 84 84 87 92 93 84 72 65 56 48 43 43 45 48 49 50 50 48 46 44 44 45 47 49 50 50 50 52 54 57
63 65 68 71 71 74 79 81 80 78 79 83 86 92 95 94 94 82 69 63 53 48 46 45 45 46 46 47 47 45 44 43 43 44 46 47 48 50 50 51 53 53 53
68 71 72 72 76 79 84 84 84 84 86 89 93 92 91 92 74 65 57 52 51 50 48 46 44 44 44 44 44 44 43 43 45 46 46 47 47 47 48 47 47 48 44
72 73 75 76 76 82 86 86 84 84 86 86 87 91 84 69 61 53 51 51 51 49 48 48 49 49 50 50 49 48 48 48 48 47 47 45 44 45 43 42 37 29 32
76 78 82 80 80 83 86 87 84 83 85 89 88 82 67 54 50 52 51 49 51 52 54 55 56 56 55 56 55 53 51 50 49 46 44 42 39 38 36 27 25 30 33
78 81 82 85 82 87 89 88 83 84 87 86 78 65 52 49 50 49 52 54 56 58 59 58 57 57 55 55 53 51 50 47 43 40 38 35 32 27 23 23 24 24 29
76 79 84 90 88 90 88 82 84 86 84 74 63 53 49 50 50 52 55 57 58 58 55 53 52 51 49 47 45 43 40 35 29 29 28 25 21 20 17 16 16 16 18
79 75 78 86 89 85 79 80 80 77 73 63 54 49 49 48 50 53 56 58 56 52 49 46 43 41 40 40 38 36 30 23 20 19 17 16 15 12 13 10 3 9 14
76 78 83 82 81 77 79 76 75 74 63 55 48 48 46 48 51 54 57 56 52 47 42 41 38 36 36 35 33 30 20 14 13 12 11 10 10 12 8 3 4 9 13
78 81 79 80 77 80 76 72 72 64 56 47 46 44 46 49 51 54 56 52 47 43 42 38 34 31 29 27 26 20 11 8 9 8 7 7 5 5 5 1 4 7 11
80 77 83 78 76 76 72 68 63 56 48 44 43 43 46 48 49 53 53 49 46 43 39 35 32 28 24 21 18 10 4 8 8 5 2 2 1 5 5 2 5 7 9
78 81 80 75 71 69 67 60 53 49 42 41 40 43 46 46 48 50 50 47 43 39 37 34 29 23 17 13 11 3 7 9 6 3 2 1 4 8 8 2 4 6 10

GFSMW_500_spd_024.txt.gz
Wind_Speed
20 23 24 28 32 34 36 38 40 39 40 41 43 45 47 49 51 52 52 53 54 56 56 57 57 59 61 62 62 62 62 62 61 61 61 61 60 58 58 56 56 57 56
24 27 30 33 34 36 37 39 40 41 43 45 46 48 50 51 52 51 53 55 57 58 59 61 62 63 63 64 64 64 66 67 65 66 65 66 67 67 61 61 60 60 63
26 30 33 35 36 37 38 40 41 44 46 48 49 49 50 50 51 54 58 60 61 62 64 65 68 69 67 67 67 68 69 69 70 71 70 71 72 73 74 71 63 64 66
30 31 32 34 36 38 40 41 43 45 45 46 48 50 51 53 54 57 61 64 63 65 67 68 69 71 72 73 74 73 73 73 73 76 77 74 71 69 71 71 68 64 64
33 32 35 37 40 42 43 44 43 44 46 49 50 51 55 60 63 65 65 68 71 73 75 75 77 77 77 77 77 76 76 79 79 77 76 75 76 70 70 69 70 72 69
35 35 38 41 41 41 41 42 45 48 51 53 54 56 59 62 67 70 72 74 76 78 80 81 80 79 78 78 79 81 81 80 81 80 79 77 73 73 71 70 66 68 73
38 40 41 42 43 43 44 48 51 54 56 58 61 64 68 69 71 74 76 77 78 79 80 81 82 83 84 84 82 81 83 83 85 82 81 79 76 74 73 71 70 69 71
39 40 42 41 43 45 49 52 54 55 59 62 65 68 69 71 73 74 76 77 78 79 81 83 84 84 85 87 86 86 87 88 87 86 85 82 78 74 72 71 71 72 72
39 38 40 43 45 50 53 53 55 58 60 63 66 67 69 70 73 76 79 80 81 82 82 84 87 88 90 91 92 91 87 86 84 82 80 77 74 71 71 69 65 69 66
38 42 45 47 50 51 53 55 58 59 61 63 66 70 73 75 77 78 79 80 80 82 86 88 90 91 91 88 83 77 72 68 68 66 66 61 53 49 49 54 59 63 69
42 44 46 48 52 54 57 59 61 64 67 69 69 73 76 77 78 78 79 81 85 86 89 87 88 81 74 69 64 59 55 53 52 50 48 47 46 47 49 58 61 62 65
45 47 50 54 55 57 60 64 66 69 72 72 73 77 77 79 78 79 82 86 88 91 90 82 72 67 60 54 49 47 45 46 48 50 49 47 47 48 48 50 51 56 63
49 52 55 56 59 63 66 67 68 70 73 74 77 80 83 84 86 85 87 90 91 88 78 69 60 52 47 46 46 47 48 48 47 48 48 48 49 48 49 50 51 51 53
53 56 59 62 65 69 70 72 73 77 77 78 82 87 87 86 91 91 90 90 87 73 65 54 49 47 47 47 48 49 50 50 51 50 49 48 47 46 46 45 44 45 47
56 60 63 66 69 71 74 76 78 81 82 83 88 92 94 93 92 91 91 81 68 58 53 51 50 51 50 47 45 46 46 47 47 47 46 46 45 44 44 43 44 45 47
60 64 69 72 76 77 77 78 78 79 86 90 91 92 95 92 89 85 74 62 53 53 53 52 51 51 51 49 50 48 48 47 47 47 47 45 43 42 42 42 43 47 48
67 70 74 78 78 79 78 78 84 86 85 89 93 94 89 87 84 74 60 52 52 51 52 53 54 55 56 54 54 53 53 52 51 50 50 49 47 46 45 45 46 46 45
70 76 79 80 77 74 78 84 87 84 89 90 89 85 84 80 72 60 51 51 51 52 54 57 58 58 58 56 55 53 52 51 52 52 51 49 47 46 44 42 41 39 38
74 77 77 72 75 85 89 88 85 87 88 86 82 80 73 68 61 53 51 50 52 54 57 60 60 58 55 54 53 51 50 48 46 44 44 45 44 41 39 37 33 30 25
79 81 78 77 78 81 81 82 84 83 84 78 74 71 68 60 53 50 49 51 53 55 59 60 57 53 49 48 47 45 43 40 37 36 35 35 33 31 30 26 20 19 23
73 83 79 81 81 81 82 82 80 83 77 72 70 68 62 54 49 48 50 52 53 56 59 57 51 47 46 45 44 41 37 33 28 27 27 25 22 21 18 14 15 12 11
78 79 80 79 80 80 81 80 79 76 71 69 66 60 55 48 46 47 50 51 53 57 57 51 47 43 42 40 38 36 32 27 21 19 18 15 13 11 11 10 8 11 7
80 80 82 80 80 83 81 77 75 72 68 63 57 54 48 45 44 47 50 50 54 57 52 45 40 39 39 36 34 32 27 20 13 8 8 8 8 9 7 8 9 9 2
81 81 81 82 84 82 79 76 71 67 61 55 52 49 43 41 43 47 48 49 54 54 46 39 37 35 33 31 29 25 17 9 3 6 8 8 9 9 10 9 7 4 2
82 83 83 84 81 78 75 72 68 62 58 54 49 42 38 38 42 47 46 49 53 49 40 36 33 29 26 26 24 19 11 1 5 6 6 4 4 7 10 11 5 4 4
82 82 82 81 78 75 72 69 66 62 56 47 39 35 33 36 42 45 44 47 50 44 37 34 31 27 27 24 18 10 4 4 4 3 3 1 6 8 10 9 6 5 4

GFSMW_500_spd_027.txt.gz
Wind_Speed
22 23 25 27 31 33 37 39 42 43 45 46 47 49 50 52 53 53 52 53 53 55 57 60 62 62 63 64 65 65 66 67 68 68 65 67 66 67 67 64 63 63 63
23 24 27 31 35 38 41 43 44 46 47 49 50 51 53 54 54 54 54 57 58 58 60 63 67 67 66 67 69 70 71 71 71 68 66 67 70 71 69 71 67 67 66
25 27 31 35 38 41 42 44 46 47 48 51 52 53 54 52 53 55 56 57 59 64 68 69 69 69 71 74 75 76 76 76 74 74 71 70 67 67 68 72 77 73 69
29 33 35 38 40 41 43 46 48 49 49 51 50 50 52 53 56 58 59 61 64 64 68 71 73 74 76 78 78 78 79 79 77 76 75 75 72 69 70 69 69 74 72
34 37 40 41 41 43 45 48 48 48 47 48 50 53 54 56 58 62 65 66 68 70 72 73 74 75 77 78 79 80 81 81 81 80 79 77 74 73 75 74 71 65 75
39 41 42 42 44 44 44 46 44 46 48 51 54 55 57 60 64 66 68 71 73 73 73 74 76 78 80 81 81 81 82 81 83 84 84 85 83 80 79 78 78 77 69
42 42 43 44 45 44 43 44 47 50 53 54 57 60 63 66 69 71 73 73 73 73 73 74 75 77 79 80 81 83 84 85 85 87 87 88 88 86 84 82 81 80 74
41 43 44 44 42 44 46 48 50 52 56 60 62 64 67 69 71 74 78 77 76 75 78 79 80 81 80 83 85 84 86 85 86 88 89 89 87 83 80 77 76 76 75
42 44 41 42 43 45 47 49 53 57 59 60 64 66 66 67 68 72 74 75 78 81 84 88 87 85 84 84 84 82 77 76 73 74 73 69 67 66 65 64 66 71 73
41 40 41 43 45 48 52 56 58 59 61 64 68 68 70 71 74 75 77 80 82 87 88 88 87 86 83 80 75 69 65 61 58 55 55 52 48 48 49 45 47 50 51
41 42 43 46 50 53 57 59 62 65 69 72 72 72 74 76 79 81 84 86 85 87 89 89 87 81 74 67 59 53 50 48 47 48 49 50 50 51 52 52 50 50 59
41 46 49 53 56 59 62 64 67 71 74 77 77 80 80 79 82 85 83 88 89 89 87 86 77 66 57 51 48 46 46 46 46 47 49 50 51 48 47 48 47 47 51
45 48 51 56 61 65 67 71 74 76 78 78 78 79 80 85 85 83 86 87 89 86 84 74 61 52 49 48 48 47 48 47 48 48 48 49 50 49 48 45 45 46 47
47 52 56 61 65 70 73 75 79 81 81 78 79 83 86 85 85 87 86 89 86 80 71 58 54 54 52 51 51 52 51 51 50 48 48 48 47 47 46 46 45 45 45
51 57 62 66 70 74 77 80 82 82 80 76 83 85 84 86 86 84 86 81 74 68 57 52 53 53 54 54 54 55 54 54 53 53 52 51 50 48 47 44 43 44 44
54 61 66 70 76 80 83 85 84 83 78 86 86 84 85 86 84 84 79 73 67 58 52 51 52 54 55 56 57 58 56 54 52 51 52 53 53 52 50 48 45 43 41
63 67 72 76 79 81 82 65 73 89 85 85 85 85 85 83 79 76 70 65 59 52 50 51 54 55 58 59 60 58 55 52 50 48 47 47 48 50 51 49 46 45 44
68 73 77 78 79 76 68 82 86 84 85 85 84 84 81 77 74 70 65 57 53 50 50 53 55 56 62 62 59 55 51 48 46 45 44 43 42 43 44 44 44 42 41
72 76 79 79 77 79 81 81 84 84 84 84 85 79 75 72 67 62 56 52 50 49 51 54 55 59 62 59 54 51 48 44 42 41 40 40 38 37 36 34 35 35 34
79 82 82 78 79 79 82 83 83 82 83 85 79 75 71 66 60 55 51 49 48 49 51 53 57 60 57 52 48 47 44 40 38 36 36 35 33 29 27 26 25 25 26
82 81 80 81 82 84 84 86 85 83 84 82 77 70 65 59 53 51 48 47 47 49 50 53 58 54 49 46 44 43 41 37 32 30 29 29 25 20 19 17 17 18 19
80 80 82 83 83 84 85 85 84 83 82 77 71 67 62 56 51 47 44 44 46 49 49 53 53 46 44 43 39 37 35 30 25 22 21 16 11 9 11 13 14 14 13
80 81 82 84 84 84 84 84 83 78 79 74 70 65 59 52 44 40 39 41 46 46 49 52 46 40 40 37 36 36 31 26 20 14 7 2 2 4 6 8 10 12 10
80 82 84 85 85 83 81 79 78 74 73 69 61 53 45 37 34 33 36 41 44 45 48 48 42 38 38 36 36 31 25 17 10 5 3 2 3 5 5 6 10 10 10
82 84 85 83 81 79 76 75 74 69 61 53 45 37 30 26 30 28 35 41 43 44 47 45 41 36 37 36 30 22 17 12 5 4 2 1 2 2 6 11 10 9 8
84 83 81 79 77 75 72 69 64 59 51 40 32 24 20 29 23 29 36 40 41 43 44 43 39 36 36 32 21 17 12 5 5 6 3 4 2 5 9 9 8 8 7

GFSMW_500_spd_030.txt.gz
Wind_Speed
26 28 27 26 26 30 35 37 41 42 46 45 48 52 53 55 55 55 55 53 54 53 55 56 58 60 63 65 67 67 66 66 67 68 66 66 66 67 68 69 70 70 68
27 29 29 29 31 34 38 41 44 47 48 49 53 53 54 55 54 54 55 57 58 57 59 61 64 66 67 68 68 69 69 69 69 70 72 71 69 68 68 70 68 68 71
28 29 30 32 36 39 42 45 48 48 48 52 55 54 53 52 53 56 58 59 61 65 66 69 69 69 70 71 72 73 74 75 72 72 74 76 76 75 69 66 64 62 62
30 30 32 36 39 42 45 47 48 50 50 52 52 52 51 53 56 58 60 63 65 66 68 70 71 73 74 75 75 74 71 71 72 72 74 75 76 76 76 71 68 67 66
33 35 37 41 43 44 46 47 50 50 50 48 48 51 53 54 58 61 63 64 66 69 71 71 73 74 74 75 77 78 78 77 79 77 77 77 78 81 84 80 77 73 71
38 41 42 46 46 45 47 47 49 47 50 50 50 53 56 57 59 63 66 69 70 72 72 73 73 75 76 78 79 81 82 82 81 81 83 83 82 81 87 88 85 83 80
40 43 46 47 48 49 50 44 43 45 48 51 56 59 60 63 66 69 71 71 71 73 75 74 75 78 80 81 81 82 83 84 84 84 84 85 86 87 87 90 88 84 84
41 45 46 46 47 47 45 44 45 49 53 57 60 63 66 68 71 74 75 73 73 73 74 78 82 84 82 81 83 83 83 83 83 80 78 77 78 77 75 74 72 68 68
43 44 46 47 43 42 44 48 51 55 58 61 64 67 70 72 73 71 70 71 74 77 81 82 81 80 81 82 83 82 80 73 67 62 61 58 58 57 55 50 43 44 45
41 43 40 40 41 44 47 50 52 58 63 66 70 72 75 78 76 74 75 76 80 83 82 83 82 82 83 80 77 71 64 56 51 48 47 46 47 47 45 44 43 43 48
40 40 39 41 43 46 50 54 58 63 67 71 75 80 82 82 80 81 80 84 84 85 84 85 83 81 78 73 64 54 49 48 48 47 47 47 48 48 47 47 47 48 47
33 38 40 42 46 52 57 61 65 70 76 81 83 85 86 78 78 80 81 82 81 82 83 82 78 74 69 60 51 47 47 47 48 48 48 48 48 47 48 47 47 47 47
43 42 45 49 53 58 64 69 74 79 81 84 84 82 72 73 86 86 85 82 83 81 77 74 70 66 59 53 51 49 50 50 50 52 53 53 52 51 50 49 47 45 44
43 45 49 55 60 64 70 77 81 82 84 84 79 73 78 87 87 86 83 83 81 76 72 68 64 57 52 50 49 51 53 52 53 54 54 54 54 54 53 52 50 47 43
44 50 55 60 65 73 78 82 83 85 83 81 82 85 84 85 84 84 82 79 74 70 65 61 54 51 50 50 51 53 54 56 57 57 54 51 50 51 52 52 51 50 47
50 55 60 67 73 78 82 84 86 85 84 85 84 85 86 85 83 83 80 74 69 63 58 53 49 49 51 52 53 54 58 60 58 53 50 48 46 45 47 49 47 49 49
55 60 66 74 79 83 86 87 86 85 84 84 85 87 88 82 80 78 71 65 60 55 50 48 47 49 52 53 54 58 59 56 51 48 46 43 42 42 43 43 44 43 45
62 67 75 79 82 84 85 87 88 87 88 88 89 88 86 79 76 71 65 59 54 49 48 45 46 50 52 54 57 56 52 48 45 44 43 41 38 38 39 37 36 37 36
68 74 77 81 83 85 89 88 87 90 93 91 92 86 87 79 72 68 61 54 48 46 43 42 47 50 51 56 55 49 46 42 40 39 39 38 36 34 33 31 28 28 29
73 77 79 83 87 88 85 87 88 89 89 84 83 77 74 70 69 63 54 45 42 40 36 43 48 48 52 52 48 44 40 40 41 38 36 34 32 29 27 25 20 19 23
78 82 83 84 84 83 86 88 89 88 84 78 62 74 69 54 56 56 43 37 36 32 37 43 45 49 51 48 43 43 43 43 38 33 31 29 25 20 16 12 10 13 16
81 83 84 83 84 86 89 90 88 83 80 72 69 55 55 47 51 42 32 30 30 32 40 42 44 48 47 44 41 42 41 36 30 26 22 17 12 8 4 2 6 10 12
83 82 81 84 86 90 90 88 83 77 74 68 60 52 51 44 39 29 25 29 27 35 40 41 44 44 43 40 40 38 33 28 22 19 15 13 11 9 6 0 5 9 11
81 83 84 86 89 90 86 78 75 71 66 59 52 47 40 30 22 20 26 24 31 38 39 41 45 40 40 38 37 30 25 23 17 14 13 11 9 8 6 3 3 9 11
81 83 85 88 89 86 77 72 68 59 54 47 39 33 26 18 16 22 20 26 34 38 39 43 43 39 38 35 33 23 23 15 13 15 13 11 10 6 4 3 6 8 8
83 84 86 87 83 75 70 63 54 47 40 33 27 22 17 19 21 19 24 30 35 37 40 43 38 37 37 32 29 22 21 12 12 14 11 10 8 5 5 6 6 5 7

GFSMW_500_spd_033.txt.gz
Wind_Speed
25 28 31 31 29 27 30 34 39 42 44 45 48 46 51 54 56 55 54 52 52 54 56 56 57 59 60 62 63 65 66 67 69 70 70 70 70 69 67 67 67 68 69
26 28 31 33 33 32 35 37 41 44 48 50 51 51 52 54 53 53 55 57 57 57 59 61 62 64 66 68 69 71 73 74 76 77 76 75 72 72 71 70 70 71 72
23 27 30 33 34 36 39 42 44 47 50 50 49 50 50 49 50 52 54 56 60 62 64 67 70 72 73 74 75 76 76 75 76 76 79 80 81 80 77 75 74 72 72
23 28 32 33 36 38 42 46 47 48 47 49 50 48 47 49 50 53 58 60 61 64 66 69 72 74 76 78 78 79 79 79 78 77 78 80 82 83 82 77 75 74 73
29 29 32 36 38 41 44 47 48 49 49 45 42 44 47 50 54 58 61 63 65 68 71 72 73 76 77 77 78 78 79 81 82 83 83 81 80 83 85 80 78 77 78
38 37 37 38 38 40 42 45 48 49 49 49 49 49 51 54 58 61 64 67 70 72 72 73 75 75 76 77 79 80 82 81 81 80 81 82 82 83 86 87 85 82 80
42 41 41 42 42 41 43 45 43 42 44 47 49 53 58 61 65 69 72 74 76 78 81 78 76 75 77 80 81 81 81 80 80 81 81 81 82 83 83 85 84 85 84
40 44 43 47 43 46 46 43 42 44 46 49 53 57 62 67 71 75 78 80 82 81 80 76 76 79 82 82 81 79 81 80 80 79 79 77 73 72 71 70 69 68 69
47 47 47 45 42 40 41 41 42 44 47 51 57 64 69 73 77 79 79 80 75 77 77 76 86 80 80 79 81 79 76 73 72 70 65 60 56 53 52 51 49 51 47
44 41 37 37 37 39 40 41 45 49 54 61 68 72 76 80 80 78 78 77 79 76 79 88 86 84 81 81 77 73 68 63 59 54 50 50 50 48 48 50 50 49 47
41 42 39 37 35 38 43 48 51 59 65 70 75 79 83 85 85 85 84 83 82 83 84 86 84 82 78 72 68 64 59 53 46 45 46 46 47 48 48 49 50 51 50
45 40 38 39 42 47 51 54 60 65 72 77 81 85 87 88 87 82 84 84 84 84 83 82 80 74 66 62 60 57 51 46 46 47 48 50 51 51 52 52 52 52 52
34 38 41 45 48 52 56 61 67 74 78 82 86 89 90 89 84 81 82 85 85 81 79 75 68 62 58 57 53 49 45 46 49 51 53 53 54 55 56 56 55 54 53
35 39 44 49 54 59 64 69 75 79 83 86 87 87 86 86 83 83 84 84 81 75 68 63 58 56 53 49 46 44 45 48 51 52 54 57 58 57 56 55 53 52 51
38 43 48 52 57 61 67 73 78 82 86 86 86 85 86 84 88 88 90 87 74 66 62 58 54 51 47 46 42 44 48 50 51 55 57 55 52 50 51 52 49 47 47
43 48 52 57 61 66 71 77 82 85 87 87 89 90 92 98 99 92 85 74 68 63 58 53 50 47 44 40 42 46 49 52 55 54 47 45 45 46 47 46 44 44 43
47 52 57 62 67 72 78 82 85 88 88 90 92 93 92 90 85 72 62 68 75 59 56 49 45 41 37 40 44 46 49 53 51 44 39 38 41 43 43 43 40 36 37
54 59 63 69 73 77 82 86 88 89 91 93 91 88 85 80 74 44 66 69 63 52 56 42 37 33 39 44 46 49 51 50 46 43 42 43 42 43 40 36 34 33 32
60 64 68 72 76 80 84 88 88 87 89 89 87 83 78 71 58 47 60 62 52 52 38 34 31 36 41 43 47 49 48 44 42 43 44 42 39 37 35 30 28 26 26
61 67 71 76 80 83 86 89 87 87 90 89 88 79 70 63 37 45 56 58 48 42 32 29 35 39 41 44 47 46 45 41 40 37 36 37 34 29 26 22 21 19 22
68 71 74 78 83 86 87 87 88 90 89 87 80 69 62 55 41 47 51 54 37 28 25 31 38 39 42 46 44 44 40 37 31 29 28 25 21 17 14 11 10 10 13
71 75 78 82 85 85 86 87 89 90 85 79 68 56 51 45 39 38 36 22 22 23 27 35 37 41 45 42 41 39 37 31 27 22 21 21 20 17 13 8 3 3 7
75 79 81 82 83 84 86 87 88 82 76 65 53 46 41 34 26 22 18 20 19 25 32 35 39 42 42 38 38 36 33 28 21 19 20 20 18 17 13 8 2 2 6
77 80 81 82 82 84 85 87 83 72 63 48 39 32 26 23 22 23 22 20 24 29 34 37 41 42 36 35 36 32 27 25 17 19 21 18 18 13 8 6 3 2 5
78 79 81 82 83 84 84 81 73 60 47 35 26 23 25 26 24 23 22 24 28 32 34 39 43 39 34 34 34 29 21 19 14 17 18 16 14 10 8 8 8 5 6
78 79 81 82 82 82 79 72 62 47 35 26 24 25 27 27 25 25 26 28 31 33 35 40 43 38 34 34 33 28 22 18 11 14 15 12 11 8 7 7 8 7 4

GFSMW_500_spd_036.txt.gz
Wind_Speed
23 26 27 29 27 25 29 31 34 39 43 46 49 47 50 49 48 52 51 49 48 48 50 53 55 57 59 59 61 63 65 67 69 71 72 73 73 73 74 74 75 75 75
24 26 27 26 29 31 31 36 42 45 47 50 51 52 53 53 54 53 52 52 53 56 58 60 62 63 65 67 68 70 71 74 76 77 79 79 78 78 78 78 79 79 79
25 27 27 28 30 35 38 41 44 46 48 50 51 52 52 52 51 51 51 54 56 59 61 63 67 70 73 76 77 78 80 82 84 84 84 85 84 83 80 78 80 80 80
27 26 23 28 31 34 37 40 43 46 48 50 51 52 50 48 49 52 55 57 60 62 67 70 73 77 79 80 82 84 86 87 87 85 83 86 88 88 82 82 82 81 81
28 26 33 34 33 35 37 40 44 47 47 48 47 46 46 47 49 52 55 58 62 65 69 73 76 78 80 82 83 82 83 85 84 81 86 88 89 91 90 82 81 79 80
33 34 35 34 34 39 40 46 49 49 48 45 44 45 45 46 51 56 63 67 70 74 77 80 81 82 81 80 80 82 83 85 85 87 90 88 87 87 88 87 83 84 81
37 35 33 31 40 42 45 47 46 45 44 43 43 46 50 55 61 66 70 74 78 81 83 84 84 82 82 82 81 82 84 88 93 94 89 86 86 85 85 86 84 83 82
41 34 42 46 43 39 37 37 38 37 37 40 46 50 55 61 67 72 75 79 83 86 87 87 86 85 84 82 82 83 85 88 90 87 84 79 78 77 77 76 75 75 73
51 47 48 37 37 38 36 35 34 37 41 45 50 56 63 69 75 80 84 87 89 90 88 86 84 84 85 85 84 84 84 84 79 74 71 68 67 67 65 62 59 57 54
39 35 33 38 35 31 33 36 41 44 49 55 60 65 70 76 81 85 89 90 90 88 88 87 86 86 85 84 82 79 76 70 67 64 62 60 58 56 53 52 52 53 53
33 35 38 42 35 37 41 44 48 53 57 61 66 71 77 81 85 88 89 88 88 88 88 86 86 85 81 74 69 66 63 62 60 58 55 51 48 48 49 50 52 52 54
37 37 38 36 38 41 45 49 53 57 62 66 71 77 82 86 89 88 88 88 88 87 87 86 83 72 63 64 62 58 58 56 54 51 48 47 47 49 51 53 54 54 55
28 32 37 40 42 46 51 55 59 64 69 74 78 82 86 87 87 86 86 87 90 94 89 79 64 64 68 67 60 55 53 51 49 47 47 48 51 52 54 56 57 58 58
32 35 38 42 46 51 56 60 65 69 73 77 80 84 86 87 87 90 94 97 94 86 74 66 61 65 75 60 52 47 46 44 45 47 49 51 53 56 57 55 52 51 51
34 37 41 46 50 54 58 63 67 71 75 79 82 84 89 91 94 95 95 93 84 72 55 57 60 67 63 55 43 40 40 42 46 49 51 54 55 54 52 49 42 41 42
37 41 45 49 53 56 61 65 70 74 78 83 88 91 91 94 95 95 92 80 70 53 54 56 61 64 57 42 36 36 41 45 48 50 53 52 50 48 47 45 46 46 44
41 44 47 50 55 62 67 70 75 81 84 87 88 90 91 93 93 88 77 68 55 41 53 59 61 61 42 36 37 41 44 47 50 50 50 48 45 44 44 45 46 45 43
45 48 51 58 62 67 72 77 82 85 85 87 87 89 91 89 85 77 66 57 36 39 43 54 60 50 35 38 42 45 47 50 48 49 47 44 42 41 40 39 37 37 37
49 53 58 62 67 72 75 79 83 85 85 85 87 89 90 87 78 64 55 50 43 46 46 54 47 33 36 41 44 46 48 45 46 44 41 40 34 31 31 31 30 30 32
54 58 62 66 71 74 77 82 85 84 84 86 88 89 87 76 60 50 44 38 32 34 35 28 28 33 38 42 45 47 42 43 40 35 34 30 28 27 26 24 22 21 22
59 63 67 71 74 77 81 84 85 85 85 86 88 84 72 56 43 36 29 23 22 22 23 25 31 37 39 44 46 41 41 40 33 30 25 27 29 27 25 20 17 15 13
64 67 72 75 77 80 83 84 84 84 85 86 83 71 54 38 28 28 28 27 26 25 26 31 35 37 42 45 41 39 40 38 28 23 22 26 26 26 24 18 13 11 8
69 73 76 77 80 82 82 84 84 84 84 82 71 58 40 28 28 30 29 28 28 28 30 34 35 39 43 42 36 37 39 36 26 20 22 24 24 22 17 13 10 8 6
73 76 77 79 80 80 81 83 82 82 80 70 60 44 31 27 29 30 28 28 29 30 33 34 36 39 42 40 35 35 35 33 25 19 20 22 20 16 13 12 10 7 4
76 77 79 78 79 80 81 81 80 78 69 60 49 35 27 27 29 29 28 28 29 31 33 34 37 39 41 39 34 35 34 29 22 18 17 18 16 13 11 11 12 10 5
75 77 77 78 79 80 81 79 75 67 61 51 39 30 26 26 28 28 26 27 29 32 34 33 37 39 41 39 33 33 33 29 21 16 14 14 13 11 10 10 10 10 5

GFSMW_500_spd_039.txt.gz
Wind_Speed
22 23 25 25 25 21 21 26 29 35 43 45 48 49 48 48 51 54 53 54 50 48 48 47 49 52 54 57 60 62 63 65 67 68 68 69 70 70 72 73 75 75 76
24 26 25 25 25 25 27 31 36 40 43 46 49 52 54 55 56 56 56 52 51 51 51 54 57 61 65 67 69 72 74 76 76 77 76 75 74 75 77 79 82 83 82
25 26 25 25 24 28 32 36 42 47 50 52 53 54 56 57 57 56 53 52 51 52 57 61 67 71 73 74 77 79 82 83 84 85 86 85 83 83 81 81 83 84 84
25 24 25 28 29 33 39 38 40 43 47 50 52 57 59 59 57 54 54 54 57 61 65 69 73 76 79 81 83 84 86 87 87 87 87 88 89 88 85 83 83 85 87
28 26 28 33 35 39 40 40 40 44 46 51 56 57 55 53 51 51 52 56 59 64 69 73 77 80 82 84 86 86 85 85 85 86 86 87 88 90 90 85 86 86 88
29 31 38 39 42 41 42 40 43 45 50 52 50 49 49 48 49 54 57 61 66 70 74 78 81 84 86 87 87 87 86 86 86 88 89 91 91 92 95 96 94 97 96
30 31 38 44 46 37 43 37 40 43 48 45 42 42 46 51 55 59 63 67 71 77 80 84 87 90 90 88 87 86 86 87 89 91 92 92 92 92 93 94 93 92 87
36 36 41 42 49 30 30 39 40 40 37 37 42 45 49 54 58 63 68 74 79 82 86 89 91 90 88 87 87 88 90 90 90 88 87 85 84 83 82 80 78 75 74
34 39 44 46 37 34 35 32 32 34 37 41 46 51 55 61 67 72 77 80 83 87 90 92 93 91 90 91 91 91 88 84 79 75 71 72 73 71 68 68 67 65 61
31 32 32 30 33 33 30 34 36 39 44 49 54 58 63 69 73 78 81 85 88 92 93 94 94 94 94 93 91 89 79 68 72 74 71 67 67 62 59 58 55 55 54
28 31 31 33 32 33 37 38 42 47 51 55 59 65 70 73 77 81 86 90 93 95 95 95 95 96 96 91 84 72 63 64 69 62 55 54 53 51 51 51 52 54 54
34 34 33 33 36 38 40 44 48 52 55 59 64 69 71 75 81 86 89 92 94 95 97 95 95 92 80 73 66 60 62 67 69 49 43 43 44 46 49 51 52 54 55
37 37 36 38 40 42 45 49 52 55 59 64 69 73 77 82 86 89 91 93 93 95 95 96 91 76 68 64 52 59 62 70 49 41 42 43 46 48 50 52 53 55 57
38 38 40 41 42 45 49 52 55 59 64 70 74 77 82 86 89 90 90 92 95 97 97 91 78 65 58 52 51 57 65 50 40 42 45 47 49 51 53 55 55 54 54
36 39 40 42 45 48 52 55 59 65 69 74 77 81 87 91 92 94 96 96 97 95 84 72 64 47 49 56 57 59 43 39 44 47 49 51 54 53 52 53 51 51 50
38 39 42 45 49 53 56 60 64 69 74 77 81 86 89 91 92 92 93 94 91 79 65 58 51 44 46 51 54 46 39 46 47 48 52 52 50 51 48 47 46 46 47
41 43 46 48 51 55 60 64 69 74 78 82 86 89 92 91 91 91 93 89 74 60 53 46 44 45 46 50 48 39 45 46 49 51 47 48 48 44 41 39 40 40 42
45 47 49 52 56 61 65 70 73 78 81 85 89 91 90 89 89 91 86 70 52 45 38 33 32 32 36 33 37 42 45 49 50 45 46 46 40 36 34 35 35 37 38
49 51 53 58 63 67 71 73 77 80 84 87 89 90 90 90 89 85 68 47 36 32 31 32 32 31 31 36 39 43 47 47 42 43 45 40 35 34 35 34 34 33 35
51 54 59 63 65 68 73 77 79 83 87 89 89 90 90 89 84 70 48 35 36 33 32 34 34 35 36 37 41 44 45 39 39 40 37 35 31 34 35 35 33 29 29
55 59 60 62 67 72 76 78 82 86 88 88 89 89 88 83 69 55 38 32 33 32 32 34 36 38 37 40 43 45 44 38 38 37 30 30 30 32 33 31 28 24 23
59 59 63 68 72 75 79 81 83 85 86 88 89 85 79 69 57 41 32 32 34 33 32 35 37 38 37 41 43 45 41 38 37 34 27 25 28 29 29 26 24 21 18
60 64 68 72 75 78 80 81 83 84 87 88 84 77 67 58 47 34 30 32 33 32 32 34 36 38 37 41 43 43 39 36 37 33 23 21 25 25 23 21 21 18 15
65 68 72 73 77 79 80 81 82 85 86 82 75 67 60 50 40 31 29 30 31 30 32 35 36 37 38 41 42 41 36 34 36 32 24 21 22 21 18 18 19 18 13
69 71 73 76 78 79 79 82 84 84 79 71 66 60 52 43 34 28 28 30 29 30 33 35 35 34 37 40 41 39 35 31 33 31 22 19 19 18 16 16 17 17 14
71 72 75 77 78 77 80 83 82 76 70 66 61 54 45 38 31 28 27 29 28 31 33 34 32 33 36 38 39 39 35 30 31 30 22 18 16 16 15 14 14 14 11

GFSMW_500_spd_042.txt.gz
Wind_Speed
14 18 20 22 23 23 21 22 23 29 37 40 44 50 53 54 57 55 54 55 56 55 54 50 46 44 46 50 54 58 63 65 66 68 70 72 73 74 75 75 76 76 75
19 22 22 24 25 23 17 28 33 37 41 44 48 48 51 54 55 56 58 58 56 54 50 48 50 53 58 62 66 69 72 75 78 79 80 80 81 81 82 82 81 80 80
24 27 24 24 26 28 33 38 42 42 44 47 48 48 54 55 56 56 55 54 52 50 52 57 62 64 68 72 75 78 81 82 82 83 85 86 86 85 83 83 83 84 85
29 32 31 28 30 31 35 40 41 45 49 51 49 53 57 55 53 53 50 49 51 55 59 63 66 69 74 77 81 84 84 85 86 87 88 89 91 91 90 87 84 85 87
28 32 32 30 33 37 40 44 48 50 45 46 48 50 55 53 51 50 51 54 57 60 63 67 71 74 77 80 82 84 87 89 90 91 90 88 88 90 90 88 88 88 89
28 30 31 33 35 39 42 44 42 45 37 41 45 49 52 47 47 51 55 58 61 64 67 70 74 79 82 85 88 90 91 92 93 93 92 91 90 90 92 95 95 94 93
30 31 34 30 40 45 45 48 60 42 38 43 47 46 45 47 50 54 58 60 64 67 72 78 81 85 89 92 93 93 95 95 95 94 93 93 90 88 86 87 87 86 82
24 26 28 36 41 45 47 48 44 38 41 40 41 43 46 50 54 57 61 66 71 76 81 85 88 91 93 94 95 96 97 97 97 94 86 78 72 71 71 73 75 75 73
25 29 33 36 39 41 44 43 44 41 39 42 44 47 51 54 58 62 68 74 79 82 86 90 93 95 97 97 98 99 101 98 90 78 70 68 61 59 63 59 56 56 55
29 33 34 34 35 37 37 35 36 41 43 45 48 52 56 59 65 71 76 80 83 88 93 95 96 97 98 98 98 99 90 79 67 58 60 58 60 63 49 45 44 45 48
30 31 33 35 35 34 35 38 41 43 47 51 54 58 61 66 71 76 81 85 89 93 96 99 100 99 99 100 94 81 70 56 54 53 58 63 59 44 41 41 43 44 49
36 38 38 38 39 41 43 45 47 49 52 55 59 61 66 72 77 82 86 90 93 97 99 101 100 99 99 89 75 65 54 45 47 53 57 43 41 43 46 47 47 48 51
38 40 41 40 42 44 46 47 49 52 56 59 63 67 72 78 82 86 90 94 97 98 99 98 98 95 82 68 61 49 43 47 53 51 42 42 46 48 48 49 51 51 51
39 40 40 40 43 45 47 50 53 56 59 63 68 72 78 81 85 88 92 95 97 99 97 96 88 73 62 56 48 42 42 43 47 42 45 48 49 51 52 48 48 50 50
41 41 42 44 46 48 50 53 55 58 63 69 73 76 80 85 87 90 93 95 96 96 95 83 67 53 47 39 34 32 34 40 40 45 48 52 53 50 47 48 46 43 43
45 45 45 47 48 50 53 55 58 63 69 71 74 79 83 87 89 92 94 95 97 94 80 63 45 36 36 36 36 36 35 39 43 46 50 51 45 45 47 42 39 37 39
47 48 49 49 50 52 55 59 63 66 67 72 78 82 85 87 90 93 95 96 91 76 62 43 38 35 36 36 36 37 38 42 45 48 49 43 43 45 38 34 36 39 41
51 51 51 50 52 54 59 62 63 67 72 76 80 83 86 88 91 93 95 88 75 62 44 38 36 35 36 36 38 39 40 44 47 49 44 41 43 39 32 33 37 39 40
52 52 53 53 55 58 60 63 68 72 76 79 83 85 87 89 92 93 85 73 63 50 36 36 35 34 36 37 39 40 42 45 47 45 40 41 39 34 32 34 36 37 36
53 54 55 56 58 59 63 67 71 75 78 81 84 85 87 91 92 84 73 63 53 40 34 35 34 34 36 39 41 40 43 45 44 40 37 39 33 29 31 33 34 34 33
55 55 56 57 58 62 67 71 74 77 80 82 83 86 89 89 81 73 65 53 44 34 33 34 33 34 37 39 40 41 43 44 42 36 33 34 29 26 28 30 30 32 29
56 57 58 59 63 68 71 73 76 79 81 82 84 87 85 77 73 66 58 47 36 30 31 31 32 33 38 39 38 40 43 43 41 35 32 31 24 23 26 26 28 30 27
58 59 60 64 69 71 72 75 78 80 81 81 84 84 73 72 67 59 50 41 32 29 30 30 30 34 37 36 37 40 42 42 40 34 32 30 22 20 23 23 25 26 25
59 61 64 68 70 72 75 77 79 79 80 83 82 72 68 68 62 53 44 36 30 28 29 28 31 35 36 34 36 38 40 40 38 32 31 30 21 19 21 20 22 23 22
62 65 68 70 72 74 77 78 77 79 81 81 71 66 67 64 55 46 39 32 29 28 28 28 31 34 33 33 35 36 38 39 36 31 30 30 24 19 18 18 18 20 19
65 68 70 72 74 76 77 77 78 80 79 70 64 65 64 58 49 41 36 30 27 27 26 27 30 33 31 31 32 34 36 38 37 32 29 28 24 19 17 17 15 17 16

GFSMW_500_spd_045.txt.gz
Wind_Speed
13 16 20 17 19 22 23 26 25 35 32 31 45 51 49 50 51 51 51 53 52 49 46 43 40 41 44 46 49 52 55 59 63 66 70 73 75 76 77 78 78 79 80
17 20 22 22 24 25 23 22 25 37 42 46 47 49 51 52 51 52 53 54 51 47 45 46 49 52 54 57 60 63 66 69 70 71 73 76 78 79 81 82 82 82 82
20 23 27 27 28 31 33 35 33 36 43 48 47 51 54 57 53 51 53 53 49 46 48 52 55 58 60 63 65 67 69 71 73 76 79 82 83 83 84 86 88 88 88
22 24 26 26 27 30 34 36 38 44 47 47 47 49 51 54 50 50 53 49 47 51 53 55 58 59 61 64 68 73 77 79 82 84 87 89 91 93 96 97 95 95 95
21 24 28 30 31 30 33 37 41 43 45 45 47 46 47 47 50 50 48 50 52 56 57 58 59 65 69 74 78 82 86 89 92 94 96 96 99 102 103 103 100 98 95
22 25 27 29 31 33 35 36 39 47 52 57 53 43 43 48 48 48 51 54 56 59 61 65 69 74 79 83 87 90 94 98 99 100 99 100 100 99 98 96 92 88 83
17 21 25 29 32 35 38 42 46 49 50 49 47 46 48 47 49 52 56 59 62 64 68 73 78 81 86 90 93 96 98 98 100 103 103 101 94 88 82 79 75 69 68
18 21 23 26 29 32 34 36 38 41 43 44 47 47 49 51 53 57 61 63 65 69 75 80 84 88 91 93 95 97 99 102 104 103 94 83 75 65 61 59 55 56 57
20 23 25 27 29 31 34 37 38 39 41 43 47 50 51 54 57 59 61 64 70 75 80 83 87 90 93 96 100 102 104 105 98 84 73 63 55 50 50 52 55 47 40
22 24 26 27 30 31 33 36 39 41 44 46 49 51 54 57 59 62 66 70 75 79 83 88 91 95 98 101 102 104 98 88 76 66 59 48 44 50 49 39 40 43 44
24 26 29 31 33 35 36 38 40 43 46 49 51 54 57 60 62 67 73 76 78 84 89 93 96 97 101 103 104 94 77 66 60 55 45 41 44 45 40 42 47 48 49
29 32 36 37 39 40 41 41 43 45 48 51 55 57 60 63 69 73 74 79 85 89 92 94 95 99 102 98 83 67 54 50 46 39 36 37 39 40 45 47 49 51 53
35 37 40 42 43 45 45 45 46 48 51 54 56 59 64 69 70 73 79 84 87 90 91 94 98 99 89 74 58 46 42 41 39 38 39 39 42 45 47 51 51 48 47
37 40 43 45 46 47 47 46 48 50 53 56 59 64 67 68 73 78 83 86 87 89 92 96 96 85 72 57 43 41 41 40 39 38 40 43 45 48 51 48 46 47 47
41 43 46 48 48 49 49 50 51 54 56 59 63 65 67 73 77 81 84 86 87 91 94 92 83 70 57 44 41 39 40 41 41 41 44 46 48 51 48 46 46 45 40
44 46 50 50 50 51 52 53 54 56 58 62 64 67 72 77 79 82 84 86 89 92 88 81 71 59 44 38 36 37 40 42 43 42 45 46 47 47 44 44 43 37 36
47 49 51 51 51 52 54 55 56 57 60 63 67 72 76 77 79 82 85 87 90 86 78 72 59 47 35 35 35 37 40 42 43 43 44 45 45 43 42 41 34 34 39
50 52 52 52 54 56 57 57 57 59 62 67 72 74 76 78 81 83 85 88 84 76 72 60 48 35 33 35 34 37 40 42 42 44 44 44 42 39 41 32 30 34 35
52 53 54 55 57 57 56 57 59 62 67 71 73 76 78 79 81 83 86 82 74 73 63 49 37 30 32 32 33 37 40 40 42 44 43 42 37 38 35 27 29 30 32
53 54 54 56 56 57 58 59 62 66 70 73 75 77 78 80 82 84 81 72 71 67 52 40 30 29 30 30 32 37 38 39 40 42 41 38 34 35 29 24 27 26 31
55 55 55 57 57 58 60 63 67 71 73 75 77 78 79 80 83 80 73 69 68 56 43 33 28 28 29 29 33 36 36 38 39 39 38 33 31 32 25 23 24 25 29
55 55 57 58 60 61 63 67 71 73 75 76 78 78 79 81 79 72 68 67 60 47 37 29 26 28 27 29 33 34 35 36 37 37 35 31 30 29 22 21 23 24 27
56 57 59 60 61 64 68 70 74 73 77 78 77 78 80 79 72 66 65 62 51 41 33 28 27 27 26 29 32 32 33 34 35 36 35 31 29 27 21 19 21 22 25
57 57 58 61 65 69 71 73 72 74 80 79 77 78 78 72 65 63 60 54 43 36 31 27 26 26 26 28 30 30 30 32 34 36 35 32 30 27 20 18 19 19 22
56 59 62 66 70 71 71 73 76 78 79 77 76 76 72 65 62 59 54 46 38 34 30 26 25 24 25 27 29 28 28 29 31 34 36 34 30 29 24 17 18 17 18
59 63 67 70 70 70 72 76 77 80 77 75 75 71 64 60 59 53 47 40 35 32 28 25 24 23 24 26 27 27 27 29 30 32 35 35 31 26 24 19 16 17 15

GFSMW_500_spd_051.txt.gz
Wind_Speed
11 13 13 13 14 17 20 23 26 28 30 34 38 42 45 45 44 48 51 50 51 51 48 47 44 46 47 46 47 49 51 53 55 55 56 56 60 64 67 68 68 71 73
13 12 12 15 18 22 23 24 26 28 31 34 38 39 42 45 46 48 50 48 45 42 44 46 50 49 49 52 53 54 55 57 59 61 64 67 68 71 75 77 79 81 81
14 16 18 20 22 23 24 26 27 29 31 33 35 37 39 41 44 47 48 48 48 49 48 50 49 52 53 55 57 58 59 61 65 69 73 76 77 79 80 82 85 88 91
20 21 21 21 21 21 21 20 21 23 26 29 31 34 36 40 42 45 47 50 49 51 53 56 57 57 58 60 62 64 68 71 73 74 77 81 84 87 88 91 93 94 95
23 21 19 16 14 13 15 17 19 21 24 27 30 33 35 38 41 44 48 51 55 57 56 58 60 61 62 65 68 70 70 72 77 81 86 88 91 94 97 100 101 102 102
18 14 10 10 12 14 16 19 23 26 29 31 34 37 40 42 45 47 50 53 56 59 62 62 62 63 66 69 70 73 76 80 85 89 92 95 98 101 102 103 103 100 93
9 10 11 13 15 17 20 23 27 30 32 34 37 41 43 45 48 50 53 55 58 61 63 64 65 68 70 71 74 79 84 87 91 93 96 98 98 99 98 91 85 76 66
11 13 14 17 19 21 24 27 30 32 35 38 41 43 46 49 51 52 53 56 59 61 64 65 67 69 71 75 79 85 88 91 93 94 94 97 94 89 80 71 63 58 52
16 18 19 22 24 27 29 32 35 37 40 43 45 47 49 50 52 54 57 59 61 63 65 67 68 72 76 81 86 88 90 91 92 92 94 89 80 73 60 54 54 54 51
21 23 26 29 32 34 36 40 43 44 46 48 49 51 53 53 55 56 58 60 61 64 66 68 72 77 82 86 88 89 89 89 91 91 83 75 66 55 50 49 49 50 51
24 28 31 34 37 40 42 45 46 49 51 52 53 54 55 56 57 59 60 61 63 66 68 72 77 81 85 86 87 86 87 90 87 80 74 64 52 48 46 47 49 50 50
29 32 35 38 40 43 45 46 48 51 53 54 56 57 58 58 60 61 62 63 66 68 72 77 81 83 85 86 85 86 90 88 79 73 63 49 43 44 46 49 50 51 50
35 37 40 42 44 46 48 49 51 53 54 56 57 59 59 60 61 62 63 65 69 72 76 80 83 84 86 85 85 88 83 75 71 59 46 40 42 43 46 50 51 50 50
40 42 44 47 48 50 51 52 54 56 56 56 58 59 59 61 62 63 65 68 72 75 79 82 83 86 85 85 87 83 75 70 58 45 38 39 41 43 48 50 49 49 48
44 47 49 50 51 53 54 55 56 55 55 56 58 60 61 62 64 65 67 70 74 77 81 82 86 85 83 85 82 73 68 58 45 37 38 38 41 45 48 49 48 49 47
48 50 51 53 54 55 56 56 55 55 56 58 60 61 62 64 64 68 70 74 77 80 80 84 84 84 86 81 74 67 59 47 37 36 36 38 44 47 46 44 45 46 43
50 52 53 53 55 56 56 55 54 56 58 59 61 62 62 64 69 72 76 77 79 79 82 83 84 85 84 71 66 59 48 38 34 35 36 39 45 44 43 44 42 41 38
51 51 52 54 55 56 55 54 56 58 58 59 61 62 63 70 74 76 77 79 80 81 83 83 83 84 75 64 59 49 40 34 34 34 36 41 43 41 42 42 40 38 37
51 53 54 55 55 54 55 56 58 59 60 61 60 62 67 75 78 79 79 81 81 83 83 83 84 75 64 57 50 41 35 32 33 34 37 39 40 40 42 40 38 36 33
52 54 54 54 53 54 56 57 59 59 59 60 63 66 74 76 77 78 80 81 83 82 83 83 75 64 58 50 43 37 32 31 32 34 37 36 36 37 39 38 35 33 30
52 52 52 53 54 55 56 58 59 59 60 62 67 72 75 78 79 80 82 82 82 83 82 73 63 57 51 44 37 33 31 31 31 31 34 35 35 36 38 37 33 30 27
49 51 53 54 54 56 57 58 60 60 64 67 74 75 77 80 81 82 81 81 83 82 71 63 56 52 45 39 35 32 30 30 29 30 32 32 33 34 36 36 33 30 27
51 52 53 55 56 57 59 60 59 60 66 71 73 75 81 82 83 81 81 81 79 70 62 56 51 45 41 37 33 30 30 30 29 29 30 31 31 32 35 35 33 30 27
53 54 55 56 57 59 60 57 62 67 73 75 72 78 79 81 80 79 79 76 67 59 54 51 45 40 38 36 32 28 29 30 29 29 28 29 29 30 32 33 31 29 26
54 55 56 56 56 58 59 63 69 73 72 74 79 80 81 79 78 77 72 64 57 52 51 47 40 36 35 34 32 29 28 28 27 28 27 27 27 28 31 32 33 30 26
54 55 55 54 57 65 69 70 70 71 74 77 80 78 77 77 76 69 61 56 52 50 49 44 36 33 33 32 30 29 28 29 28 27 26 27 27 28 30 31 31 30 28

GFSMW_500_spd_054.txt.gz
Wind_Speed
4 5 8 10 12 14 12 18 19 22 24 25 27 27 28 29 31 33 34 35 37 38 40 44 44 41 42 45 47 47 47 48 50 51 52 52 54 55 59 61 63 67 69
10 10 12 13 15 19 18 19 19 21 23 23 23 25 26 29 31 33 35 37 39 41 44 45 47 50 51 53 53 53 53 54 55 57 58 59 58 60 63 66 69 73 77
14 15 16 16 20 20 20 17 19 18 19 20 22 25 28 31 33 36 37 41 42 44 47 49 51 53 55 55 56 57 57 59 59 61 62 64 65 67 70 74 78 80 83
17 20 20 20 21 21 19 15 15 16 19 22 25 30 33 36 39 41 43 44 45 47 49 52 54 55 56 58 59 60 60 62 63 64 68 72 76 79 79 83 87 89 91
25 24 24 20 20 16 13 15 16 19 23 27 29 33 37 39 42 45 47 49 50 51 51 52 54 56 58 60 61 61 62 65 67 71 75 79 84 88 92 93 94 94 96
26 21 19 13 11 13 15 18 21 23 26 30 33 36 40 43 45 47 50 51 53 55 57 59 60 62 64 64 65 66 67 72 76 80 83 88 92 95 98 98 97 97 93
16 12 11 12 14 16 19 22 25 28 31 34 38 41 44 47 49 52 53 55 56 58 59 61 63 64 65 66 68 70 73 77 82 86 88 91 93 96 96 97 93 84 74
12 13 14 15 19 21 24 29 31 34 37 41 44 47 49 52 52 53 55 56 57 59 60 61 63 64 65 67 71 75 79 83 87 89 90 91 92 94 91 83 78 71 63
17 19 20 23 23 27 31 35 39 40 40 45 48 50 52 54 55 56 57 57 59 60 61 62 64 65 67 70 74 79 84 87 88 89 88 89 90 86 79 73 65 58 52
20 23 25 27 31 32 34 38 43 44 45 48 50 52 55 56 57 58 58 59 60 61 62 63 65 66 70 74 79 83 85 86 88 86 89 88 82 77 70 59 50 47 49
26 28 31 32 34 38 39 41 46 47 49 50 53 55 56 56 57 58 59 61 61 63 64 65 67 70 74 79 83 84 85 86 85 88 88 80 74 68 56 47 43 45 49
30 31 35 36 39 42 44 46 50 51 53 53 55 56 56 54 56 58 61 61 64 65 67 67 70 74 77 81 82 83 86 85 88 86 79 71 65 57 44 41 42 45 48
35 37 39 42 44 46 48 50 52 53 54 56 57 58 56 56 58 60 62 64 66 66 68 71 74 78 78 81 83 83 84 86 85 78 70 65 55 42 39 41 42 46 52
39 42 44 46 48 50 51 54 54 55 56 57 57 57 57 58 60 62 64 66 66 68 74 76 78 80 82 82 81 83 85 83 76 69 63 53 42 37 38 39 44 49 48
43 47 49 51 52 52 54 55 55 56 56 57 56 57 58 59 61 63 64 64 67 72 77 78 79 82 82 83 81 84 83 78 68 62 53 42 36 35 36 42 47 46 46
48 50 51 52 54 54 54 56 56 57 56 56 56 57 58 60 62 62 62 65 71 76 80 80 82 82 83 83 84 83 76 68 62 53 43 36 35 35 38 44 43 42 42
48 50 52 54 55 57 56 57 57 56 56 57 58 59 61 61 61 63 63 69 73 78 81 82 85 84 83 82 81 75 69 62 54 44 37 33 34 35 40 43 41 42 43
49 51 53 55 56 57 56 55 56 56 57 58 59 61 61 60 63 66 69 74 76 81 85 86 86 84 83 80 74 68 62 54 45 38 33 32 34 35 40 40 39 41 42
50 52 53 54 55 54 54 53 56 58 59 60 61 60 58 61 69 74 74 78 83 84 85 86 83 83 82 73 67 61 54 45 39 35 32 32 33 36 39 38 37 39 38
53 53 52 53 53 53 54 56 58 58 59 59 60 62 60 67 74 74 81 82 84 83 87 81 82 79 73 65 58 54 47 40 36 33 31 31 32 35 37 36 36 37 36
50 51 51 51 53 54 55 57 57 58 58 62 65 63 63 69 74 81 83 85 86 88 84 82 76 69 64 55 51 46 41 37 33 30 31 30 30 33 34 34 36 37 35
50 50 51 53 54 54 54 55 57 55 58 67 69 69 69 76 79 79 83 86 86 83 80 74 67 60 54 50 46 40 38 35 31 28 29 29 30 31 32 32 34 37 37
50 52 53 53 54 54 54 56 55 51 59 68 71 70 73 76 79 83 82 81 81 76 70 64 59 53 49 46 43 35 35 34 31 27 27 28 29 29 30 30 31 35 37
52 53 54 54 54 55 57 57 57 61 64 70 74 80 82 80 79 79 78 77 74 71 62 57 52 48 45 43 38 34 32 33 30 27 26 28 28 28 28 29 30 32 33
52 53 54 55 57 59 60 61 63 66 70 72 76 77 78 77 76 75 72 74 70 65 59 55 51 46 43 41 35 33 32 30 28 26 27 28 28 28 28 28 29 31 32
54 54 56 59 61 62 65 68 69 69 70 71 72 72 72 73 73 74 75 74 67 59 55 52 50 45 43 40 34 32 31 30 29 27 27 27 28 28 28 28 28 29 30

GFSMW_500_spd_057.txt.gz
Wind_Speed
5 4 5 5 1 5 10 15 17 16 17 16 18 15 16 19 22 25 28 30 32 34 36 36 38 39 42 44 46 48 48 49 51 52 50 50 50 51 52 53 55 57 60
6 4 8 9 9 12 14 14 13 16 16 14 14 17 20 23 26 28 30 33 36 38 40 42 44 45 47 48 50 51 52 53 54 55 54 52 49 52 55 58 62 65 68
11 12 13 16 16 15 12 12 11 9 10 13 17 21 23 25 28 31 34 38 41 42 45 46 47 48 50 52 53 54 55 56 56 56 56 55 56 57 60 64 69 73 77
12 15 18 20 19 17 10 9 11 13 16 17 21 24 26 30 33 37 40 43 45 46 49 49 50 51 53 54 55 56 56 56 57 57 58 61 64 67 69 72 75 79 81
13 12 16 19 18 13 11 12 13 17 21 23 27 30 33 37 41 44 46 48 50 51 52 53 53 52 53 55 57 58 58 57 57 61 64 68 72 77 80 82 85 87 89
13 10 10 10 12 12 14 15 19 23 26 28 32 36 40 44 47 50 51 54 55 56 57 58 58 58 59 61 62 63 62 61 63 68 72 77 82 86 90 91 92 94 95
13 9 6 8 12 15 18 20 23 26 30 34 37 40 43 46 49 51 53 54 54 55 57 57 59 61 62 63 63 63 63 66 69 73 78 84 88 90 94 94 95 93 83
11 12 11 13 16 19 23 27 29 31 33 37 41 44 46 49 50 52 55 57 57 57 57 59 61 62 62 64 64 64 66 70 75 80 84 90 90 91 90 91 88 82 75
15 15 16 18 22 24 26 31 34 35 35 39 44 46 49 50 50 52 55 56 57 57 59 60 62 63 64 65 65 68 73 77 82 86 88 90 87 89 88 84 79 72 66
20 21 22 23 24 27 31 36 39 41 41 43 46 48 50 51 54 55 56 55 55 57 60 62 63 64 65 66 70 73 78 82 85 86 85 85 88 86 80 74 66 60 55
22 25 27 29 31 32 34 36 41 45 47 50 52 53 54 55 57 57 57 56 57 59 61 63 65 64 64 69 73 78 81 84 86 86 84 87 85 78 70 63 56 47 42
28 30 33 35 37 39 41 43 45 47 50 53 54 56 57 57 58 58 58 58 60 61 63 64 64 63 67 72 77 80 83 84 86 84 86 84 76 67 60 55 45 38 39
31 33 36 38 40 42 45 46 48 49 50 53 55 56 57 57 57 57 58 61 61 63 64 64 66 67 73 76 79 82 85 85 84 85 83 76 66 58 53 44 38 37 38
34 38 41 43 44 43 46 46 46 48 54 55 55 57 57 57 57 59 60 61 62 62 63 67 71 75 79 81 84 89 87 85 84 82 75 66 57 52 42 35 35 35 38
39 41 44 44 36 42 43 49 52 52 55 55 57 57 56 57 58 59 61 61 59 64 73 80 83 80 81 85 87 89 87 86 83 75 66 57 52 43 35 33 33 36 40
45 43 40 38 49 50 51 51 53 54 55 55 56 55 57 59 59 59 60 60 60 64 68 74 80 82 85 87 88 86 87 82 72 63 55 52 45 37 32 32 33 37 41
45 46 47 48 50 52 53 54 55 55 54 55 55 57 58 59 60 60 61 64 67 70 73 77 80 87 88 87 86 85 78 69 60 54 52 46 38 33 32 32 34 37 41
43 45 48 51 53 56 56 55 53 54 55 56 56 56 57 57 61 66 67 71 76 79 78 81 84 84 84 83 81 74 66 58 53 51 47 39 33 30 30 31 33 37 38
43 46 48 51 54 54 52 52 54 56 57 56 56 57 59 60 62 72 66 74 80 78 81 85 82 81 81 76 72 65 58 53 50 46 42 35 30 29 28 30 32 35 36
46 49 51 51 50 50 51 53 55 55 55 57 58 60 60 60 62 69 75 85 82 81 80 83 81 79 76 71 64 58 53 48 45 40 37 33 29 28 28 29 31 33 33
48 49 49 49 50 50 52 53 54 55 56 57 59 61 62 68 69 73 78 82 85 84 83 80 75 74 71 64 57 53 48 45 41 35 33 30 27 27 27 28 30 31 30
49 49 49 49 51 52 53 55 56 57 57 60 61 62 64 67 72 77 79 81 81 78 75 71 72 75 67 59 53 48 45 42 37 32 30 29 26 25 26 27 28 29 29
50 50 51 53 54 55 56 56 57 59 61 62 64 67 70 72 74 75 74 72 74 73 71 72 76 70 60 54 50 45 42 39 34 30 28 28 27 25 26 27 27 27 29
49 51 52 53 55 55 57 59 61 63 66 68 70 72 72 72 72 69 70 69 71 72 73 74 76 66 56 50 46 43 40 37 30 28 28 27 26 25 25 25 26 27 28
51 52 54 55 55 58 60 62 65 68 70 71 72 72 71 70 70 68 68 71 72 74 72 73 73 62 54 48 43 40 38 36 30 25 26 28 27 25 25 25 26 27 27
54 54 54 56 58 60 64 67 69 69 70 71 72 71 69 67 66 67 71 72 72 72 73 74 68 58 53 47 42 39 37 35 31 25 26 26 26 24 24 25 26 26 27

GFSMW_500_spd_060.txt.gz
Wind_Speed
12 12 9 5 1 4 7 11 11 10 11 12 13 10 10 12 17 19 22 24 26 30 34 37 39 41 43 44 45 46 47 48 49 50 51 51 51 51 51 50 51 52 55
6 5 6 6 5 7 8 10 12 11 12 10 9 11 14 17 21 23 27 31 35 38 40 42 43 45 47 49 50 51 51 52 52 53 53 54 53 51 51 53 55 58 62
11 9 8 7 7 8 8 8 11 8 7 10 13 15 18 22 26 29 33 37 40 42 44 45 47 48 50 52 54 54 55 55 56 56 56 57 55 52 52 55 59 64 68
8 11 10 8 7 8 8 6 6 7 10 14 18 21 24 27 31 35 38 41 44 45 46 48 50 51 53 54 56 56 56 56 56 56 57 57 56 57 58 63 68 72 77
4 5 9 11 10 7 6 7 8 12 15 19 23 26 29 33 37 40 42 44 46 47 48 50 52 52 54 55 55 56 57 59 59 60 58 59 62 65 68 70 76 81 85
3 3 8 10 10 7 10 11 14 17 21 25 29 32 34 37 40 43 46 48 50 51 53 54 55 54 56 57 58 59 62 63 64 63 62 64 68 72 76 80 84 87 91
2 2 5 6 9 11 14 17 20 23 27 30 34 38 40 42 44 47 50 53 54 56 57 58 60 62 62 62 63 65 66 67 66 65 68 71 75 79 84 88 90 92 94
3 4 7 10 14 16 19 21 24 26 30 34 39 43 45 46 48 51 54 55 56 57 58 59 59 60 62 64 65 67 68 67 66 69 73 76 79 84 87 92 92 93 92
8 8 11 14 17 20 24 26 28 30 34 37 42 45 47 49 51 51 51 53 54 58 58 58 58 60 63 64 66 68 67 68 71 75 78 81 85 88 92 91 91 87 86
11 12 15 17 21 25 28 30 33 35 37 40 44 47 49 50 50 51 52 55 56 58 58 58 59 61 63 65 67 65 68 74 80 82 83 84 87 89 91 89 84 81 75
17 18 19 22 25 29 32 35 37 40 42 43 44 45 47 47 42 50 57 56 57 57 58 59 60 62 64 65 67 71 78 80 81 83 84 88 91 91 87 82 76 69 62
23 25 26 29 31 32 33 37 41 42 41 44 47 50 50 50 44 59 60 60 59 60 61 62 63 66 67 68 71 73 78 83 85 85 89 91 91 87 80 73 65 58 54
27 29 30 32 35 36 38 41 38 39 44 48 49 49 54 55 59 59 60 61 61 63 64 65 66 67 68 71 73 78 82 84 88 90 90 90 81 74 70 62 54 51 46
27 30 31 34 37 39 37 34 36 41 46 45 52 57 57 58 58 58 60 61 63 64 65 66 69 73 73 75 79 80 82 85 88 89 82 77 70 65 58 53 48 42 36
31 33 32 33 32 33 34 37 39 47 48 55 57 58 58 57 58 60 61 61 63 65 66 70 75 77 79 81 81 82 84 87 86 83 77 70 63 57 52 47 41 35 34
34 35 27 31 31 34 36 41 46 55 54 55 56 57 57 57 59 60 62 62 64 65 65 69 75 82 82 82 86 87 85 82 80 75 68 62 56 51 47 42 36 33 34
37 36 35 35 37 43 44 51 52 52 53 55 55 55 58 58 60 61 62 63 64 67 70 75 78 80 85 85 85 83 82 78 74 66 59 55 51 47 43 38 33 33 33
37 39 40 42 45 48 50 50 52 53 53 53 55 57 57 59 61 61 64 66 69 72 75 76 80 84 83 81 79 76 73 71 65 58 53 50 46 42 39 35 31 31 32
37 38 41 44 46 48 49 51 51 52 54 55 56 58 60 61 63 64 67 70 72 73 77 81 80 78 76 75 71 68 71 66 59 53 49 46 42 38 36 32 29 29 30
37 39 42 45 47 48 49 50 52 53 55 55 58 59 60 63 65 68 71 71 72 76 76 74 73 73 72 70 67 68 70 63 54 49 46 42 38 36 33 29 27 27 29
40 43 44 45 46 48 50 51 53 55 56 57 58 60 63 65 68 70 72 75 76 75 73 72 73 72 71 66 66 69 68 60 51 46 43 39 34 33 31 28 27 27 28
43 44 46 47 48 49 51 52 54 56 56 58 61 63 66 69 71 73 76 76 74 71 71 71 69 71 69 68 69 70 66 57 49 43 41 37 32 31 29 28 26 26 28
46 47 47 48 50 51 53 55 55 56 59 61 64 67 70 70 71 74 75 74 69 70 71 70 72 70 69 71 73 70 63 54 46 41 39 36 32 29 27 27 27 27 27
47 48 49 51 52 53 54 55 56 59 61 65 68 69 70 72 74 76 74 71 71 72 72 73 73 71 72 75 74 67 57 49 42 39 37 34 33 30 27 26 26 26 26
48 49 51 53 53 53 54 56 59 63 65 66 66 68 72 74 75 74 72 72 71 74 75 75 75 75 76 77 72 62 52 46 40 37 36 34 33 30 28 27 26 25 26
51 53 54 54 53 55 57 60 63 65 65 66 69 73 75 74 72 71 70 71 72 73 76 78 80 81 81 73 63 56 49 43 40 36 35 34 32 29 28 27 26 25 25

GFSMW_500_spd_063.txt.gz
Wind_Speed
8 4 4 1 3 4 6 5 1 4 5 7 8 6 5 8 13 15 17 20 24 27 31 34 37 40 43 44 46 48 48 49 50 51 50 51 52 53 54 54 55 55 52
8 8 6 3 2 3 5 5 5 4 7 9 6 7 10 14 17 18 22 26 30 33 37 39 42 44 46 48 50 51 52 52 53 54 53 53 54 56 56 57 56 53 53
5 5 5 5 6 6 6 6 8 9 9 7 10 12 14 19 21 24 28 32 35 38 41 44 46 48 50 52 53 54 55 55 56 56 56 57 58 59 59 59 56 57 59
7 7 8 8 7 7 7 8 9 8 8 11 14 16 20 23 26 30 33 37 40 43 46 47 49 51 53 54 54 56 55 56 57 58 59 60 61 63 63 60 60 62 66
5 8 9 9 11 9 8 7 8 9 9 14 18 23 26 29 31 34 38 42 45 47 49 49 48 50 52 55 56 56 56 57 59 60 61 62 64 63 62 62 66 70 75
10 11 11 10 9 8 9 8 8 11 15 19 24 28 30 34 36 39 42 45 47 49 48 52 54 54 54 56 57 58 59 61 62 62 64 66 64 65 68 71 75 78 80
6 6 5 4 7 7 8 9 13 16 20 24 28 32 36 38 40 43 46 47 49 51 53 57 59 59 62 61 60 61 64 66 66 67 70 69 70 73 76 79 82 85 87
6 6 7 9 10 11 12 16 17 21 25 29 33 36 40 42 44 47 48 48 50 51 57 59 60 61 62 63 64 67 69 69 71 72 73 74 77 78 82 85 87 88 89
9 10 11 12 12 13 16 19 22 25 29 33 37 41 44 46 47 48 49 51 52 53 59 64 67 64 63 65 67 69 70 71 73 73 74 76 80 83 85 86 87 91 93
12 12 14 14 14 16 20 24 27 31 34 38 42 46 48 47 48 49 51 46 44 54 61 70 64 65 66 68 67 69 70 72 74 78 81 84 86 87 87 89 88 87 85
17 16 17 18 20 23 26 30 34 37 40 44 47 47 45 47 49 51 49 50 57 56 64 64 65 67 68 68 69 69 72 75 80 84 87 88 86 87 91 88 85 80 75
21 21 22 23 26 28 31 35 39 42 45 46 43 42 43 45 48 53 50 55 58 60 61 64 67 67 69 70 72 74 76 78 81 86 87 89 94 90 87 85 79 72 67
28 26 27 30 31 34 37 39 42 42 42 39 43 44 44 52 55 59 58 59 60 63 64 65 66 69 71 73 75 78 81 84 85 88 92 91 91 88 84 76 67 62 58
25 25 26 29 34 37 39 42 36 37 34 38 45 47 51 59 60 59 59 61 63 65 65 67 68 70 73 76 79 81 82 84 88 88 89 87 85 79 73 64 60 56 53
24 26 28 31 33 31 34 37 37 38 36 43 48 52 60 59 59 59 60 63 65 65 67 67 69 72 75 78 80 82 86 88 86 85 82 78 73 69 64 57 54 52 48
26 28 31 31 30 29 33 35 40 37 42 42 54 58 57 58 59 60 62 63 64 65 67 69 72 75 77 79 82 86 84 82 81 76 69 69 68 64 58 53 50 48 44
30 31 32 31 33 34 38 33 34 38 46 53 56 56 56 57 60 61 61 63 64 67 70 72 75 77 78 81 83 81 76 76 73 66 66 68 66 60 54 50 47 44 40
30 31 33 33 36 38 33 41 47 50 53 54 54 55 57 58 60 61 62 64 66 70 72 75 76 78 81 81 75 72 73 72 68 66 68 68 64 56 50 46 43 40 38
31 33 34 36 39 42 44 46 49 51 51 52 54 56 57 58 59 60 64 67 70 72 73 74 76 81 79 73 71 71 72 72 68 69 71 68 60 52 47 44 40 37 37
31 34 37 39 41 43 46 48 48 49 52 54 55 57 57 58 60 63 67 71 72 73 74 76 79 78 72 71 71 73 74 70 69 71 72 65 55 47 44 41 37 36 36
34 36 38 41 43 45 46 48 50 51 53 54 56 56 57 60 64 68 70 71 73 74 77 79 79 76 73 72 73 75 71 70 71 73 69 60 51 44 41 39 35 34 33
36 38 40 42 44 46 48 49 51 52 54 55 55 58 60 64 67 68 70 72 74 77 78 79 76 73 74 75 74 71 72 74 76 72 63 54 47 42 40 38 34 33 32
39 41 43 45 47 48 49 51 53 54 54 55 58 60 64 66 67 69 71 75 78 78 78 76 75 75 75 73 73 73 76 79 75 66 56 49 44 41 39 37 33 32 32
42 44 46 47 49 50 51 52 52 53 55 57 60 63 64 66 68 72 75 78 80 79 79 77 76 74 69 71 77 79 80 74 65 57 50 45 42 40 38 36 32 31 31
45 47 48 49 50 51 51 52 53 55 57 61 62 63 65 68 70 74 77 79 78 77 76 73 72 75 76 77 83 82 74 62 54 51 46 43 40 38 37 35 32 32 30
48 49 50 51 51 52 53 54 55 59 61 62 63 65 68 71 75 78 79 80 79 76 73 73 78 81 84 85 81 75 64 54 47 44 41 39 38 36 35 33 33 32 31

GFSMW_500_spd_066.txt.gz
Wind_Speed
12 11 10 8 8 8 8 8 9 8 8 8 7 7 7 7 9 12 14 16 19 23 27 30 34 37 40 43 46 47 48 49 50 52 53 54 54 53 53 53 55 55 55
7 9 10 10 9 9 10 11 9 9 9 10 8 7 8 9 12 15 18 21 24 28 31 35 38 40 44 47 49 50 51 52 54 55 55 55 55 55 56 57 57 57 58
9 7 6 6 6 7 8 8 9 10 9 8 8 9 10 12 15 18 22 26 30 33 36 39 41 44 47 49 50 53 55 55 56 56 56 57 57 58 59 60 61 62 62
4 8 10 10 11 12 11 11 12 9 8 10 11 12 13 16 19 24 27 31 35 38 40 44 46 48 50 48 50 52 54 56 59 59 59 60 61 62 61 63 64 64 64
9 8 10 8 13 14 12 11 12 12 11 13 15 16 18 20 24 28 32 36 39 42 46 48 50 51 51 50 57 59 61 60 60 61 61 62 63 64 65 64 66 67 69
15 15 15 14 15 14 12 11 10 13 12 14 19 20 22 25 31 32 36 40 43 46 49 50 49 50 52 54 60 65 67 65 64 63 64 66 68 69 70 71 72 74 77
19 20 18 16 15 13 13 14 12 14 14 16 19 23 27 32 33 36 40 44 47 49 49 52 51 52 58 60 64 68 69 66 66 67 68 70 72 74 76 79 80 82 85
19 18 17 15 15 16 18 14 10 14 16 20 24 26 32 34 38 43 45 48 49 48 50 51 47 57 61 65 68 68 68 69 69 70 72 73 76 79 82 84 87 88 88
18 16 14 14 14 16 19 11 14 18 21 25 28 33 36 38 44 47 47 45 48 49 50 45 48 60 66 65 67 68 70 70 72 73 75 76 80 82 85 87 89 92 94
18 15 16 16 17 19 18 19 21 24 27 31 35 38 40 45 48 48 46 49 53 53 53 52 56 63 63 64 68 69 71 72 73 76 78 81 83 85 86 89 92 92 90
22 20 20 20 20 22 24 22 26 30 32 35 40 43 47 47 46 50 52 54 56 59 59 57 59 62 64 66 68 70 71 73 76 79 81 83 85 87 91 89 87 88 84
23 24 23 24 25 27 25 29 33 35 38 41 43 45 44 47 49 50 48 43 57 68 62 63 64 64 66 68 69 71 73 76 79 80 82 84 88 87 84 84 83 76 74
25 25 28 29 30 33 33 36 37 38 39 42 43 41 47 48 50 51 53 50 65 64 63 65 66 66 67 69 71 73 76 79 80 81 83 86 83 79 80 77 71 71 70
32 27 27 27 29 32 34 36 39 39 38 39 41 44 47 47 54 57 59 64 63 63 64 66 66 67 68 70 73 76 79 79 80 83 86 78 76 78 75 68 71 71 67
26 24 25 27 29 31 31 33 34 35 36 39 42 38 46 52 57 60 65 63 63 64 65 65 65 67 70 74 76 78 79 79 82 83 77 75 75 78 70 68 71 70 63
23 25 27 29 29 30 32 32 34 35 40 41 38 45 52 56 60 62 62 62 64 65 65 65 67 70 74 76 77 79 80 82 79 76 74 74 75 73 67 70 71 67 59
28 28 28 29 30 30 32 33 33 40 38 41 47 51 55 56 58 59 62 63 65 65 65 67 70 74 75 76 78 80 82 81 78 75 74 73 74 67 69 72 70 62 54
28 28 29 30 30 31 31 34 37 40 42 45 48 51 54 55 58 60 63 64 64 65 66 70 72 73 74 78 80 82 81 78 75 73 74 73 68 69 72 72 65 56 48
27 28 30 29 30 33 36 38 41 44 46 48 50 52 54 56 58 61 62 62 63 66 69 70 72 74 77 80 82 80 79 75 73 74 74 69 70 74 75 68 58 50 44
27 28 28 30 33 36 38 41 43 45 47 49 51 53 55 58 60 60 61 63 67 69 69 71 75 77 79 82 83 81 80 77 75 71 70 73 75 76 71 60 52 45 42
27 28 30 32 35 37 40 43 45 47 49 51 53 55 57 58 59 61 63 67 68 69 71 74 77 80 83 83 83 79 77 74 70 70 73 77 77 71 63 54 47 43 39
30 31 33 36 38 40 42 45 47 50 52 54 55 56 57 59 60 63 66 67 69 71 74 77 79 82 84 83 80 77 74 74 75 75 76 74 68 62 57 49 43 41 37
34 35 37 39 41 43 46 48 50 52 53 55 55 57 58 60 64 66 67 69 72 75 78 81 84 85 85 80 75 77 79 80 82 78 72 63 56 53 49 45 41 39 35
39 40 41 43 45 47 49 51 52 53 54 55 56 58 61 64 66 68 70 72 75 78 81 84 87 88 86 79 74 78 83 81 76 68 61 51 44 45 42 40 38 37 34
42 44 45 46 49 51 52 52 53 54 55 56 58 61 64 65 67 68 70 73 77 81 84 87 90 88 85 80 81 80 74 68 64 61 54 47 43 42 41 40 36 34 33
45 46 48 49 51 52 52 53 55 56 57 59 62 64 65 66 68 70 72 76 79 82 85 86 84 82 83 83 78 72 67 63 58 52 47 55 50 45 44 40 36 32 31

GFSMW_500_spd_069.txt.gz
Wind_Speed
11 12 14 12 11 11 11 13 13 14 15 15 17 17 16 15 14 13 11 11 14 18 21 25 28 31 35 37 39 42 44 45 45 45 48 49 49 49 50 51 53 52 52
11 13 13 14 14 14 15 16 16 16 17 17 17 17 16 15 14 12 12 14 18 22 25 28 32 35 38 40 43 45 48 50 48 52 54 54 53 52 53 55 55 55 56
13 14 15 15 15 15 14 14 13 13 12 14 15 15 15 15 14 13 15 17 22 26 29 33 35 38 41 43 46 46 49 49 53 55 57 60 59 59 58 58 58 60 61
9 9 8 10 11 10 10 10 11 12 14 15 13 14 15 18 19 15 18 21 25 30 34 37 39 41 44 45 49 48 48 49 52 57 60 62 61 61 61 61 62 63 63
12 11 11 9 10 11 12 13 13 13 13 16 16 17 18 21 18 16 23 25 30 34 37 40 43 44 44 49 49 48 52 56 59 60 62 63 63 63 64 64 65 67 69
17 17 15 14 15 15 14 14 15 16 15 17 19 19 22 24 18 22 27 28 34 39 42 43 43 46 49 52 52 53 55 61 64 63 64 65 66 67 67 68 71 75 78
22 21 22 21 15 18 17 17 18 18 18 21 19 21 24 25 24 27 32 31 41 42 43 41 44 48 53 49 53 58 62 66 66 66 66 67 68 70 72 75 78 81 82
17 20 23 22 18 17 18 20 21 24 18 21 20 22 24 27 27 34 34 40 44 43 42 45 48 52 50 53 62 60 61 64 66 67 68 70 71 74 78 81 82 82 83
18 21 21 21 18 17 18 20 24 17 17 22 24 27 28 30 33 31 39 46 46 41 45 51 54 55 57 64 61 62 64 66 67 68 70 72 75 79 81 80 81 84 87
16 19 22 23 22 22 20 20 22 24 23 25 28 30 32 34 35 36 41 42 39 46 49 54 50 35 65 70 65 66 67 68 69 70 72 75 78 79 79 80 83 85 85
20 20 23 24 24 23 24 25 26 30 29 31 33 35 37 39 36 33 44 42 49 51 51 49 59 62 71 67 67 68 69 69 71 73 75 77 78 78 80 82 83 82 81
25 24 24 26 26 26 28 29 29 31 36 36 36 39 39 35 35 40 41 52 46 50 55 61 63 70 67 68 69 70 71 71 73 76 76 76 78 80 81 80 78 77 77
26 26 26 27 30 33 33 35 36 34 35 35 37 36 30 33 34 44 41 40 50 58 62 66 70 67 67 69 70 70 71 73 76 76 77 78 80 81 79 78 75 75 76
29 31 30 28 32 33 33 32 33 34 34 33 30 33 30 34 41 51 41 43 61 66 69 69 66 68 69 70 70 71 74 75 75 77 79 81 81 79 77 76 74 75 71
26 26 26 28 32 32 29 30 33 32 31 33 34 33 36 40 43 45 45 61 66 66 69 68 68 69 69 69 71 74 74 75 77 79 81 81 81 78 76 74 73 72 67
29 28 27 27 28 31 29 31 31 32 33 33 34 37 39 32 43 52 58 63 68 66 66 67 68 68 69 71 74 74 75 77 79 81 83 84 82 78 75 74 71 68 70
29 29 30 29 28 30 30 31 32 32 32 33 37 41 43 44 48 51 55 59 61 63 65 66 67 69 70 73 74 75 77 79 81 84 86 84 80 77 74 70 68 71 73
29 29 29 29 29 29 30 32 31 32 33 36 39 42 45 48 51 54 58 61 62 63 64 66 67 70 72 73 75 77 79 82 84 86 86 82 78 73 72 71 72 74 73
23 23 24 26 27 29 29 30 32 34 37 40 43 46 49 52 54 56 57 59 61 63 65 66 69 71 72 75 78 80 82 85 87 88 84 79 75 74 76 76 76 74 68
23 24 25 25 25 28 30 32 35 37 40 42 46 49 52 53 55 57 59 60 62 63 65 68 70 72 75 78 81 84 86 89 91 88 80 76 79 79 79 77 71 65 60
22 22 23 25 28 30 32 35 37 39 42 45 48 51 53 55 57 58 60 61 63 65 68 70 71 74 77 80 84 87 91 93 90 85 78 77 81 78 71 66 61 57 51
23 24 26 28 31 34 36 38 41 44 46 49 52 54 55 56 57 59 61 63 65 68 70 71 74 77 79 82 84 87 90 89 86 82 80 76 73 68 62 57 52 47 44
27 29 31 33 35 38 40 42 45 47 50 52 54 55 56 57 59 60 62 66 69 70 72 75 76 78 82 84 88 91 89 84 83 81 77 71 64 61 57 51 42 39 41
33 35 37 38 40 42 44 46 48 50 53 54 55 56 57 58 59 62 66 68 71 73 75 78 79 81 84 89 93 93 89 82 78 76 71 64 61 55 49 44 47 43 40
39 40 42 44 46 48 49 50 52 53 55 55 55 56 56 58 62 66 68 70 72 74 77 79 82 85 88 92 93 89 83 80 77 71 64 60 51 44 38 45 48 51 46
43 45 47 48 49 50 51 52 54 55 55 55 56 56 57 61 65 68 70 71 73 76 78 82 85 88 90 90 86 81 81 80 75 66 58 51 44 37 37 43 49 48 41

GFSMW_500_spd_072.txt.gz
Wind_Speed
11 12 16 18 16 12 12 11 10 11 11 12 13 15 17 17 17 17 17 14 12 12 16 19 22 25 28 31 34 35 38 39 41 42 42 41 43 46 50 53 53 54 54
9 6 8 11 11 12 12 12 13 13 13 14 16 17 19 19 19 18 18 15 14 16 19 22 25 28 32 33 36 37 38 41 43 45 45 46 50 50 51 53 55 56 57
8 9 9 10 10 11 12 12 13 13 15 16 16 16 18 19 20 20 18 17 17 20 23 25 27 31 34 36 36 37 41 44 44 44 47 51 54 57 59 59 59 59 61
6 6 8 9 9 11 12 12 13 15 16 16 17 18 18 19 19 21 23 21 19 23 28 29 31 34 37 37 36 39 44 42 47 49 53 56 59 62 62 64 64 64 62
11 11 11 11 13 13 14 13 13 15 16 17 19 19 18 18 21 25 25 27 22 27 29 30 35 39 40 37 41 45 47 48 53 56 58 60 62 63 64 65 66 67 66
13 16 16 15 16 16 15 15 16 17 17 18 22 23 22 23 25 28 27 20 25 30 30 34 40 42 36 38 45 49 53 51 59 64 63 63 65 67 68 68 68 69 73
17 21 19 18 20 19 19 18 19 20 20 20 23 26 24 22 19 27 32 30 32 34 32 40 44 38 41 46 49 54 54 57 66 72 68 67 67 68 69 70 71 74 76
18 17 18 20 21 20 21 21 20 19 21 28 27 24 22 21 24 31 37 36 36 35 37 41 40 43 46 50 50 55 51 54 70 74 71 70 70 70 71 73 76 77 77
16 17 20 23 23 20 20 21 21 22 25 23 22 23 23 27 32 35 37 38 40 40 38 42 46 46 51 50 52 61 62 65 74 72 70 70 71 72 74 76 78 79 79
18 17 20 22 22 20 21 22 23 24 25 24 24 27 30 32 36 39 40 39 35 36 44 44 47 43 41 50 64 67 70 72 71 71 71 71 72 75 77 78 78 79 82
22 23 20 20 21 21 24 25 25 26 28 29 31 34 36 39 40 39 35 35 35 37 43 43 53 42 51 61 65 70 72 72 71 72 72 72 75 77 77 79 80 82 84
23 23 24 25 26 27 27 29 32 32 34 32 36 39 39 40 38 38 35 31 34 42 47 57 56 56 57 71 70 74 72 71 72 71 72 75 77 77 78 80 82 84 86
22 23 24 25 27 30 33 37 39 41 41 41 42 39 38 38 40 34 29 33 41 52 59 62 48 56 75 75 77 74 72 72 72 73 76 76 78 79 81 83 86 88 88
23 25 27 30 31 32 36 38 39 40 41 38 40 40 37 37 35 32 32 41 47 50 53 56 64 74 74 73 73 73 73 73 73 76 76 78 79 81 83 86 89 90 85
25 28 29 32 33 32 34 39 37 37 37 39 39 38 36 38 38 38 39 40 51 52 53 63 72 74 72 72 72 72 73 73 76 76 78 80 82 83 86 89 90 87 80
27 27 29 30 32 32 32 32 30 33 35 36 36 36 37 36 39 42 43 41 48 52 60 66 64 68 70 70 70 71 72 75 76 77 79 82 85 87 89 90 88 81 75
27 28 28 28 30 32 33 33 32 32 33 34 35 36 38 39 40 42 45 48 52 54 58 62 65 67 68 69 70 72 73 75 77 79 82 84 87 91 93 92 86 78 77
23 25 25 24 25 27 30 32 33 33 33 34 35 36 38 40 42 45 49 52 55 58 61 63 64 65 68 69 71 73 74 76 78 81 84 86 90 94 93 88 81 79 79
22 23 23 22 22 23 26 29 32 32 33 34 36 39 41 43 46 49 52 56 58 60 61 63 65 65 67 70 73 74 76 78 80 83 86 89 92 93 89 83 79 76 71
23 23 23 24 25 26 27 28 29 32 34 37 39 42 44 47 50 53 56 58 60 61 62 63 64 66 68 71 73 76 79 80 83 85 88 92 93 88 83 81 77 70 64
24 24 24 23 24 26 28 30 33 35 38 41 43 46 48 51 54 56 58 59 60 60 61 62 65 68 70 72 74 77 81 83 85 88 91 92 89 82 78 77 71 64 61
22 23 24 26 27 30 32 34 37 40 42 44 47 49 52 54 56 58 60 60 60 61 61 63 66 69 72 74 76 78 80 84 87 90 92 89 82 79 75 71 64 58 55
25 27 28 30 33 34 36 39 41 44 47 50 52 53 55 57 59 60 60 61 61 60 61 65 69 73 77 78 78 79 81 85 89 92 90 82 79 77 73 62 55 51 46
31 32 34 36 38 40 42 45 47 49 50 51 53 56 59 60 60 60 61 62 61 63 67 71 76 79 81 79 80 82 85 88 91 91 83 78 75 73 64 53 47 45 41
37 38 40 42 44 45 48 49 50 52 54 55 57 58 59 60 61 62 62 61 64 68 72 76 79 82 81 80 83 86 88 90 89 83 78 76 72 66 52 44 42 40 36
41 42 42 44 46 49 51 52 53 56 58 58 58 58 59 62 63 62 61 65 69 73 76 80 82 82 82 83 85 87 87 85 81 75 75 71 68 54 43 40 39 37 36

GFSMW_500_spd_075.txt.gz
Wind_Speed
12 15 22 21 19 15 13 14 17 11 11 10 10 9 9 10 11 12 14 17 18 15 17 17 16 18 20 23 26 29 33 35 37 39 39 41 39 39 42 46 49 51 53
13 14 13 13 11 11 8 5 6 6 3 3 6 10 12 14 14 16 17 17 17 19 18 19 21 21 24 26 30 33 35 37 36 38 41 42 45 47 48 49 53 56 57
6 6 7 4 3 2 2 3 4 5 7 8 10 12 15 16 18 17 18 19 21 21 23 23 24 26 27 29 33 34 36 38 38 40 45 48 49 51 55 58 59 60 61
4 4 5 4 3 3 4 7 8 9 9 12 15 16 18 18 18 18 19 22 24 27 26 25 27 30 31 32 36 36 35 35 40 45 47 50 53 59 61 66 67 68 68
9 7 7 8 7 8 10 10 11 12 15 16 17 18 20 22 20 20 21 22 26 35 35 27 30 29 32 36 38 33 35 38 43 48 54 59 63 65 69 71 69 69 69
15 13 13 12 11 13 13 14 14 15 17 19 20 22 23 24 25 21 23 27 27 30 33 27 32 35 37 37 36 36 39 43 45 50 57 60 63 67 72 71 72 72 72
15 14 15 13 14 16 15 16 17 18 19 21 23 24 26 26 27 27 26 21 27 33 32 33 36 38 40 40 39 42 42 43 46 53 61 64 69 68 70 71 71 72 70
18 16 17 15 15 16 16 17 19 20 18 19 20 20 31 28 28 20 28 30 31 34 39 41 42 42 41 43 45 49 49 46 47 58 64 68 72 71 72 72 73 71 73
20 19 18 18 16 17 17 17 19 19 19 21 22 21 21 21 24 26 31 34 38 41 43 45 42 39 41 46 46 47 52 49 54 66 75 73 73 74 73 72 72 75 76
24 21 20 20 21 19 20 20 20 21 23 25 25 23 26 29 32 34 37 42 46 47 47 43 39 43 45 48 50 48 52 58 65 76 78 76 76 75 73 72 76 78 79
23 26 24 23 23 23 22 22 25 27 28 30 31 30 32 34 34 36 42 46 47 48 46 38 41 45 46 41 51 49 55 57 71 80 77 76 75 74 74 76 78 79 80
24 23 24 24 24 25 27 27 29 32 34 36 36 35 35 37 41 43 42 45 46 45 39 36 47 46 54 63 65 56 64 75 80 79 79 76 75 75 76 77 78 79 82
25 23 22 23 25 26 29 31 32 36 39 42 39 43 42 42 42 42 43 45 42 38 34 51 52 53 60 65 70 67 70 73 81 78 76 74 75 76 77 78 80 82 85
23 23 23 24 26 29 31 33 35 39 42 42 43 45 42 41 40 44 43 40 41 42 35 43 49 59 58 62 66 74 77 79 75 74 73 74 75 76 77 79 81 84 88
24 24 25 27 27 29 31 33 33 36 38 37 39 39 40 38 43 45 41 41 40 42 45 47 50 53 60 64 68 70 71 71 71 72 72 74 75 76 78 80 81 85 89
26 28 27 29 28 31 32 33 33 35 36 34 35 37 38 40 41 41 42 42 44 47 49 50 53 57 60 62 64 67 68 69 70 70 72 75 77 79 81 83 85 87 90
28 29 29 31 30 31 32 34 35 34 34 33 35 36 37 39 38 41 43 45 47 49 51 55 57 60 63 65 66 66 67 67 68 70 73 75 77 80 83 86 88 91 93
27 28 29 30 30 30 29 31 33 33 31 34 34 35 36 39 41 43 46 48 50 53 56 59 61 64 65 65 67 67 67 66 67 71 75 78 79 81 85 88 90 92 91
27 29 30 31 30 30 29 29 30 31 32 34 34 37 39 41 44 46 49 51 55 57 59 62 64 66 67 66 66 65 65 67 71 75 79 80 82 82 85 90 92 90 82
28 29 32 32 31 30 31 30 30 30 32 34 37 39 42 45 47 50 52 55 57 60 61 64 65 65 67 67 66 66 69 72 74 78 80 82 83 85 87 90 90 84 79
28 29 30 32 32 32 30 29 31 33 35 38 40 43 45 47 50 54 57 59 60 61 63 64 65 66 66 66 66 70 73 76 78 81 83 83 84 86 88 88 83 80 75
30 29 29 29 30 30 31 33 34 36 39 41 44 46 49 52 54 56 58 59 62 64 63 64 66 67 65 66 69 72 76 80 82 83 83 83 85 87 88 85 79 75 70
32 32 31 32 32 33 35 37 39 41 44 46 50 52 54 54 56 58 60 61 62 62 63 65 67 65 66 70 72 76 80 83 85 85 84 86 87 88 85 80 76 70 64
35 36 36 36 37 38 41 43 45 46 48 51 53 55 56 57 59 59 60 62 63 64 66 66 65 67 70 74 77 81 84 86 85 85 86 87 88 86 82 77 72 65 59
40 41 42 42 44 45 45 47 47 46 48 51 55 56 59 57 58 60 62 63 64 67 67 67 68 70 74 78 82 86 88 88 87 88 88 88 86 79 76 74 69 64 56
42 42 43 43 45 46 48 49 52 55 56 57 58 60 60 57 61 62 63 64 67 67 68 70 73 75 78 83 86 88 90 89 89 89 88 84 78 74 73 69 64 62 53

GFSMW_500_spd_078.txt.gz
Wind_Speed
12 15 24 21 16 18 22 11 10 8 4 5 10 17 16 14 8 6 6 6 9 10 14 19 17 18 17 19 21 22 24 28 32 34 34 33 31 34 37 38 41 43 45
20 22 14 9 13 13 8 13 9 10 7 7 7 7 5 4 4 7 9 11 13 15 16 18 19 20 21 22 24 26 27 30 34 35 33 35 37 37 39 42 45 48 51
11 13 16 14 13 8 6 8 7 6 4 5 6 4 4 6 9 12 12 13 15 17 23 23 23 24 23 25 29 31 31 35 37 33 33 34 38 40 45 48 53 57 59
12 10 9 6 6 5 5 7 6 6 6 6 6 7 9 10 13 15 17 16 17 19 25 27 26 29 26 26 30 30 34 37 40 37 35 33 36 41 46 51 60 65 65
12 9 7 9 10 9 9 9 10 10 11 11 10 11 12 14 16 18 19 18 19 21 26 29 24 38 34 29 28 33 35 37 38 37 38 38 40 43 45 55 64 65 64
12 12 8 8 7 7 10 11 11 11 12 14 14 15 15 17 20 22 21 19 21 27 29 30 29 26 33 33 35 42 43 43 45 47 48 47 49 53 56 67 70 71 69
15 11 11 12 7 7 7 7 9 12 11 14 16 16 17 16 19 22 22 25 26 27 30 29 29 35 37 37 40 46 43 42 47 50 51 49 51 53 58 66 71 71 70
25 20 16 11 11 8 9 10 11 13 13 11 14 14 17 19 19 17 23 25 27 31 32 34 38 42 43 41 46 39 41 44 49 52 54 52 55 56 70 73 75 74 70
28 25 22 20 15 14 12 13 14 13 14 15 15 18 20 22 19 19 22 26 31 34 36 39 44 45 46 48 43 41 45 48 49 49 47 52 54 62 71 74 77 77 74
15 22 24 23 21 19 20 20 19 19 19 20 21 21 24 25 24 25 28 31 33 36 41 42 45 46 38 52 39 44 47 51 49 54 60 61 64 66 72 76 78 77 76
13 18 20 25 27 28 22 20 23 24 25 26 26 28 27 31 30 31 35 34 37 42 42 44 43 45 38 49 48 48 48 59 64 62 62 70 77 79 80 77 77 76 75
20 18 22 23 24 26 26 22 24 27 29 30 30 30 33 34 34 36 37 37 39 40 42 45 38 44 39 40 46 56 56 63 66 75 73 79 74 76 76 76 75 72 73
23 24 18 21 23 26 28 26 24 28 34 37 33 31 40 37 36 38 40 39 39 41 44 45 42 41 38 44 47 50 60 55 63 68 70 71 73 72 72 71 70 72 75
26 20 20 19 22 24 25 29 30 31 33 36 37 37 32 37 40 37 35 37 41 41 41 41 42 43 45 47 49 53 56 58 62 66 68 69 68 69 68 67 70 73 76
24 19 22 25 23 26 28 29 32 31 33 30 32 35 35 35 36 37 39 38 41 42 43 42 44 46 49 51 54 57 60 62 65 66 67 68 67 66 66 70 72 75 78
30 24 23 26 33 24 29 32 32 30 31 34 33 34 35 38 40 39 39 40 40 43 44 47 48 51 54 56 59 61 63 65 66 66 67 67 66 68 70 73 75 79 82
25 24 29 31 36 30 31 33 34 34 33 33 34 34 35 39 39 39 37 40 43 45 47 50 52 55 58 60 62 63 65 66 65 66 66 66 68 71 73 75 78 81 84
26 28 30 33 33 33 33 35 36 36 35 33 32 33 34 36 38 39 42 44 46 48 51 54 57 58 60 61 62 66 65 64 66 68 67 69 70 73 77 79 82 85 86
29 31 33 34 33 34 35 36 36 35 35 35 34 34 36 38 40 42 44 47 50 53 56 57 60 61 61 63 64 64 64 66 69 69 68 71 74 78 81 83 85 86 85
30 32 33 33 33 35 35 36 35 35 35 36 36 36 38 40 43 45 47 50 53 56 58 60 60 62 64 65 65 65 67 70 70 69 71 74 77 81 84 87 88 88 87
32 33 34 34 34 34 35 35 35 34 34 36 38 39 41 44 46 48 51 54 57 59 59 60 63 65 65 64 64 67 71 71 70 73 75 77 81 84 87 89 89 89 89
35 34 35 36 36 35 35 35 34 35 37 39 42 44 45 48 51 54 57 58 60 61 61 63 64 65 65 65 67 68 69 71 73 75 77 80 84 87 89 90 89 89 87
35 36 37 38 39 39 38 39 39 41 43 45 47 49 51 52 54 56 57 60 62 64 66 65 64 66 66 68 69 68 69 73 76 79 81 85 88 91 91 88 88 86 81
38 38 39 41 42 43 44 43 44 46 48 49 50 52 54 57 60 59 61 65 68 68 67 66 65 65 67 72 70 72 74 77 80 83 86 89 91 91 88 87 84 80 77
41 41 42 41 43 45 45 44 45 47 47 49 51 53 58 60 61 62 65 66 67 66 65 64 66 68 72 73 74 77 80 82 84 87 90 92 91 89 88 84 79 76 75
40 42 42 46 48 46 44 45 46 47 51 54 56 57 56 59 63 65 67 64 64 62 64 67 70 73 76 78 80 82 84 86 89 92 94 93 92 88 84 79 76 74 71

GFSMW_500_spd_081.txt.gz
Wind_Speed
25 26 12 9 9 11 13 14 14 10 4 3 4 2 5 16 17 14 17 14 13 13 11 10 13 15 17 18 18 20 20 23 26 28 30 30 31 31 31 31 32 31 32
19 22 23 19 13 3 5 10 5 5 14 13 10 13 14 12 14 11 7 6 6 7 10 17 17 18 18 19 19 22 25 26 30 31 34 34 34 32 31 32 33 32 33
14 14 16 18 18 16 15 16 14 12 9 7 8 8 6 5 5 4 5 6 7 10 14 13 18 17 19 24 24 26 28 29 27 31 35 36 37 38 38 38 39 43 53
12 10 11 11 11 9 10 11 10 9 7 6 5 5 2 1 2 5 7 7 11 15 18 18 21 24 26 29 31 33 33 27 28 34 36 41 38 40 44 48 51 51 53
13 5 7 7 7 7 7 5 5 7 6 6 6 4 4 5 7 8 11 13 13 15 18 19 22 28 27 30 31 31 38 40 40 43 44 47 47 46 46 48 50 51 55
10 9 4 7 7 4 1 1 2 3 4 3 3 3 4 4 4 6 11 13 15 18 20 23 24 27 30 28 30 34 34 35 37 43 44 43 41 48 49 48 45 49 55
3 6 9 8 8 5 6 7 7 7 8 9 8 7 7 5 9 13 14 12 14 16 20 21 24 27 31 33 37 39 40 41 44 41 41 45 47 51 50 52 52 53 58
13 5 4 8 10 8 8 8 8 9 9 11 11 10 11 12 11 12 15 14 15 19 21 25 29 30 33 37 37 40 44 44 42 40 42 45 47 52 57 56 57 59 65
18 15 8 8 11 11 11 10 10 11 10 12 13 14 15 18 17 16 17 17 19 23 26 29 32 34 37 40 42 45 43 52 45 44 49 48 50 50 63 65 70 75 73
24 21 15 9 12 14 16 16 17 17 17 15 15 17 20 21 22 22 19 22 24 28 30 33 35 37 37 39 36 39 40 39 43 46 59 61 49 62 64 71 69 70 70
19 25 25 21 18 14 16 17 17 21 20 21 19 19 22 28 27 27 27 26 28 29 33 37 38 37 36 37 35 34 36 41 42 48 61 59 56 63 62 64 66 68 69
23 18 22 29 28 19 18 14 18 20 23 25 24 21 23 30 34 33 29 29 30 33 37 36 38 37 39 37 36 37 39 43 45 48 49 55 59 61 64 66 67 66 68
22 15 18 22 26 21 18 17 18 20 23 27 27 26 27 30 33 32 33 32 35 33 33 36 35 35 40 39 39 41 45 46 48 50 54 58 62 64 66 65 66 68 69
26 24 13 15 20 23 23 21 20 22 25 27 28 30 30 34 39 32 34 34 34 37 35 36 36 40 40 41 42 45 49 51 53 56 60 61 63 64 64 65 67 68 69
23 27 17 13 15 19 23 24 24 25 27 29 30 28 29 30 33 34 35 35 34 37 37 42 42 39 41 45 47 49 52 54 56 59 59 63 64 64 65 67 68 69 70
27 25 25 24 20 16 20 22 27 30 29 29 30 33 34 34 33 33 37 36 38 40 37 40 41 41 46 49 51 53 55 58 60 61 63 65 64 64 67 69 70 72 73
32 24 27 28 28 27 25 27 29 31 32 32 33 33 32 33 34 36 38 37 38 40 40 42 43 46 50 53 54 58 61 61 62 65 66 65 66 67 68 67 69 73 76
24 28 27 26 30 33 33 33 33 32 33 33 34 35 33 34 35 38 40 41 41 43 43 46 50 52 56 59 60 63 63 64 66 66 66 66 67 68 68 69 71 74 77
28 31 31 31 32 32 33 33 34 34 35 36 35 36 37 37 38 38 40 42 45 47 49 52 54 58 61 63 64 66 66 67 67 67 66 66 68 69 70 71 73 75 78
28 30 32 33 31 32 33 35 35 36 36 36 36 37 38 38 39 41 44 46 48 51 53 56 59 62 62 63 66 68 70 70 68 67 66 68 70 71 73 76 78 80 82
28 30 32 32 32 34 35 35 36 36 37 38 38 37 39 41 44 46 48 50 52 55 58 59 60 60 62 66 68 68 69 69 67 67 69 71 73 75 78 81 83 85 88
29 31 32 33 34 34 35 35 35 36 38 40 40 41 42 44 47 50 52 54 56 58 60 64 66 68 71 68 68 67 67 66 69 71 73 75 77 80 82 83 87 91 94
34 35 33 32 35 37 37 37 37 38 40 43 44 44 45 48 52 53 55 56 58 61 63 63 65 67 69 68 66 65 67 70 73 75 77 79 82 83 84 88 93 96 94
37 36 33 35 38 39 40 40 40 41 43 42 43 45 48 49 51 53 56 58 59 59 61 64 67 67 64 63 65 66 70 74 77 80 81 83 84 85 89 94 95 94 91
39 40 40 42 41 39 39 39 40 42 44 44 47 49 50 52 55 58 60 62 64 66 63 65 63 62 63 66 69 72 76 80 81 81 83 85 87 91 94 95 93 89 86
37 39 41 43 43 41 39 40 41 42 46 48 49 52 54 56 60 63 62 60 61 60 60 62 65 68 71 74 77 80 83 83 82 83 86 90 93 96 96 92 89 86 82

GFSMW_500_spd_084.txt.gz
Wind_Speed
20 17 7 7 9 13 9 1 11 10 7 8 8 10 11 16 17 18 21 16 15 17 19 18 19 17 17 19 20 18 19 20 23 26 29 30 30 32 32 31 31 33 35
13 16 16 16 8 8 6 6 9 11 7 4 3 7 11 13 13 17 19 17 17 17 19 14 12 16 19 19 18 18 20 23 27 30 33 34 31 32 34 35 34 34 36
12 9 11 12 16 19 18 12 12 12 9 9 12 11 13 14 16 14 10 10 13 13 11 13 12 18 19 16 18 21 23 25 32 34 38 39 34 36 38 40 42 43 46
11 7 5 6 10 14 16 15 13 14 13 12 10 9 9 9 8 7 7 7 8 8 13 13 13 16 19 20 23 24 26 26 33 37 41 43 43 46 48 46 48 49 47
4 7 5 8 5 9 10 9 9 10 10 12 10 8 7 5 5 5 5 7 9 12 17 17 15 19 19 22 26 31 28 27 28 31 33 37 40 44 49 46 43 45 46
5 5 5 5 9 4 2 4 5 6 7 6 7 8 8 8 6 6 6 6 12 15 17 15 15 18 19 19 22 25 28 32 33 34 34 36 37 36 39 41 43 43 44
5 6 10 5 4 5 3 3 3 3 5 4 4 5 5 7 10 12 14 12 11 15 15 14 16 17 19 23 27 29 33 37 40 44 46 52 36 41 41 44 46 52 49
8 10 9 12 8 5 5 4 5 4 5 7 8 8 9 10 12 14 15 14 13 14 16 16 20 22 25 26 29 33 37 41 43 49 52 47 42 45 43 49 54 57 52
10 10 8 10 12 12 10 9 7 7 8 9 10 12 13 15 16 19 20 19 17 20 22 24 26 28 29 30 33 36 38 36 36 39 43 38 43 45 49 51 56 52 55
15 9 10 10 9 12 14 15 16 16 14 13 14 16 17 19 20 21 23 25 24 27 27 29 31 30 29 34 33 34 35 35 38 38 39 44 46 48 48 49 51 56 58
17 24 22 16 14 14 15 17 18 18 17 15 16 18 20 23 25 24 25 29 33 30 32 30 31 34 35 35 35 33 34 38 39 37 38 43 46 48 49 52 54 58 60
25 21 18 19 18 17 17 17 20 20 20 20 18 19 23 24 30 32 32 35 37 37 28 28 29 31 34 37 34 33 38 42 40 41 43 45 48 51 55 58 59 61 63
28 22 15 14 18 17 14 11 15 17 21 22 22 22 24 27 32 35 33 37 46 29 34 30 30 34 36 34 38 41 43 43 45 45 47 50 54 56 59 60 62 63 63
29 23 17 11 12 17 13 14 15 18 21 21 22 24 26 28 28 31 29 40 30 34 36 32 34 37 38 41 43 41 45 45 47 49 50 54 58 60 63 65 66 66 66
35 28 20 18 19 16 18 18 17 19 22 24 25 23 24 28 30 30 27 33 33 33 33 35 37 39 39 42 42 43 46 48 51 50 57 62 64 67 68 68 69 68 67
32 22 22 24 20 19 20 18 20 22 25 26 25 25 27 28 29 32 34 34 34 35 37 37 39 39 42 41 43 48 51 52 53 55 61 64 66 69 71 72 71 71 71
33 22 18 22 25 22 22 21 24 27 28 28 28 28 30 30 32 33 35 37 39 39 40 40 41 41 43 45 49 52 48 58 60 62 63 65 68 70 72 74 71 72 72
32 25 28 29 29 28 27 28 29 30 30 29 30 31 32 33 34 36 37 39 41 42 42 43 44 48 50 51 54 55 57 61 63 63 66 71 72 71 70 70 70 71 73
34 32 29 29 30 31 32 32 34 32 30 31 31 32 33 34 36 37 38 39 40 41 44 47 50 51 55 57 59 61 62 65 67 70 73 73 72 71 71 70 71 73 75
29 28 30 31 30 31 34 35 34 34 34 35 36 35 35 36 37 39 41 42 43 44 47 49 53 57 59 62 61 63 64 66 68 71 73 74 72 70 72 74 76 77 79
30 28 27 27 29 31 34 36 36 36 36 37 37 36 37 38 40 42 44 45 46 49 52 56 60 62 61 62 64 67 69 70 72 73 73 72 71 72 75 78 80 82 84
30 30 30 27 29 31 33 35 36 36 38 40 40 40 40 41 43 45 47 48 51 54 55 56 58 61 64 66 67 70 73 72 72 71 70 72 73 75 78 82 85 86 86
37 35 32 32 32 33 33 33 34 37 40 41 43 42 42 44 47 48 50 52 54 55 56 59 62 65 68 69 71 70 70 71 71 71 73 75 78 81 83 85 87 87 89
39 38 38 37 38 38 37 37 38 39 41 42 44 45 47 49 49 52 54 54 55 58 59 63 66 69 69 67 68 70 70 71 74 76 78 81 82 84 87 88 89 91 94
36 35 35 35 37 36 39 42 41 41 41 42 44 48 49 51 50 52 53 55 59 62 65 69 71 68 66 67 70 72 74 77 81 84 86 86 87 88 88 89 92 95 97
36 36 38 40 42 44 45 42 44 44 42 44 46 51 51 51 55 54 57 61 64 68 68 66 63 64 68 73 76 78 80 82 84 84 86 88 89 90 92 95 96 98 98

GFSMW_500_spd_087.txt.gz
Wind_Speed
18 17 14 5 9 12 14 10 11 16 13 15 15 18 23 25 23 26 24 29 27 27 28 20 17 19 21 20 18 18 18 19 21 22 24 24 27 30 32 32 34 34 34
10 13 15 9 6 6 14 10 9 17 12 12 14 16 21 33 31 31 28 24 25 21 16 14 17 21 21 18 19 20 21 24 24 25 26 28 30 33 33 33 33 35 38
7 7 8 12 10 9 9 11 12 13 15 16 17 19 21 21 18 20 18 18 20 20 19 19 20 20 17 22 21 25 23 24 26 29 30 32 33 37 39 40 42 44 47
2 5 5 5 6 10 9 9 10 11 12 15 15 13 15 16 17 16 14 14 16 18 17 18 17 17 20 23 22 22 24 26 28 31 33 34 35 33 37 40 42 44 47
1 2 3 4 2 3 7 8 9 7 10 12 12 11 12 11 10 11 12 13 12 11 13 17 19 19 19 21 20 25 27 28 29 32 33 35 37 38 39 40 41 44 45
4 3 1 2 1 4 4 8 8 8 8 9 10 9 11 12 14 14 13 11 11 15 18 23 22 19 19 21 23 25 27 29 29 31 34 37 40 41 40 45 44 40 40
3 1 4 7 7 4 4 6 5 5 4 3 5 4 6 7 7 10 11 11 11 14 18 18 20 20 22 24 24 28 29 31 32 35 39 42 40 47 48 49 46 39 43
5 4 3 4 8 8 7 6 6 8 6 5 4 4 6 8 9 12 15 15 16 17 19 19 22 22 24 26 28 29 31 33 35 40 42 39 42 41 43 45 46 49 48
6 8 6 7 6 9 9 11 11 10 8 7 6 7 8 11 11 15 17 19 18 20 22 24 25 28 30 31 30 31 34 34 39 38 36 39 40 42 43 41 45 47 48
12 13 11 10 12 12 13 13 15 14 14 11 12 13 14 14 16 18 20 22 24 26 27 27 31 34 35 31 33 32 37 38 37 36 38 40 41 42 42 43 45 48 51
14 15 19 21 21 19 15 14 17 20 19 17 14 13 15 16 19 19 22 24 29 33 34 37 39 37 33 37 30 38 37 38 39 37 38 42 43 43 46 47 48 52 56
16 16 18 17 13 14 19 17 17 19 21 21 18 14 17 20 23 24 26 29 33 37 41 43 43 38 36 40 38 39 40 40 38 42 47 46 45 47 48 50 52 54 56
19 19 15 13 13 11 11 15 18 17 18 21 21 18 21 23 25 28 28 32 35 39 37 59 42 34 36 34 38 40 41 43 46 47 47 47 49 51 53 54 55 58 60
23 24 17 11 9 10 10 13 18 18 17 17 19 20 21 24 27 30 31 35 38 35 29 29 26 28 32 36 39 44 43 42 46 47 46 49 52 56 57 58 58 61 62
26 27 22 15 17 15 15 18 19 19 20 20 20 22 24 26 27 29 31 33 33 34 33 33 31 34 36 37 40 42 43 44 47 52 44 55 57 58 59 60 62 64 68
32 31 32 22 19 20 20 24 24 24 23 23 22 24 27 28 29 30 32 34 35 33 33 37 36 38 40 41 41 42 43 47 42 51 61 63 59 61 65 66 68 71 71
32 33 31 23 21 22 24 25 28 26 27 25 26 27 28 29 30 32 33 35 36 36 37 37 39 39 39 40 44 45 48 51 49 51 65 65 63 66 69 71 71 73 74
30 32 34 25 22 25 27 28 28 28 29 30 32 31 30 30 31 34 36 38 38 40 41 41 41 41 43 46 47 51 48 46 63 63 64 67 67 71 74 74 74 76 76
27 28 32 28 24 27 28 27 29 32 33 35 37 36 35 35 36 37 38 40 41 42 42 44 46 45 49 51 52 52 58 60 63 64 69 71 73 74 74 77 78 78 77
27 27 27 26 27 31 31 31 30 31 34 36 37 38 39 39 40 40 41 42 44 45 46 49 50 51 52 54 55 58 62 65 69 71 72 73 76 76 78 79 77 76 75
30 28 28 28 30 30 30 29 29 31 34 37 39 41 42 42 42 44 46 48 48 48 51 53 54 55 56 58 60 64 67 68 70 72 75 77 78 79 78 79 79 80 80
33 33 33 31 31 31 32 32 32 33 34 37 39 41 41 42 45 48 50 51 52 54 56 57 58 60 61 63 66 67 68 71 74 78 78 77 76 76 79 82 82 84 86
39 44 41 39 39 37 34 35 36 38 39 41 42 44 46 48 49 50 51 52 54 56 57 57 58 61 64 67 68 70 75 78 80 78 77 77 79 82 84 86 88 89 91
41 41 41 41 40 40 43 44 43 43 42 43 46 50 51 51 51 51 51 53 56 58 59 60 64 66 67 69 72 76 77 75 74 74 78 81 84 87 90 91 89 89 91
45 44 42 39 38 37 38 39 40 42 44 48 52 51 53 53 51 52 53 56 60 59 60 65 69 69 71 73 74 72 73 75 77 80 83 86 89 90 90 91 93 96 97
39 37 37 36 39 41 41 42 44 47 48 49 50 51 52 52 54 57 59 60 62 65 67 69 69 69 67 67 70 73 75 76 79 82 86 89 91 94 95 97 98 98 98

GFSMW_500_spd_090.txt.gz
Wind_Speed
11 15 20 7 4 11 14 11 11 15 15 20 22 23 25 19 24 24 25 27 27 31 34 32 28 28 29 28 25 21 23 23 23 22 23 22 25 26 28 28 31 34 36
8 10 16 14 2 8 12 12 8 14 13 16 21 27 30 33 28 27 27 24 27 31 32 31 28 28 24 24 24 25 24 24 22 23 26 27 27 29 29 31 34 36 39
7 8 9 13 7 4 9 12 15 16 18 14 18 21 26 30 34 30 29 29 29 29 26 24 22 20 19 22 24 24 24 23 22 24 26 27 29 31 32 34 37 41 41
7 5 5 6 8 7 3 5 6 7 8 10 14 20 23 24 31 35 32 31 27 24 23 20 20 19 20 23 24 26 24 26 22 25 29 30 30 31 34 37 37 41 42
7 3 2 2 1 3 4 4 7 7 7 6 7 7 9 14 17 19 17 13 13 16 18 20 20 21 22 25 25 26 28 26 25 29 30 33 34 33 35 38 40 43 43
10 6 4 2 0 2 2 2 1 5 8 9 10 11 13 15 16 17 18 17 16 18 21 23 23 24 25 25 26 29 30 28 29 30 33 35 37 38 39 42 44 44 47
10 6 5 5 4 3 4 4 4 4 4 6 7 9 11 12 13 12 11 12 15 18 20 21 22 25 28 26 29 29 27 30 33 36 36 37 38 41 43 46 44 47 43
13 12 8 5 5 6 6 6 6 5 7 7 8 8 9 10 11 11 13 16 15 15 15 17 18 20 26 30 32 31 30 32 34 35 36 39 41 44 46 42 48 45 43
16 15 12 9 5 7 10 11 8 8 9 6 6 8 9 10 11 10 11 13 15 16 18 19 19 22 27 30 33 33 34 39 38 40 40 41 43 43 42 40 45 47 42
24 17 14 11 8 9 13 13 13 13 14 12 14 15 15 15 16 14 16 17 18 19 21 21 23 28 32 34 38 41 45 46 39 40 41 41 42 45 46 44 46 45 44
28 23 14 16 19 18 19 18 17 17 18 21 22 23 22 20 17 16 19 20 22 22 23 26 30 32 37 44 45 49 48 48 46 41 40 40 41 43 46 51 52 48 47
23 23 21 17 18 20 17 22 22 20 21 25 24 24 24 22 18 20 22 22 22 24 26 28 34 41 48 51 55 42 52 40 47 43 42 43 45 50 51 49 48 49 52
27 27 19 17 16 17 14 16 24 25 23 23 23 21 20 16 19 20 22 24 26 28 30 31 41 25 30 26 35 48 38 41 44 47 49 49 50 52 51 52 48 52 58
25 22 20 18 14 11 13 15 18 23 22 20 20 19 18 18 19 23 25 26 27 29 33 32 33 33 30 27 28 28 33 40 45 48 50 51 50 51 55 47 54 60 65
24 23 26 22 14 15 17 19 17 19 19 19 20 22 22 22 24 26 28 29 30 31 34 37 39 36 35 35 35 37 41 43 45 47 47 48 50 56 60 50 62 67 71
28 26 26 27 28 18 18 21 21 22 26 24 23 24 25 25 27 28 30 32 34 35 37 39 40 41 41 41 39 43 43 44 45 46 48 51 52 56 50 57 65 70 68
23 26 26 30 27 18 17 21 26 28 29 30 29 29 29 30 30 33 35 36 36 38 39 41 41 41 42 43 43 44 44 47 45 53 52 55 45 58 61 67 70 70 77
24 21 24 27 26 19 18 22 24 27 30 33 33 33 34 35 36 36 36 37 39 40 40 41 43 45 46 47 47 48 47 40 49 55 51 54 63 72 68 66 70 72 74
26 26 28 27 23 21 20 22 24 23 25 28 31 33 34 37 38 38 38 39 40 42 43 46 49 50 51 51 51 51 52 51 55 66 61 64 66 70 72 74 75 72 78
26 25 25 22 23 23 22 24 25 26 28 29 31 33 35 37 38 39 40 42 43 46 48 50 52 53 54 55 55 57 59 59 62 66 67 68 69 76 74 74 77 77 79
27 26 25 25 22 23 24 25 27 29 31 32 33 35 36 38 39 41 44 46 47 49 51 54 55 57 58 59 60 62 61 63 66 69 71 74 76 79 79 76 79 80 83
33 30 29 29 27 26 30 34 35 37 38 37 37 39 40 42 44 46 48 50 52 54 56 58 58 59 59 59 62 65 66 67 69 72 74 75 76 77 78 84 85 85 87
35 34 30 28 32 35 33 34 38 42 43 43 44 45 46 47 47 47 49 53 56 58 58 58 59 59 61 63 65 66 69 72 74 74 75 76 77 80 82 86 88 88 90
38 38 32 36 36 35 39 42 44 45 45 43 43 43 43 45 48 52 54 54 55 56 58 60 61 63 65 67 69 69 70 71 72 73 75 78 81 84 86 87 89 91 93
31 34 40 40 38 40 41 40 40 39 40 43 43 45 48 50 51 51 53 54 55 56 57 60 63 65 65 66 67 67 69 73 78 81 82 83 85 88 91 92 93 96 98
38 34 34 45 39 38 39 38 38 42 45 46 46 48 49 50 51 52 52 52 53 54 55 58 61 64 67 70 73 76 78 80 79 81 85 88 90 92 94 96 99 101 103

GFSMW_500_spd_093.txt.gz
Wind_Speed
12 13 18 16 9 13 15 11 8 8 13 22 18 20 28 30 27 32 31 32 30 25 31 32 29 29 28 27 30 31 32 29 27 23 21 22 24 22 23 25 27 29 30
11 10 15 17 5 7 10 10 9 14 11 17 27 22 25 28 22 24 28 29 28 28 28 29 34 33 29 29 30 30 28 25 20 22 22 22 22 25 25 27 30 32 34
10 8 11 13 14 1 5 11 10 11 20 16 22 25 23 30 25 27 29 34 33 33 32 30 34 32 32 30 31 28 25 21 22 24 25 24 24 26 27 30 33 36 38
12 10 6 8 10 11 3 2 3 7 12 16 20 23 27 25 32 30 33 35 32 31 30 27 28 28 28 23 22 21 22 24 24 25 27 27 25 27 29 33 37 39 40
11 12 8 4 4 6 6 4 2 1 4 9 14 20 23 25 26 30 32 31 30 31 30 29 26 23 18 19 22 23 24 27 28 28 30 28 27 31 33 34 37 40 41
11 10 10 8 5 2 2 1 2 3 4 4 5 8 10 13 15 17 23 26 21 16 14 14 16 19 20 24 24 26 26 28 31 33 34 34 33 34 37 40 42 44 45
9 8 8 8 9 6 3 5 5 5 3 3 3 4 5 7 7 9 10 12 13 14 15 16 18 21 23 26 28 29 31 31 35 40 37 34 38 44 43 46 43 45 47
12 10 11 11 9 10 8 6 6 6 6 7 8 7 8 9 9 10 11 13 16 14 13 15 18 20 20 24 27 32 34 38 37 38 37 36 47 46 45 44 46 47 46
19 15 15 12 14 8 8 10 8 9 9 10 10 10 12 12 11 11 12 13 15 15 15 15 16 18 20 23 26 29 34 36 38 39 41 44 48 50 48 48 50 49 46
19 16 11 13 14 14 9 8 12 13 12 13 12 12 11 12 12 14 14 15 15 14 15 17 19 21 23 27 31 33 35 40 42 45 48 51 50 49 51 52 50 47 48
21 26 20 20 17 20 20 18 17 19 18 18 18 17 16 18 18 18 18 18 15 17 17 20 22 25 28 32 35 39 42 45 48 52 57 55 56 45 50 52 46 47 49
24 26 20 17 16 20 23 24 24 25 23 23 21 20 20 22 27 22 22 20 18 19 21 24 26 29 31 36 36 41 49 46 52 55 56 51 53 53 50 45 48 52 52
21 22 20 17 19 19 25 27 21 21 26 25 23 21 21 20 22 25 22 21 20 22 26 27 29 29 33 30 38 37 29 31 33 35 41 43 44 49 53 53 57 55 56
24 24 27 19 20 18 22 25 23 19 22 26 25 22 20 20 17 18 21 24 26 27 28 30 31 29 33 33 35 36 37 37 37 38 38 41 46 51 46 58 55 56 60
27 28 26 23 25 18 19 21 22 21 18 21 23 25 22 21 20 21 22 25 28 29 31 32 33 35 37 38 40 40 39 40 42 45 46 50 51 57 58 55 52 58 59
22 21 22 20 22 20 21 21 23 25 24 21 22 25 26 25 26 26 26 28 30 31 33 36 38 40 41 41 42 43 42 43 44 45 46 49 53 61 59 48 54 49 61
30 25 19 19 25 23 19 18 23 25 26 25 26 29 31 31 30 31 33 33 33 35 37 39 40 42 43 43 44 46 48 47 49 50 49 49 51 49 53 59 50 63 58
32 30 25 22 21 19 21 19 19 23 25 26 27 29 32 36 36 37 38 38 38 38 39 40 42 44 45 46 48 50 50 51 52 54 55 55 54 52 58 71 73 70 74
29 26 28 24 24 23 24 18 18 21 21 21 23 24 27 30 32 35 38 39 41 41 41 43 45 47 49 50 51 54 56 57 57 58 58 59 60 59 60 64 71 73 74
36 30 24 28 29 28 24 20 22 21 21 21 22 24 26 28 32 34 36 38 40 42 44 47 49 51 52 53 55 57 57 57 57 58 60 63 65 65 65 71 72 74 77
34 26 27 31 32 28 24 22 22 23 25 26 27 27 30 32 35 38 40 42 45 47 47 49 50 51 53 56 58 59 59 60 61 62 64 65 66 69 71 74 76 77 78
40 33 32 33 33 31 29 27 28 30 31 34 34 34 35 37 39 42 45 47 48 48 48 49 52 56 57 57 58 58 60 62 63 64 66 67 69 72 74 75 76 77 79
40 38 40 40 38 35 31 33 34 36 33 32 36 40 42 43 42 42 43 44 45 48 51 54 55 56 58 58 59 60 62 64 65 66 67 70 72 74 76 80 82 85 89
41 43 44 43 40 37 36 34 30 35 36 38 38 38 38 37 42 44 45 47 49 51 52 53 55 56 57 56 57 58 60 63 67 70 73 77 79 81 83 85 88 91 94
40 43 34 33 31 39 41 44 37 38 38 37 36 36 39 43 45 47 48 50 50 51 51 52 53 54 54 53 57 61 64 68 72 74 77 80 84 87 90 93 95 98 101
31 30 32 29 26 32 44 38 38 36 36 37 40 44 47 49 49 49 48 48 49 50 50 51 52 54 58 61 65 70 73 76 77 79 82 85 88 91 95 98 101 103 106

GFSMW_500_spd_096.txt.gz
Wind_Speed
19 18 17 19 20 15 10 12 14 13 13 5 13 24 36 39 45 37 35 41 42 42 44 39 35 34 34 31 27 27 27 30 30 28 30 27 24 22 23 27 27 23 23
15 14 15 15 16 11 9 9 11 12 11 11 17 24 30 37 36 39 43 42 44 41 36 33 33 36 34 31 31 32 32 30 29 28 30 23 18 22 24 23 25 28 29
13 11 12 14 13 10 6 8 9 8 12 6 13 23 27 25 40 31 35 41 38 36 38 34 26 30 34 35 37 35 33 32 28 30 24 17 21 25 24 27 29 31 32
13 11 9 11 9 9 6 7 10 9 10 13 17 17 19 23 30 20 25 34 28 27 30 34 30 31 33 34 33 33 32 31 25 26 20 23 25 27 28 32 32 32 34
14 12 8 9 10 7 8 6 3 4 7 14 15 18 21 25 24 29 26 28 29 30 31 31 32 31 31 30 30 30 24 24 25 23 24 25 26 28 31 31 34 36 40
14 10 8 8 11 10 5 2 5 2 1 5 12 15 21 23 25 35 33 22 29 34 36 34 37 32 29 24 20 20 20 22 23 26 28 29 31 32 33 38 41 45 38
14 13 9 6 7 8 8 5 5 4 2 2 6 8 9 14 18 20 21 23 26 29 25 20 19 17 17 20 20 21 22 25 30 32 34 34 35 39 42 42 45 41 48
17 18 15 9 9 8 8 7 7 8 6 6 5 7 8 9 9 9 8 9 10 11 13 13 15 17 17 20 22 22 25 28 30 33 35 38 41 44 44 45 45 53 56
20 19 20 14 13 11 10 8 7 9 8 9 9 9 8 9 11 11 12 13 14 15 14 15 17 19 20 19 22 24 25 28 28 31 35 39 41 45 48 49 51 52 59
22 21 20 19 14 13 16 15 8 8 10 11 11 10 9 11 11 13 15 16 17 17 18 18 19 20 21 23 25 26 27 29 30 35 38 41 44 50 54 55 57 59 62
22 24 23 22 20 19 17 16 20 18 14 15 16 15 15 13 12 14 17 20 20 21 19 19 19 20 21 25 26 27 30 34 35 36 42 48 57 59 58 66 61 58 60
25 27 22 22 21 19 19 21 22 22 21 22 21 20 18 18 18 20 19 24 23 22 22 23 22 21 23 25 30 32 32 34 39 45 32 32 40 43 43 42 56 58 55
20 24 22 22 21 18 19 20 21 22 23 21 22 22 19 17 20 21 22 25 28 25 24 24 24 26 27 29 30 33 32 34 37 34 36 40 43 42 43 46 47 51 53
23 23 23 21 20 19 18 22 20 15 16 20 22 25 25 24 23 24 21 20 26 28 28 27 29 30 31 32 32 34 37 39 41 40 43 45 46 46 48 51 53 55 58
28 27 24 22 20 21 22 24 19 17 18 20 21 24 26 25 26 25 24 23 25 27 29 29 30 32 34 34 37 40 41 44 46 47 48 49 50 51 52 55 57 59 61
32 32 27 26 24 23 26 29 24 21 19 22 24 22 24 25 25 25 26 26 27 29 30 32 34 35 37 40 43 45 47 47 48 50 52 52 54 54 56 56 57 58 59
30 30 34 31 25 26 31 27 24 23 22 22 24 27 27 25 28 30 31 31 33 35 36 37 38 40 42 44 46 48 51 52 53 55 56 57 58 58 60 60 61 60 62
34 32 39 28 26 27 31 29 24 24 24 23 25 26 27 30 31 32 33 35 38 40 41 42 44 45 46 47 49 51 52 54 56 58 60 61 61 62 63 64 65 65 64
40 35 37 34 33 30 31 29 25 23 25 25 26 26 26 27 27 28 28 32 35 39 43 45 46 45 47 48 50 52 54 55 56 59 61 63 65 66 66 66 67 68 69
45 39 38 34 34 31 33 35 28 25 25 27 26 26 26 25 25 26 28 30 33 36 39 42 44 46 48 50 52 54 57 58 59 63 65 64 65 65 66 66 68 70 71
31 35 41 37 35 35 34 36 37 30 29 29 28 29 28 28 30 32 34 37 39 41 44 46 49 52 54 55 55 56 58 61 62 62 62 63 63 64 64 65 67 69 71
33 34 34 38 43 40 38 40 35 35 34 32 33 33 34 37 35 35 39 43 45 47 48 48 50 50 50 53 57 59 59 60 60 60 60 61 61 63 66 69 72 75 78
31 34 38 37 33 36 40 38 39 41 39 37 37 34 37 35 38 42 44 43 41 42 44 47 49 51 54 56 57 58 58 59 60 61 60 63 67 70 74 78 80 83 85
36 37 40 42 40 46 44 43 45 45 41 41 33 34 39 40 40 40 40 41 43 47 49 51 53 55 55 55 56 57 57 59 61 65 69 73 76 80 84 86 87 89 92
39 32 39 46 49 51 46 48 50 47 43 41 43 42 40 39 38 39 42 45 48 50 51 51 52 54 56 56 56 58 60 62 65 70 73 77 82 86 88 91 95 98 101
30 37 43 48 55 53 50 49 39 37 40 44 44 43 45 46 44 46 49 51 50 51 51 53 54 56 58 60 61 62 65 68 73 77 81 84 87 91 95 99 103 107 110

GFSMW_500_spd_099.txt.gz
Wind_Speed
14 14 17 19 18 24 23 15 14 15 14 19 27 28 33 38 49 52 44 45 46 44 44 38 39 47 42 42 36 34 32 32 33 31 32 32 31 31 31 28 22 20 22
12 12 13 16 15 20 18 14 11 15 13 16 21 26 25 33 38 46 49 44 43 45 49 47 47 45 41 43 31 32 33 31 30 32 33 33 32 30 27 20 16 16 18
12 11 12 14 13 14 16 12 12 13 13 13 19 11 24 34 35 38 40 42 43 45 44 42 41 39 37 35 36 33 32 33 34 34 33 32 27 28 22 17 19 21 24
14 11 11 14 12 12 12 13 10 14 14 13 10 4 11 15 27 35 41 44 41 37 36 36 37 41 36 29 28 30 34 36 34 31 30 26 27 27 22 22 23 25 29
15 11 10 12 12 12 10 11 10 9 13 13 9 14 9 7 20 23 28 33 32 36 32 37 40 32 32 27 27 28 31 31 28 27 24 22 24 26 25 24 27 29 31
16 13 10 10 12 10 8 8 8 6 7 5 12 13 12 13 10 17 20 24 25 26 29 29 26 33 30 26 28 26 21 18 18 18 22 21 26 27 31 31 33 36 35
18 16 14 12 12 12 8 9 10 9 5 5 4 8 11 15 15 14 15 21 24 20 25 26 28 29 29 23 19 16 16 18 20 22 22 26 29 32 36 37 37 41 42
17 18 18 15 14 13 11 10 11 11 8 5 6 1 2 5 11 13 12 16 18 19 16 15 17 13 12 15 18 20 19 21 20 23 24 28 30 35 37 40 43 44 45
19 19 18 17 16 14 12 11 12 11 10 9 7 7 4 3 5 8 9 9 10 10 10 10 12 14 16 18 20 19 20 22 21 22 25 28 31 34 38 40 44 48 53
18 21 20 19 18 16 12 14 14 10 10 12 10 7 7 6 6 7 8 10 11 12 14 15 17 18 18 20 21 22 22 24 23 25 28 31 33 35 38 42 45 57 57
21 23 22 21 19 19 16 16 15 15 14 17 13 11 11 10 9 9 10 10 11 14 17 19 21 22 23 23 23 23 25 26 27 27 29 33 34 40 37 35 41 46 47
23 24 24 22 21 21 22 17 16 17 21 18 18 17 15 16 18 18 17 14 13 19 21 21 22 21 22 24 23 25 27 28 31 31 34 36 38 36 37 42 46 49 54
25 26 26 24 22 22 22 19 19 18 17 19 20 18 18 19 19 19 20 21 22 19 20 23 22 24 25 26 27 28 29 32 35 35 38 38 41 43 45 47 48 52 54
25 26 23 24 25 24 22 21 21 17 16 17 16 16 17 22 23 23 20 20 22 22 21 22 26 26 28 29 32 33 34 36 38 40 43 44 46 48 50 51 54 56 61
26 27 24 23 23 24 25 24 23 21 17 16 16 17 18 18 21 24 24 23 23 23 22 22 27 29 32 34 32 36 37 39 40 44 46 49 51 55 56 58 59 61 63
30 30 30 29 27 27 28 27 27 23 21 21 21 20 20 20 19 21 24 25 25 25 27 29 31 34 33 33 36 39 41 43 45 48 51 54 56 57 59 61 62 64 66
35 37 36 33 32 31 30 27 25 26 24 24 23 21 22 23 23 23 24 27 28 30 32 33 35 37 39 40 42 44 47 50 52 55 56 57 59 61 62 63 64 66 69
35 39 38 38 35 37 37 32 29 28 27 27 26 23 25 24 24 26 28 28 31 32 34 37 40 42 43 44 46 48 51 54 56 57 58 59 61 64 66 67 69 72 75
41 33 35 35 33 39 40 34 31 31 31 32 30 27 25 25 26 28 29 28 29 31 33 36 38 40 43 45 47 50 53 55 57 59 61 63 65 69 70 72 74 76 74
40 40 39 37 37 46 36 38 35 33 34 33 29 27 29 27 29 28 29 30 31 33 35 38 41 43 46 48 51 54 57 60 63 65 66 66 67 70 71 71 73 72 71
39 41 41 41 42 40 43 44 35 36 41 40 32 30 32 33 31 33 33 34 36 38 42 46 49 50 51 53 55 56 57 60 62 64 67 69 69 69 70 71 71 72 71
38 42 40 40 42 49 44 41 41 42 41 45 38 34 34 36 37 36 38 41 44 44 44 46 47 47 47 48 51 55 58 61 64 66 66 67 69 70 69 69 71 74 78
36 38 38 40 38 41 45 45 42 45 48 47 46 35 38 42 44 39 38 40 44 47 46 44 43 44 47 51 54 57 59 60 61 64 67 68 69 70 72 74 77 82 85
35 38 38 39 37 39 40 48 45 49 50 47 46 39 46 49 49 46 46 44 43 45 45 45 48 51 55 56 57 58 60 62 64 65 67 69 71 73 76 80 84 88 90
35 36 34 37 41 42 46 45 44 45 48 51 45 48 50 54 52 57 51 56 48 47 49 52 55 58 57 57 58 60 61 63 64 65 66 69 73 78 82 85 89 94 97
31 31 34 37 37 44 43 47 47 51 53 53 52 56 58 57 57 56 57 57 54 55 54 58 60 59 56 57 58 60 62 63 64 67 71 75 78 83 87 91 96 101 106

GFSMW_500_spd_102.txt.gz
Wind_Speed
26 14 19 17 19 17 22 17 11 9 12 14 15 17 22 25 28 39 40 45 43 39 38 30 28 31 33 43 38 41 40 38 30 33 31 30 28 29 29 30 30 24 17
28 15 18 15 16 16 19 19 13 10 10 13 17 21 22 28 30 44 46 43 39 44 43 43 38 38 36 38 32 41 41 39 34 32 33 31 29 30 31 29 26 19 13
28 15 18 15 15 13 16 17 15 11 11 14 15 22 26 29 26 43 45 46 40 39 40 40 42 41 35 38 36 39 42 42 33 33 32 32 29 30 29 23 19 15 16
23 18 19 15 13 11 13 15 14 12 11 15 17 15 23 14 23 37 40 44 47 41 43 43 41 42 41 44 45 40 32 33 31 33 33 30 25 26 19 17 15 20 19
19 21 17 16 15 11 10 13 11 12 11 12 16 14 9 19 16 28 28 39 45 46 40 38 39 39 37 33 29 28 28 25 31 28 25 21 17 17 17 16 19 22 23
18 20 18 17 15 12 8 10 11 12 12 11 12 14 10 16 12 14 28 37 39 37 44 42 35 29 32 31 27 23 23 25 24 17 14 14 14 17 20 18 20 24 27
19 21 21 18 17 14 10 8 11 10 10 10 11 10 9 7 9 10 5 18 22 29 29 25 26 30 21 24 23 23 24 20 14 15 16 19 18 21 23 23 25 29 30
20 20 22 17 19 16 13 9 5 11 9 9 10 9 8 4 4 8 8 5 15 20 17 20 21 22 22 26 21 13 15 17 17 20 21 21 19 20 23 26 29 30 33
19 21 21 18 19 17 15 13 10 11 10 6 7 8 6 6 4 3 9 5 9 15 18 15 11 11 14 12 12 15 17 20 21 20 20 22 22 23 25 29 31 33 35
23 21 21 19 18 17 16 17 12 9 11 12 8 6 6 2 2 3 5 7 7 8 11 11 12 13 12 15 17 19 19 20 22 20 22 24 25 26 28 32 34 37 42
27 22 22 21 18 18 18 18 17 12 9 13 13 9 7 6 4 5 7 8 6 6 6 8 9 11 13 15 16 17 18 21 23 23 24 26 29 31 35 33 34 39 38
26 23 23 20 19 18 19 18 20 16 14 13 15 15 13 11 12 13 11 10 8 8 11 13 13 15 17 19 19 19 21 23 24 27 30 31 33 35 37 38 40 44 47
26 25 24 21 20 21 20 20 21 20 17 17 13 13 14 15 17 16 14 14 15 17 14 14 17 20 21 22 23 25 26 28 30 31 33 36 36 35 38 42 45 46 50
29 27 25 23 24 23 23 20 21 20 19 18 15 13 13 14 16 19 17 16 16 16 18 17 19 21 25 26 26 26 29 32 34 35 36 37 39 42 44 46 49 49 60
14 18 22 25 25 25 25 23 23 22 20 19 17 16 13 14 14 17 21 23 22 22 22 21 21 23 24 24 28 31 34 34 36 38 40 41 44 46 47 51 55 58 61
31 15 25 26 26 24 24 24 24 24 23 21 20 19 18 16 18 17 17 19 21 23 22 23 23 24 26 27 31 34 37 39 40 42 44 48 50 53 54 58 60 61 65
24 34 18 28 30 31 30 27 27 27 26 23 19 22 21 21 20 21 22 21 22 24 25 26 27 29 31 32 35 37 40 43 44 47 50 53 55 57 60 62 63 66 68
32 31 33 33 22 27 32 32 30 30 28 25 24 23 24 24 24 21 20 24 25 26 28 28 30 32 34 36 37 40 43 44 47 50 52 56 58 61 63 67 70 72 73
41 39 37 38 40 35 35 34 35 36 35 30 28 26 29 23 25 24 25 25 25 25 26 28 29 30 33 35 38 41 44 47 49 52 57 61 64 65 66 68 70 72 75
40 35 40 39 41 43 39 39 38 38 36 35 32 30 26 28 27 26 27 28 29 30 32 32 32 34 38 41 46 49 53 53 54 59 58 58 61 64 67 70 73 74 73
41 39 40 40 40 39 40 38 37 40 46 39 37 36 31 36 35 29 29 30 31 34 34 34 37 42 44 47 49 50 51 52 52 54 57 59 64 67 68 70 71 74 76
32 35 39 41 41 43 43 43 41 43 39 36 39 42 41 41 41 37 34 35 35 37 37 38 38 40 43 47 49 49 50 51 55 60 63 65 67 69 71 72 74 75 77
31 33 38 41 41 40 42 46 46 44 45 45 45 42 43 47 45 41 41 41 44 45 45 43 47 45 43 48 49 51 55 58 62 65 64 67 69 70 71 73 75 75 77
35 35 36 40 41 41 42 43 44 46 50 50 48 46 49 50 49 47 48 45 50 51 51 51 55 58 56 54 55 57 60 64 67 67 65 65 67 70 72 73 76 79 83
31 34 37 38 41 42 43 46 46 46 46 51 51 51 51 52 48 54 51 50 51 52 54 61 62 58 65 64 63 65 66 66 65 64 64 69 70 71 73 78 81 85 89
29 31 35 41 45 44 43 44 45 46 46 49 53 55 56 55 59 60 59 51 55 58 59 56 57 60 67 68 69 68 67 64 62 62 65 68 71 75 78 82 86 89 94

GFSMW_500_spd_105.txt.gz
Wind_Speed
30 24 13 18 21 18 18 19 21 15 11 9 10 11 13 16 11 12 22 32 34 31 35 35 30 33 29 33 32 32 33 32 30 27 29 29 29 28 25 19 22 24 25
31 26 11 18 19 18 16 15 17 18 11 8 10 13 14 15 15 19 24 32 41 37 37 35 37 30 27 22 28 30 35 32 31 31 34 33 29 29 28 29 23 19 18
32 28 14 19 19 18 14 13 15 16 14 9 12 14 12 12 18 30 34 33 42 38 37 42 41 31 26 24 27 28 29 32 34 32 35 34 30 30 29 28 25 18 14
34 26 16 20 18 18 13 12 13 12 13 12 12 13 13 13 16 23 27 36 38 41 39 42 42 37 30 32 30 30 32 36 36 33 33 27 29 29 31 25 20 16 15
33 25 16 20 19 18 13 10 12 12 12 12 11 12 10 13 19 12 18 34 35 45 42 40 36 37 32 36 34 33 37 40 32 28 26 25 27 30 28 20 18 16 19
29 22 15 21 19 18 12 8 13 13 11 12 11 11 10 6 14 20 12 44 40 35 45 39 35 33 32 33 38 38 31 29 28 25 23 24 26 23 21 19 21 21 22
27 19 14 18 18 19 14 9 12 10 8 10 9 8 7 5 3 11 6 18 32 34 38 40 34 31 33 34 33 30 28 27 24 22 23 21 21 23 23 21 24 25 25
21 19 16 20 21 20 17 11 10 11 9 9 9 6 6 3 6 4 6 5 21 33 32 30 33 30 28 30 29 24 25 26 20 16 17 21 22 24 27 28 29 28 27
25 19 19 21 22 22 20 14 13 13 10 6 8 6 4 4 5 4 5 5 3 22 26 24 26 25 23 24 24 29 24 17 17 21 23 24 24 25 27 28 26 29 28
32 24 23 23 23 24 21 15 12 13 11 8 7 8 5 2 5 7 7 11 12 11 10 11 15 17 18 17 20 19 14 13 18 20 23 22 24 27 28 29 31 32 33
32 27 24 25 25 26 21 16 13 13 12 11 8 9 7 3 2 5 7 7 7 8 8 11 14 16 18 17 17 17 19 19 19 22 23 25 28 28 29 31 34 35 39
24 27 27 25 25 24 22 18 15 14 14 13 12 12 10 9 6 6 6 6 7 10 13 13 14 14 16 18 19 20 21 20 21 24 25 26 29 29 31 34 35 38 39
22 18 24 24 24 25 24 20 19 17 16 15 14 13 11 12 13 12 11 12 13 13 15 14 15 19 21 21 20 19 20 22 25 27 28 29 31 33 35 36 38 40 41
19 22 27 23 25 26 27 25 20 18 18 17 14 13 12 10 13 13 15 15 15 16 17 18 18 19 20 22 24 24 25 27 28 29 32 33 35 36 39 41 42 43 46
31 32 28 32 27 27 27 27 23 20 19 19 17 17 14 11 11 14 14 18 20 21 20 19 19 19 21 20 25 27 25 29 32 33 35 36 38 40 42 45 48 51 52
30 31 27 30 33 27 27 28 24 23 21 19 19 18 18 15 13 13 17 16 19 21 22 23 23 21 20 20 23 27 29 31 34 36 37 40 43 45 46 47 45 51 56
37 32 33 30 31 31 28 28 25 25 22 22 20 17 17 18 17 17 16 18 19 21 21 21 22 23 24 25 28 32 34 35 37 39 40 42 43 45 47 53 48 56 60
27 28 37 28 19 18 33 31 27 27 27 25 22 16 18 19 17 18 18 19 21 22 24 25 25 24 27 28 29 30 31 33 35 38 41 45 48 48 51 49 61 53 64
36 33 34 33 34 32 29 23 33 29 27 26 25 22 20 18 20 23 22 21 20 20 23 24 25 26 25 24 26 28 31 35 40 43 45 47 50 50 49 59 60 61 67
34 37 39 37 35 39 40 31 24 21 27 28 29 31 30 27 25 26 26 25 25 24 25 26 27 28 28 29 31 34 37 39 41 46 45 47 52 53 54 59 63 67 70
38 36 38 41 42 39 38 39 35 31 35 35 36 35 34 34 33 31 30 33 33 32 31 30 31 34 35 35 37 38 40 42 45 47 49 51 53 57 62 67 71 74 77
39 41 43 44 46 43 39 37 36 39 40 40 38 36 40 41 37 37 33 37 43 42 38 38 40 40 40 42 44 43 47 52 52 52 55 57 61 64 68 72 75 79 80
32 38 42 43 45 45 43 43 41 42 42 41 42 41 42 39 37 40 41 47 43 43 44 42 44 51 48 50 48 52 57 63 66 60 64 65 70 73 75 77 80 79 77
35 35 37 41 44 45 46 47 47 45 44 44 45 45 45 43 44 44 46 44 50 44 48 52 50 55 51 52 54 57 62 69 67 63 66 70 76 81 81 77 75 76 78
37 39 42 41 40 41 44 47 47 48 46 46 46 47 47 49 51 53 50 52 46 50 55 56 53 56 57 61 64 66 67 61 62 66 72 76 76 73 70 73 74 77 82
38 39 39 40 43 44 44 47 49 48 47 48 48 48 50 50 54 52 53 54 52 56 57 59 61 60 62 65 66 61 62 62 66 71 65 62 63 67 71 74 77 81 85

GFSMW_500_spd_108.txt.gz
Wind_Speed
26 31 26 13 20 24 19 18 20 19 18 17 14 12 13 10 7 6 17 33 37 37 34 33 33 29 29 34 36 36 36 37 32 30 26 19 23 28 27 26 24 22 21
34 28 26 11 19 21 19 18 18 18 15 15 14 12 11 11 12 13 13 20 30 37 33 31 32 28 29 27 32 37 37 36 39 33 32 30 30 26 30 27 25 25 26
27 24 25 15 16 19 19 17 18 16 14 13 13 14 12 13 13 15 17 16 21 25 34 34 37 34 28 25 30 27 30 31 33 36 33 31 29 31 28 32 29 27 28
31 28 27 17 17 21 19 18 17 15 13 13 11 11 14 17 19 16 20 22 28 34 35 38 34 33 32 28 27 25 23 24 28 32 33 32 33 36 30 29 31 29 29
29 29 25 21 19 23 18 17 17 15 13 14 14 10 11 16 20 19 20 21 30 35 39 40 39 37 36 37 31 31 31 31 27 27 30 35 31 30 28 29 32 29 27
33 27 22 21 22 23 19 17 16 15 13 15 13 10 10 13 15 14 17 26 38 28 36 34 41 37 40 38 34 32 31 31 31 27 30 26 31 32 29 30 33 27 28
33 27 22 16 22 22 20 17 16 15 10 11 12 10 9 11 13 9 7 21 37 41 40 37 37 35 36 36 34 29 41 33 35 31 32 27 29 31 30 29 28 28 31
28 25 21 18 20 23 21 16 17 16 13 14 13 8 8 7 10 8 5 10 37 38 40 36 35 36 34 36 32 32 31 28 29 33 34 30 31 26 25 26 30 30 31
23 24 24 20 23 26 19 19 19 18 16 14 15 7 4 6 4 11 7 4 22 34 39 33 36 36 37 35 36 33 29 29 28 29 31 29 25 25 29 30 32 34 32
36 33 25 22 26 23 23 21 21 20 17 14 15 9 3 3 3 3 6 12 14 26 29 31 31 29 34 33 32 30 30 30 30 28 29 25 25 28 30 34 32 33 34
33 34 31 27 26 24 24 23 22 21 19 16 14 12 6 4 5 6 8 8 15 19 20 24 24 25 22 21 21 24 29 31 27 24 21 24 28 33 30 32 32 32 34
39 39 33 28 28 27 25 24 24 23 21 18 14 13 10 9 9 9 8 10 7 8 13 17 17 18 18 18 17 16 17 18 21 26 28 29 32 29 30 32 33 36 37
40 38 41 38 33 28 28 27 25 26 23 19 17 13 10 10 13 13 13 12 11 13 16 16 17 19 21 23 23 22 21 24 27 29 28 28 29 31 32 34 35 37 38
37 34 35 44 38 34 31 30 28 26 24 21 17 14 11 10 12 15 17 17 17 18 19 20 20 21 22 23 24 24 26 28 28 28 31 32 32 33 35 36 38 40 42
45 37 29 42 40 38 35 33 30 27 24 21 19 16 13 10 11 12 15 18 20 19 19 19 19 20 22 22 25 27 30 30 31 33 33 34 35 37 37 38 40 43 47
42 48 39 23 42 37 35 33 30 27 26 23 21 19 16 13 12 13 12 16 17 20 23 25 24 23 23 24 25 26 29 32 34 36 36 37 38 39 39 41 42 41 45
27 25 32 27 23 25 38 35 33 30 28 26 23 21 18 15 15 15 14 13 13 18 20 22 24 24 25 26 27 28 29 31 33 34 36 37 36 35 37 39 41 44 49
39 24 26 31 31 29 31 39 36 34 31 28 26 24 19 17 15 15 16 15 14 15 16 18 21 23 24 26 29 30 31 32 32 32 31 32 33 35 40 44 43 41 51
21 28 29 34 35 32 35 39 39 38 35 33 30 26 23 17 17 17 18 18 18 17 16 15 16 19 22 24 28 30 32 33 32 32 34 32 37 38 48 49 56 49 60
22 27 28 37 36 41 31 30 29 31 33 32 29 25 23 23 25 20 22 23 22 22 21 21 23 24 25 26 27 31 33 34 35 38 38 38 37 48 49 46 50 59 63
30 31 33 38 41 37 36 33 32 33 22 32 31 29 31 29 29 29 29 30 30 30 29 29 33 35 35 35 35 36 34 36 38 40 41 46 55 55 51 70 71 68 69
34 38 38 38 42 42 39 35 33 34 32 31 33 27 31 31 34 32 31 32 34 39 35 33 33 44 39 40 40 41 47 48 48 48 49 52 55 57 64 74 72 72 73
37 34 36 37 39 41 38 37 39 39 34 34 32 30 34 36 36 38 33 37 37 42 44 38 40 42 45 46 43 48 50 53 54 51 56 60 67 71 73 73 72 73 76
36 38 42 41 41 44 44 44 45 44 42 40 38 37 40 40 40 38 41 39 40 43 42 45 45 42 46 49 42 50 54 64 57 59 61 64 67 71 70 72 75 72 66
36 39 38 37 41 46 45 46 45 45 44 43 44 44 44 44 44 45 45 47 47 46 39 55 54 48 52 62 57 56 63 63 61 63 64 66 66 67 68 65 60 64 68
41 42 43 43 41 41 43 44 46 48 48 49 49 48 46 44 45 46 47 49 47 49 50 47 53 53 58 55 57 67 64 62 62 63 63 61 60 61 56 61 65 69 73

GFSMW_500_spd_114.txt.gz
Wind_Speed
34 40 42 37 29 33 34 32 34 34 25 20 19 18 22 24 22 21 25 36 26 38 40 47 44 43 36 36 37 37 37 35 34 33 31 29 24 26 23 24 23 26 31
35 40 41 35 30 33 34 33 34 34 24 19 17 18 18 22 20 20 21 32 22 29 44 47 51 46 35 38 36 35 34 36 37 36 32 31 28 26 26 28 26 26 26
37 39 38 35 33 33 36 33 35 34 24 17 16 16 17 20 21 18 17 19 20 23 30 46 51 45 41 35 33 34 36 38 39 36 36 34 31 31 30 30 28 29 26
36 41 37 38 34 35 39 35 37 30 22 17 17 15 14 18 20 15 18 13 14 27 32 41 46 44 41 39 34 33 32 35 35 35 36 33 31 33 35 34 38 33 36
39 40 35 35 36 33 31 34 37 31 21 17 16 14 14 17 18 15 15 17 13 10 38 45 45 45 39 35 34 31 29 32 34 34 33 34 33 36 32 34 31 33 36
41 39 31 33 38 34 32 32 35 30 20 19 16 13 12 14 17 17 14 15 16 17 21 37 44 45 32 33 33 30 30 31 32 35 37 36 36 34 33 31 25 26 35
42 36 32 35 37 35 32 34 34 30 21 20 17 13 13 15 16 17 17 17 19 21 21 24 24 31 33 33 34 33 34 29 28 35 36 34 33 32 30 27 25 27 37
41 38 35 40 37 39 34 34 30 31 24 21 18 14 15 17 15 17 17 17 21 23 27 28 27 40 37 34 34 38 38 35 35 33 35 37 34 33 29 27 28 34 40
44 42 37 40 40 40 34 33 31 30 25 22 20 15 16 17 15 16 16 16 22 27 26 34 32 39 40 40 38 40 43 41 39 38 39 40 39 36 37 32 34 42 45
45 43 40 46 42 36 34 36 33 33 25 23 22 17 17 17 15 15 15 16 18 27 23 23 36 42 43 41 43 38 42 43 40 39 42 41 40 42 39 38 43 46 44
42 41 39 48 43 37 37 35 36 30 27 26 24 19 17 18 16 14 13 16 14 14 18 20 36 39 43 38 38 41 37 39 36 33 35 35 33 37 40 44 51 49 40
42 38 39 43 44 39 40 38 35 30 32 28 25 20 19 18 16 14 14 15 16 15 16 17 28 31 34 38 41 49 38 36 27 23 28 34 38 37 45 48 44 39 29
37 37 38 48 45 42 43 42 38 35 33 30 26 22 21 19 15 16 14 15 13 15 10 8 20 25 35 39 46 41 41 32 33 35 30 28 36 34 31 28 27 28 31
31 30 42 50 45 44 47 45 43 37 34 32 28 26 24 20 15 15 12 15 16 13 11 7 4 16 28 32 39 32 30 29 29 25 24 20 20 21 25 30 35 38 38
22 22 45 50 49 49 45 46 48 38 36 33 30 28 25 22 18 15 12 12 16 17 14 12 9 7 5 23 28 34 23 14 18 21 23 26 30 34 36 37 39 40 40
13 14 40 53 51 49 48 53 50 42 39 36 34 32 28 25 21 19 15 11 12 18 20 18 16 14 12 11 12 16 18 22 25 27 29 31 34 35 37 40 42 43 42
17 17 15 54 55 48 47 49 44 45 41 40 38 35 31 28 25 22 18 15 14 14 20 20 20 20 19 20 21 21 23 25 27 28 29 30 31 34 36 38 40 42 44
18 15 15 50 57 55 51 42 44 41 41 43 41 39 35 33 29 24 22 20 18 16 15 17 20 23 24 24 25 26 27 29 29 29 29 30 31 33 36 39 41 42 42
15 14 15 47 57 60 61 57 54 45 42 47 45 44 39 34 30 28 27 24 22 19 17 18 18 19 21 22 23 25 25 22 19 21 22 25 28 29 32 36 39 41 44
14 11 15 30 47 51 54 52 47 34 50 46 43 42 41 38 35 32 32 28 26 24 22 19 19 19 20 21 22 22 22 24 25 26 28 31 33 35 39 42 44 44 47
10 11 12 5 25 45 44 11 37 44 32 35 35 38 35 35 37 39 37 34 30 28 25 24 22 22 20 20 22 24 27 30 32 33 35 37 40 44 46 47 46 48 60
12 11 12 8 17 32 48 47 25 25 26 35 36 36 38 36 42 40 39 40 37 34 31 28 29 29 30 29 28 29 31 36 38 40 40 44 47 50 52 52 53 64 64
15 13 11 14 15 22 34 53 30 31 30 28 25 28 35 29 38 45 43 42 41 34 33 31 30 30 34 33 34 35 33 32 41 51 45 52 52 57 65 57 58 64 67
16 16 16 16 17 22 25 34 32 29 29 30 27 22 33 28 26 43 51 48 39 35 33 34 40 39 34 41 36 41 49 43 43 44 57 54 51 66 75 75 64 65 65
21 18 20 18 18 22 24 26 27 29 29 29 27 26 30 35 34 27 37 41 36 40 42 43 45 39 39 39 42 44 51 49 52 58 50 56 57 56 57 61 59 58 59
26 20 21 20 23 23 25 27 29 33 33 32 32 34 35 36 38 40 43 41 39 41 44 43 38 36 40 46 46 44 50 48 47 48 53 55 54 58 61 62 61 62 61

GFSMW_500_spd_120.txt.gz
Wind_Speed
47 45 45 43 39 35 33 34 33 32 33 29 32 31 31 28 28 30 27 24 20 19 22 25 30 27 38 38 35 38 40 38 36 35 40 36 30 30 27 27 25 24 24
46 50 47 43 38 36 34 35 33 33 31 30 34 31 30 28 30 29 26 26 23 21 22 29 33 33 42 43 42 41 44 40 36 37 37 34 32 30 28 28 28 27 28
43 47 46 42 38 38 38 35 33 32 30 31 33 30 29 28 30 29 26 27 24 22 22 27 27 37 37 43 43 43 41 38 39 36 36 34 32 31 32 32 31 30 30
44 45 46 39 38 40 38 35 34 31 29 32 31 31 32 30 30 28 27 27 25 22 22 27 31 39 40 43 49 48 44 44 39 40 37 35 35 35 36 36 34 32 30
41 43 41 41 39 42 40 35 35 30 29 33 32 32 32 32 30 26 26 25 23 21 21 26 31 47 51 43 49 48 47 49 47 40 42 41 36 39 37 37 35 34 33
43 47 46 41 45 42 37 35 35 29 29 33 31 34 34 33 31 26 26 24 21 20 19 22 22 37 44 40 46 48 52 48 48 48 45 44 41 40 41 41 40 40 40
45 47 48 45 46 40 37 35 35 28 30 33 33 36 36 34 30 26 26 24 21 19 20 17 16 28 41 41 45 48 49 49 47 45 42 39 39 40 41 42 42 40 38
44 49 49 48 47 41 37 37 33 27 34 34 34 36 38 31 30 28 27 26 21 19 17 18 16 18 34 44 45 46 46 48 46 47 44 41 42 43 44 43 40 38 35
48 47 47 47 46 44 41 37 35 29 35 35 36 37 38 32 30 28 29 25 20 19 17 16 17 7 25 41 45 50 50 47 44 42 41 41 41 41 41 40 39 36 35
44 47 47 48 49 46 42 39 36 32 35 38 39 39 36 33 30 29 30 25 19 17 16 15 14 14 12 19 42 51 48 43 41 39 36 36 34 35 36 39 39 36 34
45 45 46 48 50 47 42 40 37 35 38 41 41 40 36 35 30 30 31 26 20 16 15 13 13 15 18 20 19 28 40 37 41 40 38 37 36 36 34 35 36 36 37
47 47 47 50 49 46 41 40 40 35 40 44 43 43 36 34 30 31 31 27 20 19 17 17 17 20 22 30 28 33 32 35 34 33 38 34 33 34 29 32 37 37 34
49 47 48 50 50 49 43 42 42 38 41 45 46 45 36 35 31 31 31 27 20 21 20 20 21 21 25 37 36 38 35 34 39 37 41 38 35 34 32 34 31 29 28
51 48 44 48 48 49 45 45 44 42 43 47 48 45 40 37 33 32 31 28 21 21 24 23 20 22 22 33 41 35 40 38 39 42 42 43 41 36 40 38 31 28 28
51 50 43 43 44 47 47 44 47 41 44 51 51 46 40 39 35 33 32 27 22 21 23 25 21 19 14 22 30 37 37 43 45 43 42 46 42 32 40 34 24 21 21
51 49 45 42 44 43 45 37 37 39 46 52 51 46 42 40 36 35 33 27 23 22 20 21 21 16 17 14 23 25 35 43 38 39 38 34 36 31 27 20 21 23 25
47 48 42 41 42 42 37 33 35 38 50 54 52 47 44 41 37 37 34 28 25 24 19 15 18 17 13 8 7 23 23 32 40 35 31 35 30 20 21 25 26 31 36
47 46 41 40 40 41 42 34 33 39 50 54 54 49 46 43 38 38 35 31 27 25 21 16 14 18 18 15 12 8 15 21 20 14 17 25 24 25 28 31 36 37 36
37 40 42 37 37 40 34 35 34 39 54 58 56 50 46 45 39 39 37 34 30 27 22 19 16 15 16 17 17 16 17 16 18 19 20 26 33 34 35 35 36 33 32
32 34 35 32 34 38 31 34 39 50 45 55 55 51 44 44 39 41 40 36 33 29 25 21 19 18 17 16 16 18 19 20 22 26 29 31 31 32 31 30 30 32 35
30 27 33 27 27 30 34 42 45 49 53 51 50 41 43 44 41 39 42 41 37 32 30 25 24 21 20 19 19 19 19 20 21 23 24 26 26 28 29 31 35 38 40
27 21 31 27 24 27 35 36 42 51 43 55 57 46 41 44 47 42 42 43 42 36 32 29 28 28 27 24 24 23 21 21 23 23 24 26 28 30 33 37 39 39 43
23 22 26 32 24 29 33 39 47 41 50 41 47 45 46 43 43 39 39 43 47 41 37 34 32 31 31 31 30 29 27 27 27 30 32 34 35 37 37 38 42 45 48
21 18 23 16 18 20 26 37 39 51 41 35 56 56 47 50 48 45 40 38 33 32 33 32 33 34 35 36 36 36 35 33 33 35 35 35 37 41 45 49 49 53 58
21 22 19 11 9 10 13 28 41 43 42 44 36 50 47 39 46 44 41 30 31 32 32 34 36 40 40 41 43 42 41 41 41 43 44 42 48 54 55 58 56 57 56
15 18 18 11 11 10 10 11 18 43 44 52 46 36 39 38 35 33 44 40 38 35 41 40 39 42 33 41 45 48 42 42 44 48 50 53 48 52 49 51 52 54 58

GFSMW_500_spd_123.txt.gz
Wind_Speed
47 48 47 47 43 42 40 41 37 37 37 36 37 35 33 32 31 29 26 24 25 27 27 26 25 28 29 28 34 36 32 34 37 38 34 30 32 33 32 28 27 27 24
49 46 44 43 43 44 43 41 38 38 36 36 37 35 32 32 31 30 26 24 26 26 29 29 27 30 34 33 36 38 37 36 37 39 35 30 30 34 31 28 29 27 24
46 51 46 48 49 49 45 45 41 37 35 39 36 37 31 33 31 27 27 23 26 28 27 30 29 30 30 36 40 34 46 40 40 37 34 29 27 32 31 32 30 28 27
47 48 49 50 50 48 46 45 41 40 38 40 35 36 30 34 34 29 28 24 27 29 29 30 32 32 31 33 41 39 43 46 41 41 38 32 34 34 33 32 32 31 31
45 45 46 47 48 46 45 44 41 40 39 41 35 35 32 35 35 28 29 25 27 29 30 30 33 34 33 30 41 44 49 46 40 37 36 35 36 35 36 37 36 35 34
44 42 44 45 47 45 45 41 43 41 41 41 34 33 33 36 34 30 29 25 28 29 31 32 34 34 32 35 43 41 49 51 45 41 39 38 38 34 38 39 38 39 37
48 48 47 46 46 47 43 44 42 40 42 40 35 33 34 36 33 33 30 25 28 30 30 33 33 33 31 31 43 39 44 44 44 45 45 41 40 41 46 43 43 40 38
43 44 46 48 50 49 50 44 44 42 41 40 35 32 36 35 34 34 30 26 27 30 31 33 32 31 29 27 43 43 42 48 47 47 50 50 46 47 45 47 41 41 42
42 46 48 49 47 47 46 45 44 42 40 37 34 31 37 37 37 35 29 28 28 29 31 31 30 28 27 25 33 45 46 48 50 52 52 49 47 48 44 45 42 40 41
39 43 45 49 50 47 42 43 45 44 42 38 34 33 38 40 39 34 28 29 30 28 30 30 27 25 24 22 32 40 42 46 52 48 52 50 50 50 42 40 37 39 39
40 42 45 43 45 50 53 47 44 45 43 39 37 35 40 43 41 35 30 30 31 29 30 27 24 23 24 22 23 37 42 46 47 48 50 52 52 47 39 38 38 34 31
36 37 38 40 43 44 48 48 47 44 45 41 39 35 39 46 40 36 33 32 31 29 29 26 24 22 24 26 26 20 41 43 44 50 50 49 52 46 36 33 34 32 30
34 36 37 38 40 44 45 46 48 45 46 42 40 37 37 46 40 36 35 32 31 28 29 27 28 26 28 27 27 24 28 34 40 43 41 39 39 39 34 34 33 32 35
35 36 39 40 41 40 44 45 49 48 42 40 41 40 38 45 44 38 37 33 31 30 30 28 29 26 26 28 29 33 35 28 37 37 40 39 32 35 33 34 33 33 36
42 42 42 43 43 42 43 44 42 48 43 42 41 40 39 44 46 40 38 35 31 31 31 28 27 26 28 28 31 38 40 33 37 37 41 45 43 39 37 40 30 32 39
45 47 48 48 48 41 42 45 42 43 44 43 43 41 42 46 47 42 39 36 33 32 31 27 24 24 29 29 31 30 40 41 39 44 41 39 40 45 43 45 38 33 33
49 49 51 52 51 44 42 42 43 40 43 43 44 42 44 49 48 43 41 38 34 33 32 26 24 22 26 26 25 13 24 32 37 40 47 44 41 37 35 43 34 29 28
49 48 48 50 51 45 43 41 41 40 42 43 40 40 47 50 48 45 45 39 36 34 32 27 23 21 20 22 19 13 11 23 29 41 44 43 48 41 34 33 31 21 27
46 48 46 45 46 43 40 41 40 41 40 35 36 42 47 51 49 46 45 40 38 36 34 28 22 20 18 17 18 16 12 8 12 21 22 27 27 30 26 20 24 29 33
33 37 41 43 41 38 39 39 42 43 37 37 38 41 48 53 50 45 45 39 39 38 36 30 23 21 19 16 16 17 17 17 15 19 18 17 17 22 29 29 30 35 38
25 27 34 37 37 37 36 40 43 42 40 43 44 39 50 52 50 47 46 45 43 40 38 33 27 24 23 19 17 16 17 18 20 22 23 25 28 31 34 36 37 37 37
21 22 24 28 28 28 32 38 44 40 43 45 49 41 51 54 48 49 44 46 42 45 40 36 31 28 26 24 22 20 20 20 21 24 26 28 30 31 32 33 33 34 35
20 21 22 26 26 29 29 34 39 42 42 44 43 54 55 61 49 46 45 38 43 44 42 38 35 33 29 28 26 24 24 24 24 24 24 25 27 27 28 31 35 39 42
20 20 24 29 25 26 34 31 36 36 38 41 38 48 55 48 47 43 39 40 39 41 39 40 40 38 36 35 32 29 29 28 29 31 31 31 31 32 34 35 37 40 45
19 22 25 29 24 24 31 30 31 34 39 37 40 47 51 56 56 45 43 41 38 38 41 43 44 44 41 37 36 37 35 35 35 35 36 36 38 39 41 43 44 48 49
21 20 24 24 25 19 17 17 18 30 34 27 45 48 44 51 58 48 47 45 44 42 46 42 32 33 32 37 36 37 35 38 39 40 40 40 44 44 46 47 46 50 52

GFSMW_500_spd_126.txt.gz
Wind_Speed
52 51 52 50 50 47 39 41 38 35 37 36 34 36 34 33 32 36 33 29 28 23 22 21 24 27 26 27 28 28 32 25 32 28 32 31 27 26 20 28 33 28 24
50 49 53 55 50 41 42 39 39 38 39 37 36 36 36 33 33 37 32 29 26 26 24 25 23 27 29 27 30 31 33 27 36 33 36 33 29 27 26 26 30 30 27
44 44 57 55 47 45 41 37 40 40 37 36 35 38 37 35 33 37 28 29 29 28 25 25 24 26 30 30 30 34 36 33 33 37 35 34 28 26 22 25 30 31 29
41 53 55 48 50 47 42 42 43 42 42 38 38 40 35 36 34 37 31 32 29 27 25 24 25 27 30 32 32 35 35 39 36 36 40 34 31 26 23 26 31 33 31
47 50 49 46 44 46 44 45 46 44 43 38 41 37 37 35 36 37 33 31 31 28 25 24 25 28 30 32 31 32 38 40 41 44 44 39 34 31 26 30 33 34 35
56 45 44 45 50 47 45 43 42 41 39 38 39 37 37 34 37 37 32 30 30 26 25 25 26 28 31 34 32 35 43 37 41 43 46 43 35 33 29 34 34 34 36
47 41 42 39 41 43 43 44 42 41 40 40 38 39 40 34 37 37 29 32 30 27 26 26 26 29 33 33 34 34 37 38 43 39 45 41 37 37 35 36 37 36 38
34 39 41 37 41 43 44 44 44 45 42 43 42 45 37 35 36 34 30 33 30 28 26 27 27 31 34 33 33 33 29 42 41 45 45 46 38 36 37 38 39 39 37
27 37 39 42 42 43 43 41 46 45 43 43 41 38 38 35 36 32 30 34 32 29 28 27 29 31 34 31 32 30 26 40 42 48 46 49 44 41 40 41 41 38 38
33 33 39 41 40 43 46 46 45 45 49 50 49 43 36 35 36 32 30 35 29 29 29 28 31 30 33 29 29 28 19 40 41 41 44 47 43 43 46 46 47 42 41
44 48 47 41 39 41 43 45 42 43 42 39 40 37 35 35 37 33 31 35 31 30 30 29 31 29 31 28 26 23 22 30 44 42 50 49 46 47 52 49 45 41 41
48 45 41 36 40 39 39 43 39 40 47 44 40 35 36 35 38 35 32 35 33 31 31 28 30 28 29 26 26 26 27 22 39 42 44 50 45 45 52 51 47 45 43
36 34 31 32 34 38 31 33 34 36 39 43 45 38 37 36 38 36 33 34 33 36 32 29 30 28 28 28 28 28 24 24 25 33 40 45 45 42 51 47 45 44 45
36 29 29 31 35 34 30 31 33 36 36 38 38 40 39 36 39 37 33 32 34 35 33 30 31 27 29 29 30 29 27 27 21 25 29 37 41 44 46 43 42 42 39
27 26 31 39 35 33 33 30 31 32 31 32 37 40 38 42 42 39 35 31 35 36 34 32 32 27 28 28 30 33 28 29 31 29 27 31 38 40 38 39 40 41 34
28 31 37 38 38 36 35 33 33 31 30 31 33 41 44 40 41 38 36 32 35 37 35 33 33 29 29 27 25 30 30 33 36 36 37 32 34 35 39 37 36 36 35
36 34 39 44 47 47 45 40 36 34 31 32 35 39 39 41 39 38 36 36 36 38 36 35 34 29 29 28 26 23 26 28 28 25 34 31 35 35 39 43 45 43 42
37 44 49 53 56 56 53 47 40 36 34 32 36 39 37 39 37 38 39 38 38 41 40 37 36 30 29 27 23 21 22 24 15 24 33 37 36 41 40 43 46 39 38
51 54 61 64 66 63 55 50 44 38 35 33 34 38 38 38 37 38 41 38 39 43 41 39 37 31 29 25 22 18 19 17 14 18 24 33 38 39 44 49 50 37 33
51 55 57 63 60 54 48 43 40 40 36 34 34 36 37 36 36 38 38 39 43 46 44 42 38 33 30 25 20 17 15 16 15 9 11 10 27 32 32 36 35 27 20
25 27 30 34 40 43 45 42 39 38 37 36 35 34 36 34 38 39 40 42 47 48 47 44 39 34 32 28 22 18 17 16 18 18 16 15 14 15 19 20 24 27 29
22 22 23 26 29 31 34 39 39 38 38 38 38 38 36 37 50 37 36 47 50 51 47 42 40 36 34 31 26 22 20 19 18 19 18 20 22 21 22 27 32 34 36
21 26 27 25 28 29 28 28 33 35 37 40 40 39 38 42 45 46 45 51 51 50 45 44 44 38 36 34 29 27 23 22 21 20 21 23 24 26 29 33 37 38 37
22 24 25 25 26 28 27 28 29 29 32 37 38 39 41 40 42 42 46 53 57 49 45 47 47 46 42 39 34 31 29 24 24 26 27 26 27 28 29 31 32 34 37
22 24 26 24 27 27 26 29 25 33 31 32 33 37 46 39 44 49 54 54 52 47 48 45 46 40 48 46 39 36 34 33 31 29 28 28 30 31 33 35 37 37 40
22 23 22 22 19 18 25 31 28 28 27 29 32 31 36 41 39 48 73 56 54 50 44 41 38 37 39 44 42 42 39 36 34 31 31 31 32 33 33 37 38 37 39